[[{"header":{"parameterUnit":"m.s-1","parameterCategory":1,"la1":30.6,"la2":28.766,"lo1":-90.7593,"lo2":-88.6598,"dy":0.0162,"dx":0.0183,"nx":116,"ny":114,"refTime":"2024-03-12T12:00:00:Z","depth":0,"parameterNumber":2,"parameterNumberName":"U-component_of_WINDS"},"data":[0.0,0.0,0.0,0.0,0.0,0.0,0.0,0.0,0.0,0.0,0.0,0.0,0.0,0.0,0.0,0.0,0.0,0.0,0.0,0.0,0.0,0.0,0.0,0.0,0.0,0.0,0.0,0.0,0.0,0.0,0.0,0.0,0.0,0.0,0.0,0.0,0.0,0.0,0.0,0.0,0.0,0.0,0.0,0.0,0.0,0.0,0.0,0.0,0.0,0.0,0.0,0.0,0.0,0.0,0.0,0.0,0.0,0.0,0.0,0.0,0.0,0.0,0.0,0.0,0.0,0.0,0.0,0.0,0.0,0.0,0.0,0.0,0.0,0.0,0.0,0.0,0.0,0.0,0.0,0.0,0.0,0.0,0.0,0.0,0.0,0.0,0.0,0.0,0.0,0.0,0.0,0.0,0.0,0.0,0.0,0.0,0.0,0.0,0.0,0.0,0.0,0.0,0.0,0.0,0.0,0.0,0.0,0.0,0.0,0.0,0.0,0.0,0.0,0.0,0.0,0.0,0.0,0.0,0.0,0.0,0.0,0.0,0.0,0.0,0.0,0.0,0.0,0.0,0.0,0.0,0.0,0.0,0.0,0.0,0.0,0.0,0.0,0.0,0.0,0.0,0.0,0.0,0.0,0.0,0.0,0.0,0.0,0.0,0.0,0.0,0.0,0.0,0.0,0.0,0.0,0.0,0.0,0.0,0.0,0.0,0.0,0.0,0.0,0.0,0.0,0.0,0.0,0.0,0.0,0.0,0.0,0.0,0.0,0.0,0.0,0.0,0.0,0.0,0.0,0.0,0.0,0.0,0.0,0.0,0.0,0.0,0.0,0.0,0.0,0.0,0.0,0.0,0.0,0.0,0.0,0.0,0.0,0.0,0.0,0.0,0.0,0.0,0.0,0.0,0.0,0.0,0.0,0.0,0.0,0.0,0.0,0.0,0.0,0.0,0.0,0.0,0.0,0.0,0.0,0.0,0.0,0.0,0.0,0.0,0.0,0.0,0.0,0.0,0.0,0.0,0.0,0.0,0.0,0.0,0.0,0.0,0.0,0.0,0.0,0.0,0.0,0.0,0.0,0.0,0.0,0.0,0.0,0.0,0.0,0.0,0.0,0.0,0.0,0.0,0.0,0.0,0.0,0.0,0.0,0.0,0.0,0.0,0.0,0.0,0.0,0.0,0.0,0.0,0.0,0.0,0.0,0.0,0.0,0.0,0.0,0.0,0.0,0.0,0.0,0.0,0.0,0.0,0.0,0.0,0.0,0.0,0.0,0.0,0.0,0.0,0.0,0.0,0.0,0.0,0.0,0.0,0.0,0.0,0.0,0.0,0.0,0.0,0.0,0.0,0.0,0.0,0.0,0.0,0.0,0.0,0.0,0.0,0.0,0.0,0.0,0.0,0.0,0.0,0.0,0.0,0.0,0.0,0.0,0.0,0.0,0.0,0.0,0.0,0.0,0.0,0.0,0.0,0.0,0.0,0.0,0.0,0.0,0.0,0.0,0.0,0.0,0.0,0.0,0.0,0.0,0.0,0.0,0.0,0.0,0.0,0.0,0.0,0.0,0.0,0.0,0.0,0.0,0.0,0.0,0.0,0.0,0.0,0.0,0.0,0.0,0.0,0.0,0.0,0.0,0.0,0.0,0.0,0.0,0.0,0.0,0.0,0.0,0.0,0.0,0.0,0.0,0.0,0.0,0.0,0.0,0.0,0.0,0.0,0.0,0.0,0.0,0.0,0.0,0.0,0.0,0.0,0.0,0.0,0.0,0.0,0.0,0.0,0.0,0.0,0.0,0.0,0.0,0.0,0.0,0.0,0.0,0.0,0.0,0.0,0.0,0.0,0.0,0.0,0.0,0.0,0.0,0.0,0.0,0.0,0.0,0.0,0.0,0.0,0.0,0.0,0.0,0.0,0.0,0.0,0.0,0.0,0.0,0.0,0.0,0.0,0.0,0.0,0.0,0.0,0.0,0.0,0.0,0.0,0.0,0.0,0.0,0.0,0.0,0.0,0.0,0.0,0.0,0.0,0.0,0.0,0.0,0.0,0.0,0.0,0.0,0.0,0.0,0.0,0.0,0.0,0.0,0.0,0.0,0.0,0.0,0.0,0.0,0.0,0.0,0.0,0.0,0.0,0.0,0.0,0.0,0.0,0.0,0.0,0.0,0.0,0.0,0.0,0.0,0.0,0.0,0.0,0.0,0.0,0.0,0.0,0.0,0.0,0.0,0.0,0.0,0.0,0.0,0.0,0.0,0.0,0.0,0.0,0.0,0.0,0.0,0.0,0.0,0.0,0.0,0.0,0.0,0.0,0.0,0.0,0.0,0.0,0.0,0.0,0.0,0.0,0.0,0.0,0.0,0.0,0.0,0.0,0.0,0.0,0.0,0.0,0.0,0.0,0.0,0.0,0.0,0.0,0.0,0.0,0.0,0.0,0.0,0.0,0.0,0.0,0.0,0.0,0.0,0.0,0.0,0.0,0.0,0.0,0.0,0.0,0.0,0.0,0.0,0.0,0.0,0.0,0.0,0.0,0.0,0.0,0.0,0.0,0.0,0.0,0.0,0.0,0.0,0.0,0.0,0.0,0.0,0.0,0.0,0.0,0.0,0.0,0.0,0.0,0.0,0.0,0.0,0.0,0.0,0.0,0.0,0.0,0.0,0.0,0.0,0.0,0.0,0.0,0.0,0.0,0.0,0.0,0.0,0.0,0.0,0.0,0.0,0.0,0.0,0.0,0.0,0.0,0.0,0.0,0.0,0.0,0.0,0.0,0.0,0.0,0.0,0.0,0.0,0.0,0.0,0.0,0.0,0.0,0.0,0.0,0.0,0.0,0.0,0.0,0.0,0.0,0.0,0.0,0.0,0.0,0.0,0.0,0.0,0.0,0.0,0.0,0.0,0.0,0.0,0.0,0.0,0.0,0.0,0.0,0.0,0.0,0.0,0.0,0.0,0.0,0.0,0.0,0.0,0.0,0.0,0.0,0.0,0.0,0.0,0.0,0.0,0.0,0.0,0.0,0.0,0.0,0.0,0.0,0.0,0.0,0.0,0.0,0.0,0.0,0.0,0.0,0.0,0.0,0.0,0.0,0.0,0.0,0.0,0.0,0.0,0.0,0.0,0.0,0.0,0.0,0.0,0.0,0.0,0.0,0.0,0.0,0.0,0.0,0.0,0.0,0.0,0.0,0.0,0.0,0.0,0.0,0.0,0.0,0.0,0.0,0.0,0.0,0.0,0.0,0.0,0.0,0.0,0.0,0.0,0.0,0.0,0.0,0.0,0.0,0.0,0.0,0.0,0.0,0.0,0.0,0.0,0.0,0.0,0.0,0.0,0.0,0.0,0.0,0.0,0.0,0.0,0.0,0.0,0.0,0.0,0.0,0.0,0.0,0.0,0.0,0.0,0.0,0.0,0.0,0.0,0.0,0.0,0.0,0.0,0.0,0.0,0.0,0.0,0.0,0.0,0.0,0.0,0.0,0.0,0.0,0.0,0.0,0.0,0.0,0.0,0.0,0.0,0.0,0.0,0.0,0.0,0.0,0.0,0.0,0.0,0.0,0.0,0.0,0.0,0.0,0.0,0.0,0.0,0.0,0.0,0.0,0.0,0.0,0.0,0.0,0.0,0.0,0.0,0.0,0.0,0.0,0.0,0.0,0.0,0.0,0.0,0.0,0.0,0.0,0.0,0.0,0.0,0.0,0.0,0.0,0.0,0.0,0.0,0.0,0.0,0.0,0.0,0.0,0.0,0.0,0.0,0.0,0.0,0.0,0.0,0.0,0.0,0.0,0.0,0.0,0.0,0.0,0.0,0.0,0.0,0.0,0.0,0.0,0.0,0.0,0.0,0.0,0.0,0.0,0.0,0.0,0.0,0.0,0.0,0.0,0.0,0.0,0.0,0.0,0.0,0.0,0.0,0.0,0.0,0.0,0.0,0.0,0.0,0.0,0.0,0.0,0.0,0.0,0.0,0.0,0.0,0.0,0.0,0.0,0.0,0.0,0.0,0.0,0.0,0.0,0.0,0.0,0.0,0.0,0.0,0.0,0.0,0.0,0.0,0.0,0.0,0.0,0.0,0.0,0.0,0.0,0.0,0.0,0.0,0.0,0.0,0.0,0.0,0.0,0.0,0.0,0.0,0.0,0.0,0.0,0.0,0.0,0.0,0.0,0.0,0.0,0.0,0.0,0.0,0.0,0.0,0.0,0.0,0.0,0.0,0.0,0.0,0.0,0.0,0.0,0.0,0.0,0.0,0.0,0.0,0.0,0.0,0.0,0.0,0.0,0.0,0.0,0.0,0.0,0.0,0.0,0.0,0.0,0.0,0.0,0.0,0.0,0.0,0.0,0.0,0.0,0.0,0.0,0.0,0.0,0.0,0.0,0.0,0.0,0.0,0.0,0.0,0.0,0.0,0.0,0.0,0.0,0.0,0.0,0.0,0.0,0.0,0.0,0.0,0.0,0.0,0.0,0.0,0.0,0.0,0.0,0.0,0.0,0.0,0.0,0.0,0.0,0.0,0.0,0.0,0.0,0.0,0.0,0.0,0.0,0.0,0.0,0.0,0.0,0.0,0.0,0.0,0.0,0.0,0.0,0.0,0.0,0.0,0.0,0.0,0.0,0.0,0.0,0.0,0.0,0.0,0.0,0.0,0.0,0.0,0.0,0.0,0.0,0.0,0.0,0.0,0.0,0.0,0.0,0.0,0.0,0.0,0.0,0.0,0.0,0.0,0.0,0.0,0.0,0.0,0.0,0.0,0.0,0.0,0.0,0.0,0.0,0.0,0.0,0.0,0.0,0.0,0.0,0.0,0.0,0.0,0.0,0.0,0.0,0.0,0.0,0.0,0.0,0.0,0.0,0.0,0.0,0.0,0.0,0.0,0.0,0.0,0.0,0.0,0.0,0.0,0.0,0.0,0.0,0.0,0.0,0.0,0.0,0.0,0.0,0.0,0.0,0.0,0.0,0.0,0.0,0.0,0.0,0.0,0.0,0.0,0.0,0.0,0.0,0.0,0.0,0.0,0.0,0.0,0.0,0.0,0.0,0.0,0.0,0.0,0.0,0.0,0.0,0.0,0.0,0.0,0.0,0.0,0.0,0.0,0.0,0.0,0.0,0.0,0.0,0.0,0.0,0.0,0.0,0.0,0.0,0.0,0.0,0.0,0.0,0.0,0.0,0.0,0.0,0.0,0.0,0.0,0.0,0.0,0.0,0.0,0.0,0.0,0.0,0.0,0.0,0.0,0.0,0.0,0.0,0.0,0.0,0.0,0.0,0.0,0.0,0.0,0.0,0.0,0.0,0.0,0.0,0.0,0.0,0.0,0.0,0.0,0.0,0.0,0.0,0.0,0.0,0.0,0.0,0.0,0.0,0.0,0.0,0.0,0.0,0.0,0.0,0.0,0.0,0.0,0.0,0.0,0.0,0.0,0.0,0.0,0.0,0.0,0.0,0.0,0.0,0.0,0.0,0.0,0.0,0.0,0.0,0.0,0.0,0.0,0.0,0.0,0.0,0.0,0.0,0.0,0.0,0.0,0.0,0.0,0.0,0.0,0.0,0.0,0.0,0.0,0.0,0.0,0.0,0.0,0.0,0.0,0.0,0.0,0.0,0.0,0.0,0.0,0.0,0.0,0.0,0.0,0.0,0.0,0.0,0.0,0.0,0.0,0.0,0.0,0.0,0.0,0.0,0.0,0.0,0.0,0.0,0.0,0.0,0.0,0.0,0.0,0.0,0.0,0.0,0.0,0.0,0.0,0.0,0.0,0.0,0.0,0.0,0.0,0.0,0.0,0.0,0.0,0.0,0.0,0.0,0.0,0.0,0.0,0.0,0.0,0.0,0.0,0.0,0.0,0.0,0.0,0.0,0.0,0.0,0.0,0.0,0.0,0.0,0.0,0.0,0.0,0.0,0.0,0.0,0.0,0.0,0.0,0.0,0.0,0.0,0.0,0.0,0.0,0.0,0.0,0.0,0.0,0.0,0.0,0.0,0.0,0.0,0.0,0.0,0.0,0.0,0.0,0.0,0.0,0.0,0.0,0.0,0.0,0.0,0.0,0.0,0.0,0.0,0.0,0.0,0.0,0.0,0.0,0.0,0.0,0.0,0.0156,0.0,0.0,0.0,0.0,0.0,0.0,0.0,0.0,0.0,0.0,0.0,0.0,0.0,0.0,0.0,0.0,0.0,0.0,0.0,0.0,0.0,0.0,0.0,0.0,0.0,0.0,0.0,-1.2285,-1.253,-1.2642,-1.2999,-1.3573,-1.4388,-1.5097,-1.588,-1.6769,-1.7249,-1.8124,-1.9386,-1.9675,-2.0655,-2.2228,-2.3063,-2.3927,-2.4818,0.0,0.0,0.0,0.0,0.0,0.0,0.0,0.0,0.0,0.0,0.0,0.0,0.0,0.0,0.0,0.0,0.0,0.0,0.0,0.0,0.0,0.0,0.0,0.0,0.0,0.0,0.0,0.0,0.0,0.0,0.0,0.0,0.0,0.0,0.0,0.0,0.0,0.0,0.0,0.0,0.0,0.0,0.0,0.0,0.0,0.0,0.0,0.0,0.0,0.0,0.0,0.0,0.0,0.0,0.0,0.0,0.0,0.0,0.0,0.0,0.0,0.0,0.0,0.0,0.0,0.0,0.0,0.0,0.0,0.0,0.0,0.0565,0.0,0.0,0.0,0.0,0.0,0.0,0.0,0.0,0.0,0.0,0.0,0.0,0.0,0.0,0.0,0.0,0.0,0.0,0.0,0.0,0.0,0.0,0.0,-1.1006,-1.1536,-1.2415,-1.2687,-1.2869,-1.2962,-1.2909,-1.3413,-1.466,-1.4913,-1.5627,-1.6964,-1.7339,-1.8193,-1.9569,-1.9309,-2.0148,-2.2038,-2.3094,-2.3952,0.0,0.0,0.0,0.0,0.0,0.0,0.0,0.0,0.0,0.0,0.0,0.0,0.0,0.0,0.0,0.0,0.0,0.0,0.0,0.0,0.0,0.0,0.0,0.0,0.0,0.0,0.0,0.0,0.0,0.0,0.0,0.0,0.0,0.0,0.0,0.0,0.0,0.0,0.0,0.0,0.0,0.0,0.0,0.0,0.0,0.0,0.0,0.0,0.0,0.0,0.0,0.0,0.0,0.0,0.0,0.0,0.0,0.0,0.0,0.0,0.0,0.0,0.0,0.0,0.0,-0.8557,-0.6615,-0.4774,-0.2915,-0.1428,-0.0268,0.0606,0.0895,0.0741,0.0808,0.0,0.0,0.0,0.0,0.0,0.0,0.0,0.0,0.0,0.0,0.0,0.0,0.0,0.0,0.0,0.0,0.0,0.0,0.0,0.0,0.0,-1.1526,-1.2193,-1.2781,-1.2909,-1.3052,-1.3244,-1.3175,-1.3169,-1.3198,-1.4353,-1.5103,-1.5305,-1.6577,-1.7716,-1.8675,-1.9496,-2.0482,-2.1694,-2.2189,-2.295,-2.3928,0.0,0.0,0.0,0.0,0.0,0.0,0.0,0.0,0.0,0.0,0.0,0.0,0.0,0.0,0.0,0.0,0.0,0.0,0.0,0.0,0.0,0.0,0.0,0.0,0.0,0.0,0.0,0.0,0.0,0.0,0.0,0.0,0.0,0.0,0.0,0.0,0.0,0.0,0.0,0.0,0.0,0.0,0.0,0.0,0.7093,0.6625,0.0,0.0,0.0,0.0,0.0,0.0,0.0,0.0,0.0,0.0,0.0,0.0,0.0,-1.2029,-1.18,-1.0867,-0.9999,-0.916,-0.6664,-0.4901,-0.3747,-0.1924,-0.0396,0.0836,0.1479,0.0,0.0909,0.1259,0.0,0.0,0.0,0.0,0.0,0.0,0.0,0.0,0.0,0.0,0.0,0.0,0.0,0.0,0.0,0.0,0.0,0.0,0.0,0.0,0.0,-1.171,-1.2291,-1.2581,-1.282,-1.307,-1.3346,-1.3123,-1.3305,-1.3986,-1.447,-1.5087,-1.5887,-1.6454,-1.6985,-1.7426,-1.8794,-1.9581,-1.9875,-2.069,-2.1427,-2.2096,-2.252,-2.3505,-2.4719,-2.37,0.0,0.0,0.0,0.0,0.0,0.0,0.0,0.0,0.0,0.0,0.0,0.0,0.0,0.0,0.0,0.0,0.0,0.0,0.0,0.0,0.0,0.0,0.0,0.0,0.0,0.0,0.0,0.0,0.0,0.0,0.0,0.0,0.0,0.0,0.0,0.0,0.0,0.0,0.0,0.731,0.7404,0.7,0.6259,0.5102,0.0,0.0,0.0,0.0,0.0,0.0,0.0,0.0,0.0,-1.1821,-1.1179,-1.0778,-1.0664,-0.9101,-0.7926,-0.718,-0.5095,-0.3382,-0.2027,-0.0672,0.0592,0.1777,0.2378,0.247,0.2233,0.2152,0.206,0.1967,0.0,0.0,0.0,0.0,0.2159,0.2457,0.0,0.0,0.0,0.0,0.0,0.0,0.0,0.0,0.0,0.0,0.0,0.0,-1.0765,-1.1498,-1.1984,-1.2297,-1.2597,-1.2891,-1.3142,-1.2893,-1.3138,-1.4095,-1.4113,-1.4631,-1.5765,-1.6042,-1.6227,-1.634,-1.759,-1.823,-1.8297,-1.9236,-1.9945,-2.0472,-2.082,-2.2063,-2.3889,-2.3251,-2.2683,0.0,0.0,0.0,0.0,0.0,0.0,0.0,0.0,0.0,0.0,0.0,0.0,0.0,0.0,0.0,0.0,0.0,0.0,0.0,0.0,0.0,0.0,0.0,0.0,0.0,0.0,0.0,0.0,0.0,0.0,0.0,0.0,0.0,0.0,0.0,0.0,0.0,0.0,0.8153,0.7999,0.7632,0.6853,0.5717,0.0,0.0,0.0,0.0,0.0,0.0,-0.7638,-0.8855,-0.9744,-1.0188,-0.9534,-0.9107,-0.8924,-0.7142,-0.5848,-0.4998,-0.3382,-0.1862,-0.0412,0.0639,0.1683,0.2737,0.3334,0.365,0.3657,0.3077,0.2806,0.2777,0.2658,0.2769,0.3023,0.3026,0.3236,0.3563,0.0,0.0,0.0,0.0,0.0,0.0,0.0,0.0,0.0,0.0,0.0,-0.8727,-1.0016,-1.0641,-1.1269,-1.2041,-1.2293,-1.2466,-1.2546,-1.254,-1.2392,-1.2064,-1.2666,-1.3202,-1.3638,-1.4841,-1.5521,-1.5652,-1.5926,-1.6601,-1.7658,-1.8028,-1.8762,-1.9772,-2.0161,-2.0901,-2.183,-2.1265,-2.1086,-2.1027,0.0,0.0,0.0,0.0,0.0,0.0,0.0,0.0,0.0,0.0,0.0,0.0,0.0,0.0,0.0,0.0,0.0,0.0,0.0,0.0,0.0,0.0,0.0,0.0,0.0,0.0,0.0,0.0,0.0,0.0,0.0,0.0,0.0,0.0,0.0,0.0,0.0,0.0,0.0,0.9237,0.8246,0.0,0.0,0.0,0.0,-0.1123,-0.3239,-0.4982,-0.6323,-0.6881,-0.7374,-0.7746,-0.7265,-0.658,-0.5715,-0.4919,-0.3871,-0.2561,-0.1398,-0.0266,0.084,0.1985,0.2987,0.3851,0.446,0.4765,0.4734,0.3831,0.3505,0.3538,0.3468,0.3598,0.3832,0.371,0.3871,0.4135,0.0,0.0,0.0,0.0,0.0,0.0,0.0,0.0,-0.6637,-0.7294,-0.7518,-0.8077,-0.9269,-0.999,-1.069,-1.1461,-1.1694,-1.1879,-1.1984,-1.1864,-1.1763,-1.1723,-1.1834,-1.2052,-1.2333,-1.3308,-1.3868,-1.406,-1.4341,-1.4936,-1.5802,-1.6196,-1.6657,-1.7137,-1.7517,-1.8002,-1.8659,-2.0354,-2.096,-2.0686,-2.0289,-1.8994,0.0,0.0,0.0,0.0,0.0,0.0,0.0,0.0,0.0,0.0,0.0,0.0,0.0,0.0,0.0,0.0,0.0,0.0,0.0,0.0,0.0,0.0,0.0,0.0,0.0,0.0,0.0,0.0,0.0,0.0,0.0,0.0,0.0,0.0,0.0,0.0,0.0,1.0127,0.9057,0.0,0.6169,0.4251,0.2347,0.0488,-0.1368,-0.2911,-0.3989,-0.4767,-0.5288,-0.5549,-0.5212,-0.4684,-0.4029,-0.3023,-0.1907,-0.0629,0.0475,0.1801,0.3168,0.388,0.4697,0.5595,0.5907,0.6085,0.6169,0.5901,0.5294,0.4495,0.4418,0.4628,0.4938,0.4923,0.513,0.546,0.0,0.0,0.0,0.0,0.0,0.0,0.0,0.0,-0.5995,-0.654,-0.6723,-0.717,-0.8156,-0.8926,-0.9709,-1.0509,-1.0832,-1.1015,-1.113,-1.0996,-1.087,-1.0845,-1.0819,-1.0868,-1.0961,-1.1701,-1.2246,-1.2595,-1.2707,-1.3243,-1.4142,-1.4326,-1.4641,-1.5007,-1.5314,-1.5664,-1.6129,-1.8252,-1.9356,-1.9694,-1.9681,-1.8703,-1.7206,0.0,0.0,0.0,0.0,0.0,0.0,0.0,0.0,0.0,0.0,0.0,0.0,0.0,0.0,0.0,0.0,0.0,0.0,0.0,0.0,0.0,0.0,0.0,0.0,0.0,0.0,0.0,0.0,0.0,0.0,0.0,0.0,0.0,0.0,0.0,1.0741,1.0463,0.946,0.831,0.703,0.5342,0.3654,0.2012,0.0384,-0.0967,-0.1925,-0.2789,-0.3229,-0.3322,-0.3035,-0.2632,-0.1998,-0.089,0.0153,0.1222,0.2403,0.361,0.4943,0.5585,0.6265,0.6838,0.7218,0.737,0.7338,0.7427,0.6904,0.6049,0.585,0.5967,0.6275,0.6173,0.6291,0.6535,0.0,0.0,0.0,0.0,0.0,0.0,0.0,-0.5049,-0.4943,-0.5404,-0.5633,-0.6012,-0.6658,-0.7455,-0.8311,-0.9234,-0.9626,-0.9859,-0.9931,-0.9869,-0.9652,-0.926,-0.9477,-0.9566,-0.9414,-1.006,-1.0688,-1.1304,-1.1026,-1.1535,-1.269,-1.2493,-1.2801,-1.3526,-1.3805,-1.4065,-1.4332,-1.4788,-1.6123,-1.789,-1.7452,-1.7223,-1.7029,0.0,0.0,0.0,0.0,0.0,0.0,0.0,0.0,0.0,0.0,0.0,0.0,0.0,0.0,0.0,0.0,0.0,0.0,0.0,0.0,0.0,0.0,0.0,0.0,0.0,0.0,0.0,0.0,0.0,0.0,0.0,0.0,0.0,1.0478,1.0395,1.0362,1.0353,0.959,0.8706,0.7813,0.6483,0.4991,0.3401,0.2053,0.0829,-0.0222,-0.0893,-0.1191,-0.1112,-0.082,-0.0357,0.0368,0.1429,0.2344,0.3103,0.4307,0.5242,0.6014,0.7085,0.7547,0.7625,0.8383,0.8567,0.8289,0.8282,0.8275,0.8228,0.7732,0.7631,0.7755,0.7368,0.7314,0.7342,0.0,0.0,0.0,0.0,0.0,0.0,0.0,-0.468,-0.4536,-0.4426,-0.4626,-0.4942,-0.5373,-0.6097,-0.6832,-0.7521,-0.798,-0.8261,-0.833,-0.8452,-0.8316,-0.7883,-0.7925,-0.7772,-0.7416,-0.8004,-0.8486,-0.88,-0.8942,-0.954,-1.0485,-1.0683,-1.1009,-1.1428,-1.1823,-1.2001,-1.2129,-1.2574,-1.3284,-1.4195,-1.6007,-1.6485,-1.6034,0.0,0.0,0.0,0.0,0.0,0.0,0.0,0.0,0.0,0.0,0.0,0.0,0.0,0.0,0.0,0.0,0.0,0.0,0.0,0.0,0.0,0.0,0.0,0.0,0.0,0.0,0.0,0.0,0.0,0.0,0.0,0.0,1.0736,1.1005,1.1571,1.1823,1.1506,1.0767,0.983,0.8564,0.7474,0.6203,0.4674,0.3749,0.2813,0.1845,0.1358,0.108,0.109,0.1211,0.1519,0.2205,0.3032,0.3865,0.471,0.5851,0.6827,0.7643,0.8338,0.8877,0.9319,0.9646,0.9763,0.9774,0.9705,0.9664,0.9539,0.831,0.8011,0.8233,0.8112,0.8037,0.8005,0.0,0.0,0.0,0.0,0.0,0.0,0.0,-0.3897,-0.3671,-0.3592,-0.3521,-0.3608,-0.3936,-0.4437,-0.5094,-0.5952,-0.6372,-0.6756,-0.7136,-0.7148,0.0,0.0,0.0,-0.6379,-0.5968,-0.6387,-0.6755,-0.704,-0.7072,-0.7582,-0.8545,-0.8505,-0.8738,-0.9259,-0.9492,-0.9628,-0.9667,-1.0111,-1.0479,-1.0924,-1.2641,-1.3771,-1.4288,-1.3552,-1.2954,-1.2404,-1.1609,-1.0677,-0.9725,-0.9077,0.0,0.0,0.0,0.0,0.0,0.0,0.0,0.0,0.0,0.0,0.0,0.0,0.0,0.0,0.0,0.0,0.0,0.0,0.0,0.0,0.0,0.0,0.0,0.0,1.0061,1.0852,1.1252,1.1799,1.2095,1.185,1.1132,1.0328,0.9474,0.8311,0.7176,0.6092,0.5144,0.4254,0.3453,0.3099,0.2837,0.2812,0.3036,0.3455,0.4076,0.4903,0.578,0.6625,0.7535,0.8435,0.9328,0.9844,1.0281,1.0587,1.0818,1.0902,1.0751,1.0613,1.0512,0.0,0.0,0.0,0.0,0.0,0.8717,0.8588,0.0,0.0,0.0,0.0,0.0,0.0,0.0,-0.2904,-0.2597,-0.2706,-0.2329,-0.2137,-0.2343,-0.2589,-0.3193,-0.4318,-0.4668,-0.5174,-0.6028,-0.5888,0.0,-0.4998,-0.5181,-0.5174,-0.4916,-0.5118,-0.5377,-0.5699,-0.5357,-0.5719,-0.6691,-0.6186,-0.6321,-0.7024,-0.7024,-0.7059,-0.7079,-0.7452,-0.7712,-0.7936,-0.83,-0.9934,-1.2032,-1.1056,-1.0699,-1.0657,-1.0174,-0.9242,-0.8187,-0.7675,0.0,0.0,0.0,0.0,0.0,0.0,0.0,0.0,0.0,0.0,0.0,0.0,0.0,0.0,0.0,0.0,0.0,0.0,0.0,0.0,0.0,0.0,0.0,0.0,1.0449,1.1186,1.1398,1.1569,1.1684,1.1741,1.1109,1.0579,1.0349,0.9109,0.8099,0.7476,0.642,0.5502,0.4928,0.0,0.0,0.0,0.0,0.5389,0.6,0.6921,0.7783,0.8694,0.927,0.9974,1.0867,1.1361,1.1549,1.1473,1.1914,1.1859,1.1441,1.1287,1.1064,1.0748,0.9978,0.9732,0.9814,0.963,0.9402,0.9206,0.0,0.0,0.0,0.0,0.0,0.0,0.0,-0.241,-0.1927,-0.1168,-0.111,-0.0945,-0.0421,-0.0787,-0.1333,-0.1998,-0.2349,-0.2988,-0.4065,0.0,-0.4387,-0.4226,-0.4097,-0.3973,-0.3811,-0.3941,-0.3956,-0.3837,-0.3956,-0.4132,-0.4352,-0.4304,-0.438,-0.459,-0.4624,-0.4568,-0.4431,-0.4584,-0.4698,-0.4857,-0.5099,-0.7158,-0.9999,-0.916,-0.8921,-0.894,-0.793,-0.7222,-0.6622,-0.587,-0.4684,-0.3319,-0.2347,0.0,0.0,0.0,0.0,0.0,0.0,0.0,0.0,0.0,0.0,0.0,0.0,0.0,0.0,0.0,0.0,0.0,0.0,0.0,0.0,1.0467,1.1277,1.1933,1.2109,1.2084,1.2063,1.2015,1.1925,1.1474,1.048,1.0026,0.9344,0.8178,0.7665,0.7197,0.6544,0.6498,0.6455,0.6491,0.6884,0.7346,0.7737,0.8464,0.912,0.962,0.0,0.0,1.1567,1.1983,1.2258,1.2543,1.2808,1.271,1.25,1.2158,1.1678,1.101,1.0393,1.0162,1.0205,1.0289,1.0095,0.9834,0.0,0.0,0.0,0.0,0.0,0.0,0.0,-0.1858,-0.1149,-0.0312,0.0,0.0283,0.0606,0.0347,-0.0217,-0.1128,-0.1867,-0.2524,0.0,-0.3255,-0.3351,-0.3188,-0.3126,-0.2999,-0.2798,-0.2962,-0.29,-0.2599,-0.2596,-0.2585,-0.2598,-0.2314,-0.2192,-0.2201,-0.2065,-0.1884,-0.1663,-0.156,-0.1615,-0.1706,-0.1828,-0.3038,-0.4803,-0.577,-0.6087,-0.5939,-0.5354,-0.4679,-0.4037,-0.3638,-0.2551,-0.1317,-0.0722,0.0133,0.1083,0.0,0.0,0.0,0.0,0.0,0.0,0.0,0.0,0.0,0.0,0.0,0.0,0.0,0.0,0.7887,0.8149,0.0,1.0197,1.0545,1.1156,1.165,1.1824,1.1959,1.2061,1.1986,1.1845,1.1499,1.0857,1.0417,0.9843,0.9137,0.8705,0.8359,0.7986,0.7837,0.7853,0.7924,0.8317,0.8662,0.9021,0.9635,1.0275,1.1078,1.1508,1.2084,1.2805,1.2946,1.313,1.3309,1.3317,1.3261,1.3176,1.2838,1.2266,1.156,1.1399,1.1042,1.068,1.0785,1.0777,1.0699,0.0,0.0,0.0,0.0,0.0,0.0,0.0,-0.1529,-0.063,0.0248,0.095,0.1367,0.1375,0.1221,0.0619,-0.0616,-0.1694,0.0,0.0,-0.2281,-0.2266,-0.2109,-0.2175,-0.2086,-0.1868,-0.2037,-0.1954,-0.1617,-0.1358,-0.115,-0.0997,-0.0416,0.0,0.0177,0.0578,0.0936,0.1247,0.1527,0.1599,0.1555,0.1458,0.123,0.0778,-0.1569,-0.2585,-0.2705,-0.2598,-0.1957,-0.1207,-0.1094,-0.0194,0.0962,0.1194,0.1787,0.2458,0.2825,0.3204,0.0,0.0,0.0,0.0,0.0,0.0,0.0,0.0,0.0,0.6889,0.7086,0.7922,0.8584,0.8739,0.9614,1.0416,1.0641,1.1084,1.1435,1.158,1.1818,1.1987,1.2053,1.173,1.149,1.1423,1.0846,1.0417,1.0207,0.9713,0.937,0.9288,0.9113,0.9044,0.9188,0.9523,0.984,1.0204,1.0633,1.1409,1.2452,1.2526,1.2973,1.3863,1.3863,1.3848,1.3925,1.3731,1.3684,1.3656,1.3322,1.2853,1.2321,1.2526,1.2093,1.1412,1.1331,1.1469,1.1631,0.0,0.0,0.0,0.0,0.0,0.0,0.0,0.0,-0.0862,0.0704,0.1547,0.2086,0.2323,0.2067,0.1442,0.0337,0.0,0.0,-0.0985,-0.107,-0.1104,-0.1075,-0.1075,-0.1066,-0.1046,-0.1115,-0.096,-0.0583,-0.031,0.0119,0.075,0.1331,0.1993,0.2641,0.3281,0.3788,0.4248,0.4794,0.5061,0.5018,0.4751,0.4521,0.4188,0.3314,0.1641,-0.0241,0.0292,0.0831,0.127,0.1734,0.2436,0.3123,0.3657,0.3652,0.3694,0.4635,0.0,0.3847,0.466,0.4884,0.4914,0.4824,0.5225,0.5672,0.0,0.0,0.6894,0.7294,0.8096,0.889,0.9231,1.0359,1.1339,1.1601,1.2025,1.2334,1.2319,1.231,1.2422,1.2573,1.2457,1.2302,1.2095,1.1913,1.168,1.1329,1.0882,1.0626,1.0585,1.0485,1.0437,1.0558,1.0977,1.1211,1.1211,1.1835,1.2378,1.2826,1.32,1.363,1.4057,1.4057,1.4186,1.4347,1.4112,1.4024,1.4021,1.3672,1.3395,1.3148,1.3408,1.3199,1.2694,1.2122,1.2172,1.2512,0.0,0.0,0.0,0.0,0.0,0.0,0.0,0.0,0.0,0.027,0.127,0.204,0.2341,0.1672,0.0972,0.0441,0.0,0.0,0.0055,-0.003,-0.0097,-0.0134,-0.0346,-0.0392,-0.0328,-0.0224,0.0039,0.049,0.1017,0.1579,0.2206,0.3262,0.416,0.4892,0.5952,0.67,0.719,0.8104,0.849,0.8567,0.8611,0.8287,0.7638,0.6781,0.5451,0.394,0.283,0.2698,0.0,0.0,0.4273,0.4955,0.5243,0.541,0.5495,0.5601,0.5273,0.0,0.4816,0.4955,0.0,0.0,0.5706,0.6439,0.6854,0.7378,0.7913,0.8454,0.8898,0.939,1.0104,1.0655,1.1156,0.0,1.1809,1.1989,1.197,1.2268,1.2568,1.2776,1.2945,1.2952,1.2582,1.238,1.2142,1.1827,1.1424,1.1254,1.1458,1.1217,1.1205,1.1465,1.1865,1.2022,1.1929,1.2487,1.3024,1.3426,1.3822,1.4101,1.4418,1.4418,1.4425,1.4425,1.449,1.4497,1.4411,1.4608,1.4544,1.4289,1.462,1.4418,1.3847,1.2896,1.278,1.3063,0.0,0.0,0.0,0.0,0.0,0.0,0.0,0.0,0.0,0.0,0.1005,0.1848,0.2058,0.1312,0.0736,0.0,0.0,0.0,0.0,0.0943,0.0847,0.0733,0.0487,0.0397,0.052,0.0729,0.1045,0.1535,0.2368,0.3113,0.378,0.5212,0.6356,0.7347,0.8767,0.9741,1.0438,1.1567,1.214,1.2245,1.2352,1.1817,1.0838,0.9631,0.8389,0.7077,0.4967,0.4384,0.0,0.0,0.5632,0.6269,0.652,0.6671,0.669,0.6495,0.6113,0.5623,0.5192,0.0,0.0,0.5651,0.6371,0.7084,0.7677,0.8204,0.8804,0.9389,0.9563,0.9862,1.0649,1.0928,1.117,1.1611,1.1906,1.2112,1.2201,1.2599,1.294,1.3162,1.3386,1.3386,1.3093,1.2802,1.2538,1.2281,1.1913,1.1767,1.2069,1.1833,1.1837,1.2204,1.2512,1.2634,1.2574,1.3076,1.3543,1.3925,1.4223,1.4459,1.4569,1.4641,1.4697,1.4784,1.4976,1.4999,1.4856,1.5355,1.5418,1.5215,1.5495,1.5349,1.4863,1.4065,1.3711,1.3691,0.0,0.0,0.0,0.0,0.0,0.0,0.0,0.0,0.0,0.0,0.0,0.0,0.0,0.0,0.0,0.0,0.0,0.0,0.0,0.1916,0.1853,0.1569,0.1544,0.1554,0.1559,0.1755,0.212,0.2669,0.3641,0.4634,0.5647,0.7121,0.8592,1.0026,1.1705,1.3034,1.4144,1.5411,1.6022,1.6083,1.5709,1.4902,1.3657,1.1948,1.0091,0.8232,0.6527,0.0,0.0,0.0,0.6425,0.6929,0.7312,0.7181,0.0,0.7333,0.6722,0.0,0.0,0.0,0.5967,0.6434,0.6947,0.7516,0.8136,0.8675,0.9091,0.9563,0.9897,1.0229,1.0694,1.1244,1.176,1.2347,1.2932,1.3322,1.3522,1.3648,1.3771,1.3846,1.3693,1.3625,0.0,1.3227,1.2941,1.294,1.2428,1.2292,1.2684,1.2383,1.2395,1.2879,1.2907,1.3054,1.3348,1.3596,1.3899,1.4321,1.4478,1.4607,1.4641,1.4792,1.5202,1.5733,1.5585,1.5505,1.5497,1.57,1.5757,1.5757,1.5757,1.583,1.5908,1.578,1.5166,1.4428,0.0,0.0,0.0,0.0,0.0,0.0,0.0,0.0,0.0,0.0,0.0,0.0,0.0,0.0,0.0,0.0,0.0,0.0,0.0,0.2294,0.2221,0.2014,0.187,0.1765,0.1677,0.2177,0.2691,0.324,0.4598,0.5753,0.6789,0.8766,1.0684,1.2497,1.4247,1.5777,1.7094,1.8732,1.9252,1.8947,1.9133,1.8049,1.6096,1.4175,1.1696,0.9113,0.0,0.0,0.0,0.0,0.6188,0.6557,0.7034,0.7177,0.0,0.7255,0.7089,0.6839,0.6839,0.0,0.6941,0.7681,0.8017,0.8324,0.9169,0.9637,1.0008,1.0629,1.0816,1.1086,1.1668,1.1733,1.1784,1.2142,1.2268,1.2465,1.2815,1.3022,1.3291,1.3666,1.383,0.0,0.0,0.0,0.0,1.3042,1.2962,1.2987,1.3109,1.3142,1.3186,1.3258,1.3623,1.3688,1.3505,1.4221,1.4524,1.4517,1.4808,1.4961,1.4991,1.5213,1.543,1.561,1.584,1.5921,1.5921,1.6193,1.6392,1.656,1.6688,1.6652,1.6627,1.6627,1.6204,1.5561,0.0,0.0,0.0,0.0,0.0,0.0,0.0,0.0,0.0,0.0,0.0,0.0,0.0,0.0,0.0,0.0,0.0,0.0,0.0,0.0,0.2204,0.1982,0.1681,0.15,0.1485,0.1809,0.2339,0.3083,0.453,0.5884,0.723,0.9624,1.194,1.4163,1.6148,1.7982,1.9597,2.1172,2.1671,2.1391,2.1477,2.0066,1.7716,1.5338,1.2413,0.0,0.0,0.0,0.0,0.522,0.5544,0.58,0.6257,0.6683,0.7045,0.7058,0.7182,0.733,0.7551,0.7619,0.7822,0.8646,0.9047,0.948,1.0263,1.0789,1.1226,1.1787,1.1928,1.2025,1.2389,1.2178,1.2043,1.2348,1.2312,1.2376,1.2875,1.3088,1.3288,1.3526,1.3723,1.3821,0.0,0.0,0.0,1.3285,1.3202,1.3225,1.3489,1.3531,1.3666,1.3695,1.4058,1.42,1.3954,1.4668,1.5044,1.4969,1.5199,1.5421,1.5682,1.5698,1.5857,1.6048,1.6184,1.6342,1.6412,1.6682,1.6959,1.7176,1.7304,1.7426,1.7407,1.7521,1.7271,1.6792,0.0,0.0,0.0,0.0,0.0,0.0,0.0,0.0,0.0,0.0,0.0,0.0,0.0,0.0,0.0,0.0,0.0,0.0,0.0,0.0,0.0,0.1548,0.1038,0.0838,0.1003,0.0757,0.1136,0.2154,0.3446,0.5038,0.6906,0.9614,1.2253,1.4901,1.7302,1.9485,2.1482,2.2747,2.3289,2.3318,2.262,2.0965,1.8553,1.5478,0.0,0.0,0.0,0.0,0.0,0.0,0.0,0.0,0.0,0.587,0.6846,0.6915,0.7084,0.7446,0.7964,0.8317,0.8658,0.9327,1.0122,1.0889,1.1423,1.2081,1.2626,1.2984,1.3,1.2948,0.0,0.0,1.2443,1.2895,1.2907,1.3124,1.3666,1.3734,1.3623,0.0,0.0,0.0,0.0,0.0,0.0,1.3832,0.0,1.3131,1.3793,1.3723,1.3823,1.4122,1.4353,1.4582,1.4828,1.4993,1.529,1.5716,1.5593,1.5897,1.6602,1.6298,1.6395,1.6865,1.6695,1.6751,1.6908,1.7107,1.7442,1.7706,1.7706,1.792,1.8269,1.8269,1.8269,1.8024,0.0,0.0,0.0,0.0,0.0,0.0,0.0,0.0,0.0,0.0,0.0,0.0,0.0,0.0,0.0,0.0,0.0,0.0,0.0,0.0,0.0,0.0,0.0,0.0,0.0,0.0,0.0,0.0,0.0,0.3205,0.4962,0.7832,1.0684,1.3588,1.6245,1.852,2.0544,2.2879,2.3453,2.281,0.0,2.1226,1.8464,0.0,0.0,0.0,0.0,0.0,0.0,0.0,0.0,0.0,0.0,0.503,0.6083,0.6595,0.7281,0.7992,0.8582,0.9031,0.9544,1.0236,1.0896,1.1495,1.2348,1.2881,1.3236,1.331,1.3365,1.3245,0.0,0.0,0.0,1.2344,1.2053,0.0,1.2664,1.2553,0.0,1.307,0.0,1.2981,1.3277,1.3467,0.0,0.0,1.3974,1.3923,1.4231,1.4574,1.4688,1.4489,1.4776,1.4968,1.4848,1.5209,1.5568,1.5996,1.5964,1.6114,1.6351,1.6596,1.6675,1.6686,1.7084,1.7176,1.7166,1.7323,1.752,1.7706,1.7862,1.8008,1.8076,1.8269,1.8202,1.7871,0.0,0.0,0.0,0.0,0.0,0.0,0.0,0.0,0.0,0.0,0.0,0.0,0.0,0.0,0.0,0.0,0.0,0.0,0.0,0.0,0.0,0.0,0.0,0.0,0.0,0.0,0.0,0.0,0.0,0.0,0.0,0.5217,0.8516,1.18,1.467,1.7317,1.9741,0.0,0.0,0.0,0.0,0.0,0.0,0.0,0.0,0.0,0.0,0.0,0.0,0.0,0.0,0.2462,0.3077,0.4151,0.5264,0.6147,0.0,0.8129,0.8739,0.9459,1.0231,1.0882,1.1674,1.2453,1.2915,1.3597,1.3996,1.3669,1.3667,0.0,0.0,0.0,0.0,0.0,0.0,0.0,1.2131,1.207,1.2146,0.0,1.2744,0.0,1.3155,1.3426,1.3919,0.0,1.448,1.4536,1.4891,1.5097,1.5133,1.4848,1.5284,1.5426,1.5434,1.5576,1.5788,1.6202,1.6202,1.6342,1.6551,1.6899,1.6959,1.689,0.0,1.7461,1.7442,1.752,1.7725,1.7988,1.8066,1.8212,1.8347,1.8405,1.8269,1.7978,0.0,0.0,0.0,0.0,0.0,0.0,0.0,0.0,0.0,0.0,0.0,0.0,0.0,0.0,0.0,0.0,0.0,0.0,0.0,0.0,0.0,0.0,0.0,0.0,0.0,0.0,0.0,0.0,0.0,0.0,0.0,0.0,0.0,0.0,0.0,0.0,0.0,0.0,0.0,0.0,0.0,0.0,0.0,0.0,0.0,0.0,0.0,0.0,0.0,0.0,-0.0392,0.0998,0.217,0.3363,0.4642,0.5776,0.6931,0.7964,0.87,0.9791,1.0802,1.1279,1.2386,1.3347,1.3281,1.4063,1.4636,1.3996,0.0,1.3932,1.376,1.3158,1.2651,1.2553,0.0,1.1846,1.1953,1.2019,1.2139,1.2509,1.2712,1.2867,1.2989,1.3426,1.3911,1.4581,1.4723,1.5049,1.548,1.5355,1.5275,1.5346,1.5647,1.5938,1.6132,1.5938,1.6,1.6272,1.6342,1.6551,1.6978,1.7176,1.7304,1.7304,1.7529,1.7666,1.7706,1.7784,1.7988,1.8269,1.8337,1.8539,1.8741,1.8549,1.8307,1.7986,0.0,0.0,0.0,0.0,0.0,0.0,0.0,0.0,0.0,0.0,0.1021,0.1212,0.0,0.0,0.0,0.0,0.0,0.0,0.0,0.0,0.0,0.0,0.0,0.0,0.0,0.0,0.0,0.0,0.0,0.0,0.0,0.0,0.0,0.0,0.0,0.0,0.0,0.0,0.0,0.0,0.0,0.0,0.0,0.0,0.0,0.0,0.0,0.0,0.0,0.0,-0.0703,0.0289,0.1799,0.3212,0.4502,0.5826,0.7088,0.8232,0.8872,1.009,1.1147,1.1195,1.2281,1.3353,1.3414,1.3914,0.0,0.0,0.0,1.3853,1.336,1.3074,0.0,1.291,0.0,0.0,0.0,0.0,1.2212,0.0,0.0,0.0,0.0,0.0,0.0,0.0,0.0,1.5506,1.548,1.5647,1.5788,1.5921,1.6132,1.6211,1.6132,1.6061,1.6132,1.6272,1.6473,1.6751,1.7166,1.7442,1.7638,1.7638,1.7988,0.0,1.7998,1.8279,1.8337,1.8337,1.8607,1.8607,1.8405,1.8337,1.7908,1.7205,0.0,0.0,0.0,0.0,0.0,0.0,0.0,-0.3693,-0.337,-0.279,-0.1711,-0.0977,-0.0915,-0.1507,-0.1792,0.0,0.0,0.0,0.0,0.0,0.0,0.0,0.0,0.0,0.0,0.0,0.0,0.0,0.0,0.0,0.0,0.0,0.0,0.0,0.0,0.0,0.0,0.0,0.0,0.0,0.0,0.0,0.0,0.0,0.0,0.0,0.0,0.0,0.0,0.0,-0.0202,0.0586,0.1915,0.3148,0.436,0.5942,0.7134,0.8092,0.9069,1.0268,1.12,1.1488,1.2604,1.3562,1.3032,0.0,0.0,0.0,1.3747,1.3945,1.3735,0.0,0.0,0.0,0.0,0.0,0.0,0.0,0.0,0.0,0.0,0.0,0.0,0.0,0.0,0.0,0.0,1.5683,1.5687,1.5887,1.6132,1.6333,1.6342,1.6272,1.6202,1.6132,1.6132,1.6272,1.6473,1.6811,1.7235,1.7569,1.7706,1.7706,1.8134,0.0,1.8144,1.8414,1.8549,1.8607,1.8741,1.8674,1.8539,1.8405,1.8073,1.7398,0.0,0.0,0.0,0.0,0.0,0.0,0.0,-0.4114,-0.414,-0.418,-0.3759,-0.2995,-0.1792,-0.204,-0.2217,0.0,0.0,0.0,0.0,0.0,0.0,0.0,0.0,0.0,0.0,0.0,0.0,0.0,0.0,0.0,0.0,0.0,0.0,0.0,0.0,0.0,0.0,0.0,0.0,0.0,0.0,0.0,0.0,0.0,0.0,0.0,0.0,0.0,0.0,0.0,0.0695,0.1438,0.2643,0.3482,0.4437,0.6077,0.7133,0.8116,0.9249,1.0374,1.1346,1.1879,1.2991,1.3736,1.2941,1.3719,0.0,0.0,1.3926,1.4328,1.4354,0.0,0.0,0.0,0.0,0.0,0.0,0.0,0.0,0.0,0.0,0.0,0.0,0.0,0.0,0.0,0.0,0.0,1.5881,1.6094,1.6323,1.6603,1.6482,1.6412,1.6342,1.6272,1.6272,1.6412,1.6612,1.695,1.7373,1.7716,1.7842,1.7978,1.8259,0.0,0.0,1.8549,1.8684,1.8808,1.8875,1.8808,1.8674,1.8549,1.8093,1.7427,0.0,0.0,0.0,0.0,0.0,0.0,0.0,-0.4193,-0.4102,-0.3877,-0.3743,-0.3713,-0.3804,-0.3271,-0.2858,0.0,0.0,0.0,0.0,0.0,0.0,0.0,0.0,0.0,0.0,0.0,0.0,0.0,0.0,0.0,0.0,0.0,0.0,0.0,0.0,0.0,0.0,0.0,0.0,0.0,0.0,0.0,0.0,0.0,0.0,0.0,0.0,0.0,0.0,0.0,0.0,0.2798,0.4141,0.4704,0.5007,0.6124,0.0,0.0,0.9319,1.0571,1.1668,1.2238,1.3079,1.3791,1.3822,0.0,0.0,1.4438,1.485,1.5225,1.5119,1.5078,0.0,0.0,0.0,0.0,0.0,0.0,0.0,0.0,0.0,0.0,0.0,0.0,0.0,0.0,0.0,0.0,1.6271,1.6124,1.6174,1.6594,1.676,1.676,1.6533,1.6533,1.6682,1.6839,1.7028,1.7451,1.794,1.8134,1.8405,1.8674,1.8741,0.0,0.0,1.8942,1.8942,1.8808,1.9008,1.8875,1.8482,1.8337,1.75,1.636,0.0,0.0,0.0,0.0,0.0,0.0,-0.4461,-0.4466,-0.4456,-0.4142,-0.3827,-0.3796,-0.423,-0.3545,-0.3062,-0.3093,0.0,0.0,0.0,0.0,0.0,0.0,0.0,0.0,0.0,0.0,0.0,0.0,0.0,0.0,0.0,0.0,0.0,0.0,0.0,0.0,0.0,0.0,0.0,0.0,0.0,0.0,0.0,0.0,0.0,0.0,0.0,0.0,0.0,0.0,0.0,0.0,0.4837,0.5581,0.0,0.0,0.8174,0.9067,1.0166,1.1189,1.2059,1.2603,1.3526,1.4231,1.3816,0.0,1.5226,1.4765,1.5049,1.5415,1.5471,1.5284,1.5239,0.0,0.0,0.0,0.0,0.0,0.0,0.0,0.0,0.0,0.0,0.0,0.0,0.0,0.0,0.0,1.7028,1.6958,1.6949,1.7176,1.7254,1.7176,1.6959,1.6959,1.7028,1.7107,1.7373,1.7647,1.8008,1.8279,1.8482,1.8617,1.8751,0.0,0.0,1.9008,1.9065,1.9008,1.8942,1.8741,1.8482,1.8347,1.7693,1.6876,0.0,0.0,0.0,0.0,0.0,-0.5839,-0.4567,-0.4573,-0.4641,-0.4364,-0.3993,-0.3957,-0.4481,-0.3805,-0.3354,-0.3439,-0.3103,0.0,0.0,0.0,0.0,0.0,0.0,0.0,0.0,0.0,0.0,0.0,0.0,0.0,0.0,0.0,0.0,0.0,0.0,0.0,0.0,0.0,0.0,0.0,0.0,0.0,0.0,0.0,0.0,0.0,0.0,0.0,0.0,0.0,0.0,0.0,0.0,0.0,0.0,0.0,0.884,0.9619,1.0842,1.1791,1.2592,1.3212,1.4141,1.483,0.0,0.0,1.6043,1.5525,1.5589,1.5813,1.5976,1.5701,1.5593,0.0,0.0,0.0,0.0,0.0,0.0,0.0,0.0,0.0,0.0,0.0,0.0,0.0,0.0,0.0,1.7501,1.7483,1.7483,1.747,1.7347,1.7213,1.7058,1.7239,1.7316,1.7271,1.7658,1.8056,1.8337,1.8549,1.8741,1.8818,1.9008,0.0,0.0,1.9075,1.9075,1.9008,1.8875,1.8593,1.8215,1.8148,1.7593,1.6889,0.0,0.0,0.0,0.0,0.0,0.0,-0.4488,-0.4469,-0.4552,-0.442,-0.4214,-0.4298,-0.4844,-0.4238,-0.38,-0.3794,-0.3673,0.0,0.0,0.0,0.0,0.0,0.0,0.0,0.0,0.0,0.0,0.0,0.0,0.0,0.0,0.0,0.0,0.0,0.0,0.0,0.0,0.0,0.0,0.0,0.0,0.0,0.0,0.0,0.0,0.0,0.0,0.0,0.0,0.0,0.0,0.0,0.0,0.0,0.0,0.0,0.9197,1.0037,1.1198,1.2248,1.3202,1.4123,1.4864,1.5526,0.0,0.0,1.6807,1.6797,1.6699,1.6696,1.6696,1.6546,1.6429,1.6481,0.0,0.0,0.0,0.0,0.0,0.0,0.0,0.0,0.0,0.0,0.0,0.0,0.0,0.0,1.7687,1.7541,1.7445,1.7529,1.7063,1.6779,1.6779,1.7369,1.7572,1.7393,1.8004,1.8539,1.9075,1.9075,1.9274,1.9605,0.0,0.0,0.0,1.9285,1.9075,1.8808,1.8808,1.8334,1.7615,1.7615,1.688,1.584,0.0,0.0,0.0,0.0,0.0,0.0,0.0,-0.5253,-0.4839,-0.4572,-0.4526,-0.4495,-0.4489,-0.4203,-0.3941,-0.3807,-0.3719,0.0,0.0,0.0,0.0,0.0,0.0,0.0,0.0,0.0,0.0,-0.5118,-0.4575,0.0,0.0,0.0,0.0,0.0,0.0,0.0,0.0,0.0,0.0,0.0,0.0,0.0,0.0,0.0,0.0,0.0,0.0,0.0,0.0,0.0,0.0,0.0,0.0,0.0,0.0,0.9755,1.0429,1.109,1.2138,1.3164,1.4134,1.4909,1.5758,1.63,1.5999,0.0,1.7335,1.6563,1.6838,1.7262,1.7591,1.6859,1.6459,1.7189,1.6682,0.0,0.0,0.0,0.0,0.0,0.0,0.0,0.0,0.0,0.0,0.0,0.0,0.0,1.8182,1.7787,1.7625,1.7862,1.7239,1.7207,1.7793,1.7846,1.7912,1.8148,1.8603,1.8942,1.9142,1.9341,1.9473,0.0,0.0,0.0,0.0,1.9351,1.9208,1.8977,1.8395,1.7931,1.7575,1.7278,1.6678,1.6004,0.0,0.0,0.0,0.0,0.0,0.0,0.0,-0.5616,-0.5029,-0.482,-0.4833,-0.4878,-0.4964,-0.4545,-0.4281,-0.432,-0.4129,0.0,0.0,0.0,0.0,0.0,0.0,0.0,0.0,-0.4302,-0.453,-0.4497,-0.4186,-0.3478,-0.2392,-0.1342,0.0,0.0,0.0,0.0,0.0,0.0,0.0,0.0,0.0,0.0,0.2433,0.0,0.0,0.0,0.0,0.0,0.0,0.0,0.0,0.0,0.0,0.0,0.0,0.0,1.1032,1.1761,0.0,1.4033,1.4937,1.5557,1.6332,0.0,0.0,0.0,1.7455,1.6739,1.6763,1.7178,1.7914,1.7163,1.668,1.7444,1.6997,0.0,0.0,0.0,0.0,0.0,0.0,0.0,0.0,0.0,0.0,0.0,0.0,0.0,1.8375,1.7985,1.78,1.7965,1.7412,1.7223,1.7601,1.7694,1.7904,1.8243,1.8799,1.9162,1.9407,1.966,1.9802,0.0,0.0,0.0,0.0,1.9209,1.8908,1.8397,1.7853,1.7396,1.709,1.676,1.6276,1.5762,0.0,0.0,0.0,0.0,0.0,0.0,0.0,-0.5691,-0.515,-0.5104,-0.5101,-0.5361,-0.6035,-0.5206,-0.4759,-0.5175,0.0,0.0,0.0,0.0,0.0,0.0,0.0,0.0,0.0,-0.3859,-0.3966,-0.3972,-0.3833,-0.323,-0.2132,-0.1242,-0.0172,0.0,0.0,0.0,0.0,0.0,0.0,0.0,0.3189,0.2616,0.0,0.0,0.0,0.0,0.0,0.0,0.0,0.0,0.0,0.0,0.0,0.0,0.0,0.0,0.0,0.0,0.0,1.463,1.554,1.6175,1.6631,1.6949,0.0,0.0,0.0,1.719,1.6688,1.6632,1.7769,1.7458,1.7035,1.7208,0.0,0.0,0.0,0.0,0.0,0.0,0.0,0.0,0.0,0.0,0.0,0.0,0.0,0.0,1.8198,1.8001,1.791,1.7805,1.7433,1.703,1.6608,1.7165,1.7647,1.7895,1.8564,1.9276,1.9933,2.0009,2.0074,0.0,0.0,0.0,0.0,1.8924,1.827,1.7388,1.7254,1.6777,1.6257,1.6107,1.5682,1.5144,0.0,0.0,0.0,0.0,0.0,0.0,0.0,0.0,0.0,0.0,-0.5033,-0.5313,-0.6086,-0.576,-0.546,0.0,0.0,0.0,0.0,0.0,0.0,0.0,0.0,0.0,0.0,-0.3535,-0.3653,-0.3694,-0.3608,-0.3316,-0.2773,-0.169,-0.0752,0.006,0.102,0.2057,0.3045,0.0,0.0,0.0,0.2666,0.2327,0.0,0.0,0.0,0.0,0.2173,0.2465,0.0,0.0,0.0,0.0,0.0,0.0,0.0,0.0,1.159,1.2813,1.3426,0.0,1.5335,1.6451,1.6763,1.6804,0.0,0.0,0.0,0.0,0.0,1.7408,1.7843,1.7517,1.7062,0.0,0.0,0.0,0.0,0.0,0.0,0.0,0.0,0.0,0.0,0.0,0.0,0.0,0.0,1.695,1.763,1.7938,1.7818,1.7205,1.7523,1.7657,1.7451,1.7386,1.7788,1.8607,1.885,1.9329,2.0031,1.9736,1.9646,0.0,0.0,0.0,1.8639,1.8433,1.7988,1.744,1.7033,1.6437,1.5761,1.5595,1.519,1.4673,0.0,0.0,0.0,0.0,0.0,0.0,0.0,0.0,0.0,0.0,0.0,-0.5962,-0.7177,-0.6709,0.0,0.0,0.0,0.0,0.0,0.0,0.0,0.0,0.0,0.0,0.0,-0.4138,-0.393,-0.3843,-0.3567,-0.318,-0.2627,-0.1695,-0.0925,-0.0308,0.0936,0.1958,0.2787,0.2836,0.2902,0.2923,0.2618,0.0,0.0,0.0,0.0,0.0,0.2898,0.3244,0.0,0.3993,0.4759,0.5717,0.0,0.0,0.0,0.0,1.131,1.2376,1.3159,1.4205,1.5265,1.5875,1.631,1.6466,1.5981,0.0,0.0,0.0,0.0,0.0,1.7335,0.0,0.0,0.0,0.0,0.0,0.0,0.0,0.0,0.0,0.0,0.0,0.0,0.0,0.0,0.0,0.0,1.687,1.7451,1.7769,1.7698,1.7127,1.7515,1.7546,1.7217,1.7084,1.7493,1.8387,1.8387,1.8819,1.9514,1.9324,1.9276,0.0,0.0,0.0,1.783,1.7846,1.7389,1.665,1.6393,1.5965,1.5578,1.5287,1.4901,1.4584,0.0,0.0,0.0,0.0,0.0,0.0,0.0,0.0,0.0,0.0,0.0,0.0,0.0,0.0,0.0,0.0,0.0,0.0,0.0,0.0,0.0,0.0,0.0,-0.5346,-0.5659,-0.5026,-0.4508,-0.413,-0.3612,-0.2968,-0.2163,-0.1426,-0.0744,-0.0093,0.1208,0.2034,0.2483,0.2737,0.281,0.283,0.2763,0.0,0.0,0.0,0.0,0.0,0.0,0.0,0.0,0.4537,0.5086,0.5872,0.6648,0.0,0.0,0.0,0.0,0.0,1.2779,1.3968,1.4928,1.5059,1.5595,1.589,1.5416,0.0,0.0,0.0,0.0,0.0,0.0,0.0,0.0,0.0,0.0,0.0,0.0,0.0,0.0,0.0,0.0,0.0,0.0,0.0,0.0,0.0,0.0,1.6799,1.7195,1.7462,1.7409,1.7189,1.7419,1.7297,1.6694,1.6807,1.7166,1.7813,1.7824,1.818,1.8879,1.8862,1.8784,1.8599,0.0,0.0,1.6849,1.7066,1.6543,1.5577,1.5566,1.5525,1.5411,1.5018,1.4746,1.4567,0.0,0.0,0.0,0.0,0.0,0.0,0.0,0.0,0.0,0.0,0.0,0.0,0.0,0.0,0.0,0.0,0.0,0.0,0.0,0.0,0.0,0.0,-0.6626,-0.5905,-0.5455,-0.5212,-0.4814,-0.418,-0.3596,-0.2884,-0.1996,-0.101,0.003,0.1082,0.179,0.2226,0.2439,0.2738,0.2973,0.3121,0.2986,0.0,0.0,0.0,0.0,0.0,0.0,0.0,0.0,0.5695,0.6237,0.6897,0.7736,0.0,0.0,0.0,0.0,0.0,1.2028,1.2851,1.3864,1.4946,1.4984,1.4861,0.0,0.0,0.0,0.0,0.0,0.0,0.0,0.0,0.0,0.0,0.0,0.0,0.0,0.0,0.0,0.0,0.0,0.0,0.0,0.0,0.0,0.0,0.0,1.6045,1.5988,1.6576,1.6824,1.6555,1.7238,1.7507,1.7222,1.7022,1.7326,1.7952,1.7872,1.8121,1.8736,1.8353,1.7879,1.7351,0.0,1.6267,1.55,1.5511,1.5363,1.5101,1.5216,1.5028,1.4662,1.47,1.4482,1.4079,0.0,0.0,0.0,0.0,0.0,0.0,0.0,0.0,0.0,0.0,0.0,0.0,0.0,0.0,0.0,0.0,0.0,0.0,0.0,0.0,0.0,-0.7192,-0.6783,-0.6511,-0.6365,-0.5831,-0.5171,-0.4477,-0.3529,-0.2554,-0.1526,-0.0324,0.0726,0.1638,0.1829,0.2073,0.2329,0.2747,0.3016,0.3268,0.0,0.0,0.0,0.0,0.0,0.0,0.0,0.0,0.0,0.0,0.6274,0.6956,0.752,0.0,0.0,0.0,0.0,0.0,1.1774,1.2217,1.2742,1.3691,1.4113,0.0,0.0,0.0,0.0,0.0,0.0,0.0,0.0,0.0,0.0,0.0,0.0,0.0,0.0,0.0,0.0,0.0,0.0,0.0,0.0,0.0,0.0,0.0,0.0,0.0,1.5798,1.6201,1.6454,1.6488,1.6963,1.7259,1.7278,1.7211,1.7366,1.7709,1.747,1.7589,1.7912,1.742,1.7015,1.6721,0.0,1.5756,1.5081,1.5286,1.5203,1.4839,1.498,1.4953,1.4827,1.4784,1.4628,1.4512,0.0,0.0,0.0,0.0,0.0,0.0,0.0,0.0,0.0,0.0,0.0,0.0,0.0,0.0,0.0,0.0,0.0,0.0,0.0,0.0,-0.7194,-0.6757,-0.6629,-0.6605,-0.6717,-0.5975,-0.5242,-0.4428,-0.3338,-0.2162,-0.0958,0.0325,0.112,0.1482,0.1591,0.1783,0.2056,0.2612,0.3061,0.3418,0.0,0.0,0.0,0.0,0.0,0.0,0.0,0.0,0.0,0.0,0.0,0.0,0.0,0.0,0.0,0.9707,1.0302,1.0834,1.1575,1.1806,1.1977,1.2569,0.0,0.0,0.0,0.0,0.0,0.0,0.0,0.0,0.0,0.0,0.0,0.0,0.0,0.0,0.0,0.0,0.0,0.0,0.0,0.0,0.0,0.0,0.0,0.0,0.0,0.0,1.5856,1.6009,1.6228,1.6457,1.6588,1.6759,1.7092,1.7049,1.7159,1.7423,1.707,1.6915,1.7037,1.6536,1.619,1.607,1.5844,1.5317,1.4709,1.5124,1.5021,1.465,1.4785,1.4978,1.5089,1.49,1.4937,1.504,0.0,0.0,0.0,0.0,0.0,0.0,0.0,0.0,0.0,0.0,0.0,0.0,0.0,0.0,0.0,0.0,0.0,0.0,0.0,0.0,-0.7071,-0.7164,-0.6265,-0.5605,-0.5255,-0.5111,-0.4617,-0.3695,-0.2842,-0.1723,-0.0338,0.0749,0.089,0.0276,0.1146,0.15,0.1493,0.2277,0.3041,0.3714,0.4022,0.0,0.0,0.0,0.0,0.0,0.0,0.0,0.0,0.0,0.0,0.0,0.0,0.0,0.8685,0.9285,0.9962,1.0624,1.1057,1.1444,1.1828,1.2372,0.0,0.0,0.0,0.0,0.0,0.0,0.0,0.0,0.0,0.0,0.0,0.0,0.0,0.0,0.0,0.0,0.0,0.0,0.0,0.0,0.0,0.0,0.0,0.0,0.0,0.0,1.573,1.5951,1.6114,1.6114,1.6161,1.6256,1.6568,1.6194,1.6436,1.7323,1.67,1.6429,1.6375,1.5879,1.5375,1.4829,1.4924,1.4634,1.4073,1.4226,1.4356,1.4428,1.466,1.4891,1.5063,1.4926,1.5142,1.5424,0.0,0.0,0.0,0.0,0.0,0.0,0.0,0.0,0.0,0.0,0.0,0.0,0.0,0.0,0.0,0.0,0.0,0.0,0.0,0.0,-0.713,-0.6487,-0.5576,-0.465,-0.3695,-0.4028,-0.3758,-0.2856,-0.1881,-0.1092,-0.0493,-0.0032,-0.0067,-0.0499,-0.0037,0.0234,0.041,0.1365,0.2231,0.296,0.363,0.426,0.0,0.0,0.0,0.0,0.0,0.0,0.0,0.0,0.6603,0.709,0.7616,0.8143,0.8679,0.9152,0.9732,1.0308,1.0718,1.1226,1.1678,1.2126,0.0,0.0,0.0,0.0,0.0,0.0,0.0,0.0,0.0,0.0,0.0,0.0,0.0,0.0,0.0,0.0,0.0,0.0,0.0,0.0,0.0,0.0,0.0,0.0,0.0,0.0,1.5672,1.5904,1.5944,1.5827,1.5917,1.5956,1.5931,1.5799,1.5949,1.6372,1.6144,1.5994,1.5868,1.5445,1.518,1.4947,1.4681,1.4584,1.4558,1.4512,1.4651,1.4834,1.5028,1.521,1.5334,1.5277,1.5501,1.5812,0.0,0.0,0.0,0.0,0.0,0.0,0.0,0.0,0.0,0.0,0.0,0.0,0.0,0.0,0.0,0.0,0.0,0.0,0.0,-0.7692,-0.695,-0.5953,-0.5089,-0.4044,-0.2798,-0.2925,-0.2712,-0.2073,-0.1164,-0.078,-0.0891,-0.0874,-0.0978,-0.1138,-0.0926,-0.064,-0.0252,0.0713,0.1573,0.2371,0.3217,0.4129,0.0,0.0,0.0,0.0,0.0,0.0,0.0,0.0,0.6657,0.7139,0.7563,0.8096,0.8633,0.8956,0.942,0.9888,1.0249,1.071,1.1217,0.0,0.0,0.0,0.0,0.0,0.0,0.0,0.0,0.0,0.0,0.0,0.0,0.0,0.0,0.0,0.0,0.0,0.0,0.0,0.0,0.0,0.0,0.0,0.0,0.0,0.0,0.0,0.0,1.5914,1.593,1.5636,1.5633,1.5553,1.5394,1.5193,1.5167,1.5378,1.5378,1.5404,1.5423,1.5045,1.4875,1.4912,1.4655,1.4686,1.496,1.4926,1.5062,1.5334,1.5525,1.5659,1.578,1.5768,1.5944,1.6219,0.0,0.0,0.0,0.0,0.0,0.0,0.0,0.0,0.0,0.0,0.0,0.0,0.0,0.0,0.0,0.0,0.0,0.0,0.0,-0.7035,-0.6474,-0.5731,-0.4929,-0.3921,-0.2728,-0.1904,-0.1466,-0.1413,-0.0867,-0.0926,-0.1511,-0.1635,-0.1694,-0.1715,-0.1489,-0.1041,-0.0335,0.0461,0.1276,0.2172,0.2976,0.3918,0.4927,0.0,0.0,0.0,0.0,0.0,0.0,0.0,0.682,0.6982,0.7509,0.0,0.8427,0.8699,0.9061,0.942,0.9562,0.988,0.0,0.0,0.0,0.0,0.0,0.0,0.0,0.0,0.0,0.0,0.0,0.0,0.0,0.0,0.0,0.0,0.0,0.0,0.0,0.0,0.0,0.0,0.0,0.0,0.0,0.0,0.0,0.0,0.0,1.6134,1.609,1.543,1.5108,1.4975,1.4887,1.4291,1.415,1.4373,1.4523,1.4777,1.5083,1.4602,1.4477,1.4627,1.4823,1.496,1.5108,1.5255,1.5525,1.5836,1.6113,1.6275,1.6392,1.6312,1.6466,1.6675,0.0,0.0,0.0,0.0,0.0,0.0,0.0,0.0,0.0,0.0,0.0,0.0,0.0,0.0,0.0,0.0,0.0,0.0,0.0,-0.7592,-0.7129,-0.6089,-0.5071,-0.4017,-0.2987,-0.2152,-0.1587,-0.1321,-0.1159,-0.1559,-0.2432,-0.2419,-0.2348,-0.227,0.0,-0.1556,-0.101,-0.0307,0.04,0.123,0.2434,0.3431,0.4223,0.0,0.0,0.0,0.0,0.0,0.0,0.0,0.0,0.0,0.7568,0.0,0.8519,0.8538,0.8991,0.9538,0.947,0.9991,0.0,0.0,0.0,0.0,0.0,0.0,0.0,0.0,0.0,0.0,0.0,0.0,0.0,0.0,0.0,0.0,0.0,0.0,0.0,0.0,0.0,0.0,0.0,0.0,0.0,0.0,0.0,0.0,0.0,1.5184,1.4971,1.4615,1.4532,1.4393,1.4127,1.4037,1.402,1.4104,1.4011,1.4235,1.4744,1.4753,1.4777,1.4823,1.496,1.5244,1.5525,1.5913,1.6132,1.6219,1.6349,1.6491,1.6539,1.6082,1.6309,1.6802,0.0,0.0,0.0,0.0,0.0,0.0,0.0,0.0,0.0,0.0,-1.3541,-1.3232,0.0,0.0,0.0,-1.0114,-0.9481,0.0,-0.7463,-0.7416,-0.6932,-0.5821,-0.5064,-0.4123,-0.2951,-0.218,-0.1777,-0.1777,-0.1589,-0.1854,-0.2493,-0.2505,-0.2275,-0.1825,0.0,-0.1352,-0.0805,-0.0224,0.0313,0.0897,0.2018,0.3083,0.3997,0.0,0.0,0.0,0.0,0.0,0.0,0.0,0.0,0.0,0.7568,0.0,0.0,0.8342,0.8687,0.9099,0.92,0.0,0.0,0.0,0.0,0.0,0.0,0.0,0.0,0.0,0.0,0.0,0.0,0.0,0.0,0.0,0.0,0.0,0.0,0.0,0.0,0.0,0.0,0.0,0.0,0.0,0.0,0.0,0.0,0.0,0.0,1.4653,1.4459,1.4214,1.4204,1.4086,1.3879,1.3973,1.401,1.4093,1.3858,1.406,1.4673,1.4586,1.4677,1.5006,1.5322,1.5614,1.5937,1.6362,1.6522,1.6497,1.641,1.6488,1.6561,1.5902,1.6021,1.6454,0.0,0.0,-1.2273,-1.3227,0.0,0.0,0.0,0.0,0.0,-1.3871,-1.3746,-1.3524,0.0,0.0,0.0,-1.0339,-0.9103,-0.795,-0.7023,-0.682,-0.6272,-0.5226,-0.5001,-0.4256,-0.2903,-0.2254,-0.2165,-0.2555,-0.202,-0.1865,-0.1986,0.0,-0.1601,-0.076,0.0,-0.0535,-0.0089,0.0492,0.0805,0.1029,0.1786,0.2869,0.4094,0.4497,0.0,0.0,0.0,0.0,0.0,0.0,0.0,0.0,0.7521,0.7699,0.7979,0.8195,0.8227,0.84,0.0,0.0,0.0,0.0,0.0,0.0,0.0,0.0,0.0,0.0,0.0,0.0,0.0,0.0,0.0,0.0,0.0,0.0,0.0,0.0,0.0,0.0,0.0,0.0,0.0,0.0,0.0,0.0,0.0,0.0,0.0,1.4307,1.4306,1.4002,1.3982,1.3996,1.3926,1.3962,1.401,1.4129,1.3915,1.4116,1.4698,1.4227,1.4427,1.5129,1.5756,1.6064,1.617,1.6565,1.6705,1.6701,1.637,1.6349,1.6415,1.5795,1.5694,1.5905,0.0,0.0,-1.2174,-1.316,0.0,0.0,0.0,0.0,-1.3743,-1.3684,-1.3492,-1.3227,-1.2785,-1.2316,0.0,-1.0101,-0.9671,-0.8861,-0.7445,-0.7111,-0.6589,-0.5846,-0.5078,-0.4478,-0.4042,-0.3446,-0.3017,-0.2799,-0.2015,-0.1781,0.0,0.0,0.0,-0.0309,0.0,0.0179,0.0537,0.076,0.1163,0.1652,0.2275,0.3001,0.3816,0.478,0.5434,0.0,0.0,0.0,0.0,0.0,0.0,0.0,0.7515,0.7767,0.8017,0.7755,0.8231,0.882,0.0,0.0,0.0,0.0,0.0,0.0,0.0,0.0,0.0,0.0,0.0,0.0,0.0,0.0,0.0,0.0,0.0,0.0,0.0,0.0,0.0,0.0,0.0,0.0,0.0,0.0,0.0,0.0,0.0,0.0,1.3455,1.333,1.3254,1.3243,1.332,1.3415,1.3372,1.3563,1.3716,0.0,1.3712,1.3784,1.3938,1.419,1.458,1.5064,1.5731,1.5844,1.5711,1.6528,1.6876,1.6896,1.6571,1.6494,1.6453,1.5478,1.5564,1.6036,0.0,0.0,0.0,0.0,0.0,0.0,0.0,0.0,-1.3527,-1.3428,-1.321,-1.2928,-1.254,-1.2102,0.0,0.0,-0.9791,-0.8995,-0.7773,-0.7166,-0.6509,-0.5732,-0.5014,-0.4583,-0.4484,-0.3951,-0.3416,-0.2933,0.0,0.0,0.0,0.0,0.0,0.0134,0.0,0.086,0.1245,0.1522,0.1796,0.2163,0.2619,0.3128,0.367,0.4387,0.4982,0.5572,0.619,0.0,0.0,0.0,0.0,0.0,0.0,0.0,0.8105,0.7923,0.8244,0.8639,0.0,0.0,0.0,0.0,0.0,0.0,0.0,0.0,0.0,0.0,0.0,0.0,0.0,0.0,0.0,0.0,0.0,0.0,0.0,0.0,0.0,0.0,0.0,0.0,0.0,0.0,0.0,0.0,0.0,1.2757,1.272,1.2594,1.2578,1.2666,1.2803,1.289,1.3035,1.3276,1.3467,1.361,1.3541,1.363,1.385,1.4221,1.465,1.5079,1.577,1.6102,1.6216,1.6789,1.7115,1.7175,1.6798,1.6554,1.6305,1.5451,1.5353,1.5571,0.0,0.0,0.0,0.0,0.0,0.0,0.0,0.0,0.0,-1.3418,-1.2981,-1.2581,-1.2355,-1.1696,-1.1038,0.0,0.0,0.0,-0.8026,-0.7172,-0.6319,-0.557,-0.4978,-0.463,-0.4624,-0.4053,-0.3495,0.0,0.0,0.0,0.0,0.0,0.0,0.0494,0.0,0.1324,0.1747,0.2135,0.2416,0.2588,0.2887,0.3239,0.3656,0.391,0.455,0.0,0.0,0.6298,0.6939,0.7098,0.0,0.0,0.0,0.0,0.811,0.8213,0.822,0.8366,0.0,0.0,0.0,0.0,0.0,0.0,0.0,0.0,0.0,0.0,0.0,0.0,0.0,0.0,0.0,0.0,0.0,0.0,0.0,0.0,0.0,0.0,0.0,0.0,0.0,0.0,0.0,0.0,0.0,1.2077,1.1945,1.1977,1.2026,1.2175,1.2323,1.2471,1.2657,1.2939,1.3218,1.3457,1.3338,1.3564,1.4003,1.4264,1.4607,1.5121,1.5911,1.6398,1.6735,1.7076,1.7258,1.7262,1.6834,1.6393,1.5976,1.5408,1.5151,1.5043,0.0,0.0,0.0,0.0,0.0,0.0,0.0,0.0,0.0,0.0,-1.2978,-1.2076,-1.2072,-1.131,-1.0465,-0.9624,-0.9503,-0.9126,-0.8283,0.0,0.0,-0.6038,-0.5251,-0.4851,-0.4756,-0.3923,-0.3245,0.0,0.0,0.0,0.0,0.0,0.0,0.045,0.0,0.0,0.1495,0.1831,0.233,0.2979,0.3231,0.3566,0.3895,0.0,0.0,0.0,0.0,0.0,0.0,0.6883,0.7251,0.0,0.0,0.0,0.7776,0.7929,0.82,0.0,0.0,0.0,0.0,0.0,0.0,0.0,0.0,0.0,0.0,0.0,0.0,0.0,0.0,0.0,0.0,0.0,0.0,0.0,0.0,0.0,0.0,0.0,0.0,0.0,0.0,0.0,0.0,0.0,1.1668,1.1469,1.1394,1.1528,1.1578,1.1628,1.1828,1.1977,1.2017,1.2421,1.2706,1.2909,1.3144,1.3564,1.4003,1.4145,1.4491,1.5079,1.5997,1.6216,1.6074,1.6879,1.6993,1.6586,1.623,1.582,1.5394,1.5063,1.5034,1.5238,0.0,0.0,0.0,0.0,0.0,0.0,0.0,0.0,0.0,0.0,0.0,-1.1942,-1.1595,-1.0834,-1.0096,-0.9402,-0.9301,-0.8783,-0.7646,-0.6743,-0.6046,-0.5499,-0.5017,-0.4582,-0.4286,-0.3678,-0.3035,0.0,0.0,0.0,0.0,-0.0405,-0.005,0.0,0.0,0.0,0.0,0.0,0.2415,0.2872,0.3324,0.3467,0.0,0.0,0.0,0.0,0.0,0.0,0.0,0.0,0.7161,0.7471,0.7715,0.0,0.0,0.0,0.0,0.0,0.0,0.0,0.0,0.0,0.0,0.0,0.0,0.0,0.0,0.0,0.0,0.0,0.0,0.0,0.0,0.0,0.0,0.0,0.0,0.0,0.0,0.0,0.0,0.0,0.0,0.0,0.0,0.0,1.0555,1.0501,1.0549,1.0812,1.0972,1.1074,1.1226,1.1418,1.1578,1.1877,1.2304,1.2812,1.3309,1.3793,1.4238,1.4552,1.4844,1.5109,1.5911,1.6178,1.6096,1.6611,1.6612,1.6281,1.6282,1.5979,1.5594,1.5574,1.5572,1.5624,0.0,0.0,0.0,0.0,0.0,0.0,0.0,0.0,0.0,0.0,0.0,-1.1521,-1.1191,0.0,0.0,0.0,-0.8938,-0.8335,-0.7018,-0.627,-0.5589,-0.4931,-0.4539,-0.4127,-0.3648,-0.3205,0.0,0.0,0.0,0.0,-0.0519,-0.0267,-0.0106,0.0,0.0342,0.0,0.0,0.0,0.0,0.0,0.0,0.3077,0.0,0.0,0.0,0.0,0.0,0.0,0.0,0.0,0.0,0.0,0.0,0.0,0.0,0.0,0.0,0.0,0.0,0.0,0.0,0.0,0.0,0.0,0.0,0.0,0.0,0.0,0.0,0.0,0.0,0.0,0.0,0.0,0.0,0.0,0.0,0.0,0.0,0.0,0.0,0.0,0.0,0.0,0.0,0.0,0.9646,0.9671,0.9881,1.0165,1.0381,1.0538,1.0693,1.0859,1.0972,1.1418,1.2008,1.2677,1.3324,1.3858,1.4337,1.4834,1.5054,1.5055,1.5721,1.5965,1.5852,1.6205,1.6115,1.5833,1.6166,1.5997,1.558,1.5837,1.5919,1.59,0.0,0.0,0.0,0.0,0.0,0.0,0.0,0.0,0.0,0.0,0.0,-1.0582,-1.1067,-0.9755,-0.8721,-0.8292,-0.8305,-0.7904,-0.6892,-0.6023,-0.5262,-0.4665,-0.3956,0.0,-0.2939,0.0,0.0,0.0,0.0,0.0,-0.039,-0.0112,-0.0056,-0.0167,0.0251,0.0781,0.1413,0.0,0.0,0.0,0.2089,0.227,0.0,0.0,0.0,0.0,0.0,0.0,0.0,0.0,0.0,0.0,0.0,0.0,0.0,0.0,0.0,0.0,0.0,0.0,0.0,0.0,0.0,0.0,0.0,0.0,0.0,0.0,0.0,0.0,0.0,0.0,0.0,0.0,0.0,0.0,0.0,0.0,0.0,0.0,0.0,0.0,0.0,0.0,0.0,0.0,0.9071,0.913,0.9583,0.9638,0.9802,1.0129,1.0361,1.0379,1.0051,1.1015,1.1769,1.2323,1.2929,1.3515,1.402,1.464,1.4821,1.4735,1.5276,1.5281,1.4915,1.5563,1.5478,1.5028,1.5529,1.5431,1.5006,1.5387,1.5698,1.5957,0.0,0.0,0.0,0.0,0.0,0.0,0.0,0.0,0.0,0.0,0.0,0.0,0.0,-0.9156,-0.8344,-0.7685,-0.7223,-0.6626,-0.5893,-0.5163,-0.4513,-0.3858,-0.3463,-0.2952,-0.2415,0.0,0.0,0.0,0.0,-0.0224,-0.0116,0.0113,0.023,0.0178,0.0269,0.0314,0.0431,0.0937,0.0,0.0,0.1825,0.2088,0.0,0.0,0.0,0.0,0.0,0.0,0.0,0.0,0.0,0.0,0.0,0.0,0.0,0.0,0.0,0.0,0.0,0.0,0.0,0.0,0.0,0.0,0.0,0.0,0.0,0.0,0.0,0.0,0.0,0.0,0.0,0.0,0.0,0.0,0.0,0.0,0.0,0.0,0.0,0.0,0.0,0.0,0.0,0.0,0.0,0.8323,0.8608,0.8886,0.9163,0.9446,0.9692,1.0008,1.0462,1.1065,1.1628,1.2076,1.2618,1.3142,1.3621,1.4269,1.425,1.3785,1.4416,1.4541,1.4325,1.4862,1.4865,1.4546,1.5003,1.521,1.5239,1.5492,1.5784,1.6139,0.0,0.0,0.0,0.0,0.0,0.0,0.0,0.0,0.0,0.0,0.0,0.0,0.0,0.0,-0.7695,-0.7018,-0.6319,-0.5666,-0.5115,-0.4476,-0.386,-0.3185,-0.3001,-0.2547,-0.1863,0.0,0.0,0.0,0.0,0.0,0.0,0.0283,0.0345,0.0239,0.0223,0.011,0.0,0.0,0.0,0.0937,0.0,0.1707,0.1815,0.0,0.0,0.0,0.0,0.0,0.0,0.0,0.0,0.0,0.0,0.0,0.0,0.0,0.0,0.0,0.0,0.0,0.0,0.0,0.0,0.0,0.0,0.0,0.0,0.0,0.0,0.0,0.0,0.0,0.0,0.0,0.0,0.0,0.0,0.0,0.0,0.0,0.0,0.0,0.0,0.0,0.0,0.0,0.0,0.0,0.7894,0.8224,0.8589,0.9059,0.9205,0.9629,1.03,1.0812,1.1217,1.1628,1.2283,1.2803,1.3208,1.3829,1.3784,1.317,1.3701,1.3824,1.3604,1.4123,1.4326,1.4287,1.4763,1.5149,1.5448,1.5653,1.5955,1.6262,0.0,0.0,0.0,0.0,0.0,0.0,0.0,0.0,0.0,0.0,0.0,0.0,0.0,0.0,0.0,-0.6305,-0.5662,-0.5094,-0.4689,-0.3979,-0.3286,-0.2718,-0.256,-0.2095,-0.1315,0.0,0.0,0.0,0.0,0.0,0.0,0.0,0.0224,0.0,0.0112,0.0171,0.0176,0.0,0.0414,0.0427,0.0,0.1068,0.1339,0.0,0.0,0.0,0.3495,0.4385,0.0,0.5911,0.0,0.0,0.0,0.0,0.0,0.0,0.0,0.0,0.0,0.0,0.0,0.0,0.0,0.0,0.0,0.0,0.0,0.0,0.0,0.0,0.0,0.0,0.0,0.0,0.0,0.0,0.0,0.0,0.0,0.0,0.0,0.0,0.0,0.0,0.0,0.0,0.6697,0.701,0.7561,0.7733,0.8143,0.8935,0.8991,0.9159,0.9614,1.0205,1.0667,1.1124,1.1877,1.2452,1.2783,1.3307,1.3336,1.3001,1.3326,1.3192,1.2745,1.3446,1.3868,1.4181,1.4783,1.5195,1.5536,1.5883,1.6136,1.634,0.0,0.0,0.0,0.0,0.0,0.0,0.0,0.0,0.0,0.0,0.0,0.0,0.0,0.0,0.0,-0.5097,-0.448,-0.4017,-0.3764,-0.329,-0.2827,-0.2378,-0.223,-0.1906,-0.1313,0.0,0.0,0.0,0.0,0.0,0.0,0.0,0.0,0.0,-0.0458,-0.0521,-0.0608,0.0,0.0,0.0,0.0631,0.1131,0.0,0.0,0.0,0.0,0.0,0.4371,0.5093,0.0,0.5892,0.6295,0.0,0.0,0.0,0.0,0.0,0.0,0.7941,0.0,0.0,0.0,0.0,0.0,0.9168,0.911,0.0,0.0,0.0,0.0,0.0,0.0,0.0,0.0,0.0,0.0,0.0,0.0,0.0,0.0,0.0,0.0,0.0,0.0,0.0,0.0,0.595,0.627,0.668,0.729,0.778,0.8213,0.8559,0.8942,0.9458,0.9888,1.036,1.082,1.1427,1.1813,1.195,1.2762,1.2764,1.2235,1.2865,1.2896,1.2615,1.3501,1.4052,1.4438,1.4949,1.5314,1.561,1.5883,1.6163,1.6409,0.0,0.0,0.0,0.0,0.0,0.0,0.0,0.0,0.0,0.0,0.0,0.0,0.0,0.0,0.0,-0.4253,-0.3951,-0.367,-0.3522,-0.3115,-0.2782,-0.237,-0.2294,-0.2011,-0.1416,0.0,0.0,0.0,0.0,0.0,0.0,0.0,0.0,0.0,-0.0932,-0.0943,0.0,0.0,0.0,0.0,0.0412,0.0,0.0,0.1961,0.2573,0.0,0.0,0.0,0.485,0.5202,0.5667,0.0,0.0,0.0,0.0,0.0,0.0,0.0,0.0,0.0,0.0,0.0,0.0,0.0,0.8302,0.8329,0.8204,0.0,0.0,0.0,0.0,0.0,0.0,0.0,0.0,0.0,0.0,0.0,0.0,0.0,0.0,0.0,0.0,0.5022,0.4971,0.4892,0.515,0.5568,0.6125,0.6757,0.7245,0.7568,0.8037,0.8567,0.9047,0.9472,0.9888,1.0411,1.0806,1.116,1.1453,1.2004,1.2121,1.1853,1.2388,1.2623,1.2685,1.3433,1.4,1.4465,1.498,1.5388,1.5726,1.6024,1.6274,1.6517,0.0,0.0,-0.182,-0.2516,-0.2667,0.0,0.0,0.0,0.0,0.0,0.0,0.0,0.0,0.0,0.0,0.0,-0.3616,-0.3601,-0.3474,-0.3167,-0.2897,-0.257,-0.2481,-0.2186,-0.1684,0.0,0.0,0.0,0.0,0.0,0.0,0.0,0.0,0.0,-0.1362,-0.1145,0.0,0.0,0.0,-0.0476,0.0119,0.0697,0.0,0.0,0.2533,0.3378,0.3652,0.4063,0.4605,0.5136,0.5569,0.0,0.0,0.0,0.0,0.0,0.6179,0.0,0.0,0.0,0.0,0.0,0.0,0.0,0.7497,0.7492,0.7361,0.749,0.0,0.0,0.0,0.0,0.0,0.0,0.0,0.0,0.0,0.0,0.0,0.0,0.0,0.0,0.422,0.4132,0.4065,0.4102,0.4402,0.4902,0.5623,0.611,0.6599,0.6982,0.7503,0.8037,0.8468,0.889,0.9354,0.9835,1.0073,1.0508,1.1018,1.1217,1.1429,1.1619,1.1938,1.233,1.2803,1.3276,1.3815,1.4383,1.4963,1.5448,1.5856,1.6163,1.6394,1.6591,0.0845,0.0423,0.0,-0.0669,-0.1057,0.0,0.0,0.0,0.0,0.0,0.0,0.0,0.0,0.0,0.0,0.0,0.0,-0.2736,-0.2799,-0.2605,-0.2395,-0.2277,-0.2287,-0.2128,-0.1903,-0.1792,0.0,0.0,0.0,0.0,0.0,0.0,0.0,0.0,-0.1833,-0.1616,0.0,0.0,0.0,-0.0444,0.0062,0.0,0.1401,0.1749,0.233,0.2973,0.3319,0.3758,0.4262,0.5011,0.5492,0.5675,0.0,0.0,0.0,0.0,0.0,0.0,0.0,0.0,0.0,0.0,0.0,0.0,0.6046,0.614,0.6059,0.0,0.0,0.0,0.0,0.0,0.0,0.0,0.0,0.0,0.0,0.0,0.0,0.0,0.0,0.0,0.3426,0.3276,0.327,0.3365,0.3882,0.4349,0.4731,0.5397,0.5923,0.6223,0.6864,0.7402,0.7729,0.8262,0.8619,0.879,0.9373,0.9714,0.9856,1.0508,1.0915,1.1089,1.1634,1.2102,1.2615,1.3113,1.3789,1.4515,1.5011,1.5448,1.5856,1.6163,1.6448,1.6722,0.2389,0.1973,0.1421,0.072,0.0,0.0,0.0,0.0,0.0,0.0,0.0,0.0,0.0,0.0,0.0,0.0,0.0,0.0,0.0,0.0,-0.2197,-0.2128,-0.2239,-0.2256,-0.2235,-0.221,-0.2246,0.0,0.0,0.0,0.0,0.0,0.0,0.0,0.0,0.0,0.0,0.0,-0.128,-0.0694,-0.0249,0.0,0.112,0.1471,0.204,0.2701,0.3099,0.3685,0.4343,0.4919,0.5329,0.0,0.0,0.5677,0.5597,0.0,0.4892,0.4615,0.0,0.0,0.0,0.4448,0.0,0.0,0.0,0.5634,0.5596,0.0,0.0,0.0,0.0,0.0,0.0,0.0,0.0,0.0,0.0,0.0,0.0,0.0,0.0,0.0,0.2825,0.2589,0.2586,0.2845,0.3125,0.3519,0.3981,0.4552,0.5094,0.5513,0.6268,0.6815,0.7198,0.7676,0.8065,0.8293,0.8727,0.9051,0.9384,0.9981,1.0419,1.0764,1.1404,1.192,1.2389,1.2975,1.3589,1.4246,1.4859,1.5403,1.5827,1.6151,1.6409,1.6712,0.3753,0.3353,0.2814,0.1965,0.0,0.0,0.0,0.0,0.0,0.0,0.0,0.0,0.0,0.0,0.0,0.0,0.0,0.0,0.0,0.0,-0.2147,-0.2139,-0.2256,-0.2404,-0.2588,-0.2668,-0.2708,0.0,0.0,0.0,0.0,0.0,0.0,0.0,0.0,0.0,0.0,0.0,0.0,-0.1005,0.0,0.0,0.0648,0.106,0.1681,0.2372,0.2914,0.363,0.4391,0.4748,0.5115,0.5458,0.5626,0.5513,0.0,0.0,0.0,0.0,0.0,0.0,0.0,0.0,0.0,0.4431,0.0,0.0,0.0,0.0,0.0,0.0,0.0,0.0,0.0,0.0,0.0,0.0,0.0,0.0,0.0,0.0,0.0,0.0,0.0,0.2023,0.1963,0.2162,0.2327,0.2661,0.3191,0.3789,0.4346,0.4849,0.5555,0.6213,0.6657,0.7085,0.746,0.7803,0.8051,0.8481,0.9019,0.9493,1.0021,1.0621,1.118,1.1726,1.2282,1.2814,1.3399,1.3967,1.469,1.5269,1.577,1.6067,1.6355,1.6675,0.5009,0.4736,0.4395,0.326,0.0,0.0,0.0,0.0,0.0,0.0,0.0,0.0,0.0,0.0,0.0,0.0,0.0,0.0,-0.2056,0.0,0.0,-0.215,-0.2392,-0.264,-0.2954,-0.3162,-0.3211,-0.3027,0.0,0.0,0.0,0.0,0.0,0.0,-0.3145,0.0,0.0,0.0,-0.1702,0.0,-0.0844,-0.0373,0.0,0.0825,0.1234,0.1688,0.2711,0.3355,0.3802,0.0,0.4783,0.4853,0.0,0.5238,0.5234,0.4988,0.0,0.0,0.0,0.0,0.0,0.0,0.4339,0.0,0.0,0.0,0.4933,0.4831,0.0,0.0,0.0,0.0,0.0,0.0,0.0,0.0,0.0,0.0,0.0,0.0,0.0,0.0,0.0,0.1475,0.1424,0.1108,0.1684,0.2074,0.2194,0.3132,0.3796,0.4132,0.4736,0.5336,0.5937,0.6209,0.6477,0.6784,0.7385,0.7913,0.8322,0.8984,0.9765,1.0621,1.0905,1.1542,1.2401,1.2697,1.3263,1.3967,1.4592,1.5088,1.5507,1.6009,1.6367,1.6675,0.5837,0.5434,0.4975,0.4316,0.0,0.0,0.0,0.0,0.0,0.0,0.0,0.0,0.0,0.0,0.0,0.0,0.0,-0.2301,0.0,0.0,0.0,0.0,-0.2719,-0.2908,-0.3032,-0.3328,-0.3378,-0.3169,-0.3606,0.0,0.0,0.0,0.0,0.0,-0.3215,0.0,-0.229,0.0,-0.1941,0.0,0.0,0.0,0.0,0.0484,0.1242,0.194,0.2645,0.3246,0.3799,0.0,0.4636,0.0,0.0,0.0,0.0,0.0,0.0,0.0,0.0,0.0,0.0,0.0,0.0,0.0,0.5045,0.0,0.4734,0.0,0.0,0.0,0.0,0.0,0.0,0.0,0.0,0.0,0.0,0.0,0.0,0.0,0.0,0.0,0.0,0.0,0.0,0.0,0.0947,0.121,0.1497,0.2185,0.2817,0.3392,0.3887,0.4457,0.5179,0.55,0.5891,0.6261,0.6936,0.7536,0.8028,0.8675,0.9478,1.0312,1.0764,1.1394,1.2138,1.2532,1.3091,1.3769,1.4356,1.489,1.5448,1.5896,1.6285,1.6607,0.6485,0.0,0.0,0.0,0.0,0.0,0.0,0.0,0.0,0.0,0.0,0.0,-0.1193,-0.1564,0.0,0.0,-0.2549,-0.2674,0.0,0.0,-0.3059,0.0,0.0,0.0,0.0,-0.3668,-0.3706,-0.3438,0.0,0.0,0.0,0.0,0.0,0.0,0.0,-0.3059,-0.2495,0.0,-0.2046,-0.1695,-0.1109,-0.0835,-0.0687,0.0245,0.1237,0.2074,0.241,0.2965,0.3577,0.3968,0.4395,0.0,0.5154,0.0,0.0,0.0,0.0,0.0,0.4342,0.0,0.0,0.0,0.0,0.0,0.0,0.0,0.0,0.0,0.0,0.0,0.0,0.0,0.0,0.0,0.0,0.0,0.0,0.0,0.0,0.0,0.0,0.0,0.0,0.0,0.0,0.0,0.0,0.0467,0.0823,0.134,0.1979,0.27,0.3126,0.3683,0.4467,0.4846,0.5312,0.578,0.6551,0.7178,0.7787,0.8431,0.9191,1.0088,1.0611,1.1207,1.1945,1.2389,1.2953,1.3648,1.4181,1.4752,1.5344,1.5826,1.6203,1.6565,0.6697,0.669,0.0,0.0,0.0,0.0,0.0,0.0,0.0,0.0,0.0,0.0,0.0,0.0,0.0,0.0,0.0,-0.284,-0.3276,0.0,-0.3411,0.0,0.0,-0.3916,0.0,0.0,-0.4275,-0.4068,0.0,0.0,0.0,0.0,0.0,0.0,0.0,-0.3111,-0.2691,-0.2355,-0.2001,-0.1545,-0.1208,-0.0793,-0.0256,0.0,0.0925,0.1684,0.2073,0.0,0.0,0.3574,0.394,0.0,0.0,0.0,0.0,0.0,0.0,0.0,0.0,0.0,0.0,0.493,0.0,0.0,0.0,0.0,0.468,0.0,0.0,0.0,0.0,0.0,0.0,0.0,0.0,0.0,0.0,0.0,0.0,0.0,0.0,0.0,0.0,0.0,0.0,0.0,0.0,0.0,0.0059,0.0742,0.1421,0.1997,0.2336,0.2965,0.3796,0.4294,0.4786,0.5242,0.6164,0.6902,0.7454,0.8193,0.9047,1.0019,1.0428,1.1094,1.1945,1.2354,1.2883,1.3547,1.4181,1.4658,1.509,1.5769,1.6203,1.6581,0.677,0.0,0.0,0.0,0.0,0.0,0.0,0.1687,0.0,0.0,0.0,0.0,0.0,-0.162,-0.2074,0.0,0.0,-0.3341,-0.3664,-0.3952,0.0,0.0,0.0,-0.4434,0.0,0.0,0.0,0.0,0.0,0.0,0.0,0.0,0.0,0.0,0.0,-0.3411,0.0,0.0,0.0,0.0,0.0,-0.086,-0.0258,0.0,0.0,0.1217,0.1619,0.2169,0.0,0.3074,0.3535,0.3994,0.4471,0.4631,0.4736,0.5087,0.5248,0.0,0.0,0.0,0.5253,0.5078,0.0,0.0,0.0,0.0,0.0,0.0,0.0,0.0,0.0,0.0,0.0,0.0,0.0,0.0,0.0,0.0,0.0,0.0,0.0,0.0,0.0,0.0,0.0,0.0,0.0,0.0,0.0,-0.006,0.06,0.1458,0.1616,0.2183,0.3183,0.3741,0.4357,0.5091,0.5916,0.666,0.7273,0.8021,0.8837,0.9725,1.038,1.1057,1.1752,1.2282,1.2918,1.3615,1.4144,1.4655,1.5193,1.5797,1.6203,1.6617,0.6421,0.0,0.0,0.0,0.0,0.0,0.0,0.0,0.0,0.0,-0.0089,0.0,-0.1207,0.0,-0.2177,0.0,-0.3219,-0.3626,-0.3958,-0.4382,0.0,-0.4787,-0.4822,0.0,0.0,0.0,0.0,0.0,0.0,-0.4733,0.0,0.0,0.0,0.0,0.0,-0.3577,-0.3136,0.0,-0.2415,0.0,0.0,-0.1007,0.0,0.0,0.0443,0.0899,0.0,0.1831,0.2375,0.2687,0.3089,0.3554,0.4067,0.4287,0.4408,0.4782,0.5019,0.5186,0.5033,0.522,0.0,0.5243,0.5122,0.0,0.5118,0.0,0.0,0.0,0.0,0.0,0.0,0.0,0.0,0.0,0.0,0.0,0.0,0.0,0.0,0.0,0.0,0.0,0.0,0.0,0.0,0.0,0.0,0.0,0.0,0.0,-0.0061,0.0864,0.1162,0.1793,0.274,0.3366,0.4092,0.4845,0.5697,0.6435,0.7091,0.7889,0.8716,0.9558,1.0264,1.0943,1.1616,1.2174,1.2849,1.3535,1.4092,1.4637,1.5193,1.5769,1.6324,1.6885,0.5818,0.0,0.0,0.0,0.3754,0.0,0.0,0.0,0.0851,0.0,-0.0471,-0.0939,-0.1263,-0.1975,-0.2472,-0.2621,-0.3133,-0.3658,-0.4142,-0.4535,0.0,0.0,-0.5135,-0.5143,-0.5029,0.0,0.0,0.0,0.0,0.0,0.0,0.0,0.0,0.0,-0.3958,0.0,-0.3218,-0.2699,-0.2391,-0.2041,-0.149,-0.1175,-0.1013,-0.0338,0.0261,0.0684,0.1054,0.1421,0.1779,0.2264,0.2516,0.2688,0.3418,0.3719,0.3892,0.4425,0.4694,0.48,0.4932,0.5192,0.5425,0.5443,0.0,0.0,0.0,0.0,0.6233,0.0,0.0,0.0,0.0,0.0,0.0,0.0,0.0,0.0,0.0,0.0,0.0,0.0,0.0,0.0,0.0,0.0,0.0,0.0,0.0,0.0,0.0,0.0,-0.0479,0.037,0.0987,0.1682,0.2465,0.313,0.3849,0.4511,0.5471,0.6191,0.6833,0.7758,0.8667,0.9518,1.004,1.0736,1.1516,1.2029,1.2661,1.3387,1.4046,1.4624,1.5134,1.5782,1.6565,1.7375,0.5053,0.4451,0.3946,0.0,0.322,0.2674,0.0,0.0,0.0,0.0,-0.019,-0.0661,-0.1105,-0.1449,-0.1953,-0.2593,-0.2955,0.0,0.0,0.0,0.0,-0.4831,-0.5012,-0.5017,-0.4828,-0.5041,0.0,-0.4746,0.0,0.0,-0.4708,0.0,0.0,0.0,0.0,0.0,-0.345,-0.3078,-0.276,-0.2392,-0.2186,-0.1796,0.0,0.0,-0.0412,0.027,0.0713,0.107,0.1418,0.1771,0.2123,0.251,0.3062,0.3394,0.3629,0.4028,0.4558,0.5084,0.5249,0.5529,0.5804,0.5788,0.577,0.575,0.0,0.0,0.0,0.0,0.0,0.0,0.0,0.0,0.0,0.0,0.0,0.0,0.0,0.0,0.0,-0.1214,0.0,0.0,0.0,0.0,0.0,0.0,0.0,0.0,0.0,0.0,0.0,0.0,0.0639,0.1401,0.2296,0.2972,0.3749,0.4511,0.5419,0.6147,0.6761,0.7641,0.8431,0.9177,0.9991,1.0725,1.133,1.2029,1.2708,1.3387,1.4046,1.4842,1.5726,1.6246,1.6799,1.7375,0.4183,0.0,0.0,0.2538,0.0,0.0,0.143,0.0959,0.0,-0.0097,-0.0487,0.0,-0.1428,-0.1773,-0.2201,-0.2811,-0.3143,0.0,-0.4176,0.0,0.0,-0.4883,-0.4981,-0.4989,-0.488,-0.5049,0.0,-0.4717,0.0,0.0,-0.4777,0.0,0.0,0.0,0.0,-0.4124,-0.3768,-0.3431,-0.3095,-0.272,-0.2532,0.0,0.0,-0.1219,-0.0784,-0.0284,0.0276,0.0665,0.109,0.1389,0.173,0.2098,0.2718,0.3089,0.3429,0.3828,0.4425,0.5024,0.5093,0.5425,0.5837,0.6116,0.6191,0.6294,0.6471,0.6841,0.715,0.0,0.0,0.0,0.0,0.0,0.0,0.0,0.0,0.0,0.0,0.0,0.0,0.0,-0.1182,0.0,0.0,0.0,0.0,0.0,0.0,0.0,0.0,0.0,0.0,-0.0123,0.0707,0.1479,0.2184,0.292,0.37,0.4511,0.5419,0.6147,0.6761,0.7599,0.839,0.9136,0.9883,1.0572,1.1169,1.1957,1.2673,1.3353,1.4246,1.5149,1.5942,1.6382,1.6876,1.7375,0.0,0.0,0.0,0.0,0.0,0.0,0.0,0.0395,0.0,-0.0691,0.0,-0.1404,-0.1968,-0.2416,-0.2865,-0.3239,0.0,-0.4029,-0.4461,-0.4545,-0.4801,-0.5091,-0.5278,-0.5283,-0.5246,-0.5284,-0.5261,0.0,0.0,0.0,0.0,0.0,0.0,0.0,0.0,0.0,0.0,-0.3845,-0.3484,-0.3192,-0.2811,-0.2474,-0.2204,-0.1393,-0.1099,-0.0952,-0.0365,0.0212,0.0746,0.1053,0.1325,0.1682,0.2357,0.2843,0.324,0.3696,0.4236,0.4788,0.4855,0.5252,0.5814,0.637,0.668,0.6975,0.748,0.8092,0.8445,0.8254,0.8471,0.8443,0.0,0.0,0.0,0.0,0.0,0.0,0.0,0.0,0.0,0.0,0.0,0.0,0.0,0.0,0.0,0.0,0.0,0.0,0.0,0.0,0.0,-0.0062,0.0898,0.1682,0.224,0.0,0.37,0.4511,0.5424,0.6191,0.6833,0.7599,0.8431,0.9217,0.9744,1.039,1.1057,1.1811,1.2591,1.3421,1.455,1.5359,1.5942,1.6355,1.685,1.7392,0.0,0.0,0.0,0.0,0.0,0.01,-0.04,-0.0198,-0.0198,-0.0702,-0.121,-0.1705,-0.2163,-0.2738,-0.3297,-0.4005,-0.4181,0.0,0.0,0.0,0.0,-0.5712,-0.5996,-0.6257,-0.6288,-0.6505,-0.6662,0.0,0.0,0.0,0.0,0.0,0.0,0.0,0.0,0.0,-0.4988,-0.4813,0.0,-0.4361,-0.3818,-0.3418,-0.3088,-0.2498,-0.2028,-0.1647,-0.1174,-0.0507,0.0215,0.0906,0.1248,0.1454,0.2225,0.2724,0.3184,0.365,0.4227,0.4786,0.513,0.5747,0.637,0.6531,0.6945,0.7419,0.773,0.795,0.8209,0.865,0.8647,0.826,0.7423,0.0,0.0,0.0,0.0,0.0,0.0,0.0,0.0,0.0,0.0,-0.1753,0.0,0.0,0.0,0.0,0.0,0.0,0.0,0.0,0.0,0.0,0.1196,0.0,0.0,0.0,0.3797,0.4511,0.5372,0.6147,0.6761,0.7572,0.8324,0.9056,0.9704,1.039,1.1057,1.1811,1.2824,1.4019,1.4721,1.53,1.5811,1.6367,1.6876,1.7375,0.0,0.0,0.0,0.0,0.0,0.0,0.0,-0.1302,-0.1298,-0.1613,-0.2019,-0.2515,-0.3087,-0.3551,-0.402,-0.4708,-0.4917,-0.5172,-0.5723,-0.5913,-0.627,-0.6719,-0.7116,0.0,-0.7788,-0.7788,-0.7954,-0.8209,0.0,0.0,0.0,0.0,0.0,0.0,0.0,-0.6012,0.0,0.0,0.0,-0.5099,-0.4622,-0.4196,-0.3832,-0.2942,-0.2543,-0.231,-0.1675,-0.1062,-0.0528,0.0362,0.0921,0.1331,0.1966,0.2454,0.294,0.3572,0.4097,0.4635,0.513,0.5768,0.6335,0.6678,0.7236,0.7778,0.8175,0.8338,0.8633,0.9229,0.8892,0.8168,0.6984,0.5611,0.0,0.0,0.0,0.0,0.0,0.0,0.0,0.0,0.0,0.0,0.0,0.0,0.0,0.0,0.0,0.0,0.0,0.0,0.0,0.0,0.0,0.0,0.0,0.0,0.0,0.4751,0.562,0.6316,0.6894,0.7607,0.8316,0.9016,0.9704,1.039,1.1094,1.2223,1.3251,1.4149,1.4752,1.53,1.5767,1.634,1.6825,1.7256,0.0,0.0309,0.0,0.0,-0.1229,0.0,-0.2224,-0.2521,-0.2723,-0.2522,-0.2825,-0.3328,-0.4034,-0.4377,-0.4858,-0.5432,-0.5681,-0.6076,-0.6629,-0.6943,-0.7339,-0.8022,-0.8548,-0.9052,-0.9502,-0.9452,-0.9634,0.0,0.0,0.0,0.0,0.0,0.0,0.0,0.0,0.0,0.0,0.0,-0.6217,-0.5788,-0.5303,-0.4908,-0.4496,-0.3555,-0.3082,-0.2844,-0.2124,-0.1655,-0.1258,-0.0301,0.0437,0.1072,0.1742,0.2164,0.2641,0.3549,0.4012,0.4393,0.505,0.5709,0.6364,0.6865,0.7475,0.813,0.8689,0.8897,0.9157,0.971,0.9015,0.8048,0.6989,0.6291,0.0,0.0,0.0,0.0,0.0,0.0,0.0,0.0,0.0,0.0,-0.252,0.0,0.0,0.0,0.0,0.0,0.0,0.0,0.0,0.0,0.0,0.2759,0.3222,0.0,0.4467,0.5042,0.5868,0.6522,0.7021,0.7682,0.8398,0.9096,0.9734,1.0505,1.1356,1.277,1.3625,1.4149,1.4735,1.524,1.5739,1.627,1.6747,1.7183,0.0,0.0,0.0,0.0,0.0,0.0,-0.3327,-0.3629,-0.363,-0.2825,-0.3429,-0.4034,-0.4338,-0.5029,-0.5724,-0.6237,-0.6698,-0.7286,-0.7955,-0.8367,-0.8926,-0.9638,-1.0353,-1.0995,-1.1492,-1.189,-1.2281,0.0,0.0,0.0,0.0,0.0,0.0,0.0,0.0,0.0,0.0,-0.7673,-0.727,-0.6595,-0.6182,-0.5606,-0.509,-0.4608,-0.4044,-0.339,-0.2847,-0.2227,-0.1614,-0.1023,-0.0153,0.0674,0.1468,0.207,0.2616,0.3514,0.399,0.4358,0.5262,0.601,0.6678,0.7052,0.7872,0.8753,0.9171,0.9367,0.9493,0.978,0.8755,0.7892,0.7957,0.6741,0.5766,0.0,0.0,0.0,0.0,0.0,0.0,0.0,0.0,0.0,0.0,-0.0394,0.0,0.0,0.0,0.0,0.0,0.0,0.0,0.1992,0.0,0.3269,0.3738,0.4307,0.4843,0.5193,0.5975,0.658,0.7021,0.7682,0.8431,0.9217,0.9843,1.0867,1.2161,1.3301,1.3858,1.4052,1.4592,1.5134,1.5681,1.6148,1.6644,1.7134,0.0,0.0,0.0,0.0,0.0,0.0,0.0,-0.4437,-0.4636,-0.4531,-0.4636,-0.4836,-0.534,-0.5942,-0.6539,-0.7033,-0.7693,-0.8193,-0.8679,-0.928,-0.9978,-1.0538,-1.1349,-1.2182,-1.2806,-1.3188,-1.3495,0.0,0.0,0.0,0.0,0.0,0.0,0.0,0.0,-0.9687,-0.9306,-0.8882,-0.8291,-0.7594,-0.7253,-0.6739,-0.6276,-0.5454,-0.4879,-0.4383,-0.3693,-0.2936,-0.219,-0.1689,-0.0703,0.0455,0.1066,0.1597,0.2197,0.3116,0.3677,0.4169,0.5092,0.5854,0.6518,0.7025,0.775,0.8477,0.9155,0.9352,0.9574,1.0098,0.9442,0.8633,0.8264,0.8179,0.7932,0.0,0.0,0.0,0.0,0.0,0.0,0.0,0.0,0.0,0.0,0.0,0.0,0.0,0.0,0.0,0.0,0.0,0.0,0.2774,0.0,0.3813,0.4449,0.4871,0.537,0.5971,0.6439,0.6941,0.7506,0.824,0.9207,1.0249,1.0994,1.1692,1.2401,1.3532,1.4002,1.4065,1.4624,1.5118,1.5551,1.6093,1.6554,1.6952,-0.1596,0.0,-0.2872,0.0,-0.4045,-0.456,-0.4924,-0.5275,-0.5651,-0.5979,-0.5987,-0.609,-0.6396,-0.6931,-0.7459,-0.7958,-0.8616,-0.9116,-0.9315,-1.0205,-1.0853,-1.1318,-1.2318,0.0,-1.387,-1.4222,-1.454,-1.5007,-1.4446,0.0,0.0,0.0,0.0,0.0,-1.1013,-1.0643,-1.0362,-0.9899,-0.9379,-0.8782,-0.8376,-0.7905,-0.7242,-0.635,-0.5751,-0.5244,-0.4376,-0.3591,-0.2898,-0.2386,-0.1285,-0.0078,0.0628,0.1243,0.1921,0.2807,0.3446,0.3997,0.501,0.5702,0.6371,0.7104,0.7816,0.8611,0.9435,0.9702,0.998,1.0668,1.0391,0.9889,0.9411,0.9961,1.0216,0.9378,0.0,0.0,0.0,0.0,0.0,0.0,0.5072,0.403,0.3009,0.2233,0.0,0.0,0.0,0.0,0.0,0.0,0.0,0.0,0.0,0.0,0.0,0.5505,0.5993,0.6662,0.6999,0.7497,0.8094,0.9113,1.0096,1.1083,1.2118,1.253,1.2556,1.3778,1.4191,1.4098,1.4637,1.5072,1.5448,1.5953,1.6367,1.6712,-0.2567,-0.2871,-0.3384,-0.4582,-0.4583,-0.4932,-0.6147,-0.6384,-0.6581,-0.7006,-0.7539,-0.7747,-0.7545,-0.8079,-0.858,-0.8999,-0.9571,-0.9977,-1.0281,-1.11,-1.177,0.0,0.0,-1.4097,-1.4702,-1.5245,-1.5576,-1.589,0.0,0.0,-1.4702,0.0,-1.2596,-1.1686,-1.1927,-1.1526,-1.057,-1.0847,-1.057,-0.9904,-0.9704,-0.8966,-0.7903,-0.749,-0.6662,-0.5783,-0.4992,-0.4342,-0.38,-0.2963,-0.2101,-0.1166,0.0159,0.1099,0.1805,0.2821,0.3446,0.3997,0.501,0.5702,0.6395,0.7246,0.832,0.9335,1.0105,1.0584,1.0979,1.151,1.1461,1.1467,1.1878,1.2037,1.2097,1.2216,0.0,0.0,0.0,0.0,0.0,0.8571,0.7316,0.6138,0.5147,0.4323,0.0,0.0,0.0,0.0,0.0,0.0,0.0,0.3839,0.4629,0.0,0.5988,0.636,0.6738,0.7121,0.7778,0.8274,0.8741,1.0211,1.1061,1.1491,1.3001,1.3252,1.271,1.4174,1.4541,1.4235,1.4588,1.5011,1.5418,1.5623,1.6009,1.6409,-0.3856,-0.4259,-0.4642,-0.4994,-0.5645,-0.6422,-0.7085,-0.7296,-0.7428,-0.7988,-0.8292,-0.8779,-0.9512,-0.9245,-0.9317,0.0,-1.031,-1.0896,0.0,-1.1962,-1.2435,-1.284,-1.3521,-1.4072,-1.4364,-1.4743,-1.4987,-1.5297,0.0,0.0,0.0,-1.3627,-1.3224,-1.2919,-1.2715,-1.2421,-1.2093,-1.1812,-1.145,-1.0847,-1.0407,-0.9976,-0.9457,-0.8671,-0.792,-0.7177,-0.623,-0.532,-0.4425,-0.361,-0.2673,-0.1677,-0.0661,0.0329,0.1316,0.2302,0.3125,0.3946,0.5091,0.5836,0.6579,0.7572,0.8356,0.9137,1.0082,1.1232,1.2176,1.2654,1.3106,1.3403,1.3567,1.3964,1.4309,1.4318,1.4113,0.0,0.0,0.0,0.0,1.0358,0.9203,0.7958,0.6684,0.5695,0.0,0.0,0.0,0.0,0.0,0.0,0.0,0.0,0.5496,0.0,0.6832,0.7136,0.758,0.8111,0.8481,0.9219,1.027,1.0886,1.165,1.2459,1.3499,1.3857,1.3782,1.4637,1.4883,1.4701,1.4676,1.4856,1.5102,1.5448,1.5725,1.6037,-0.4742,-0.5052,-0.5454,-0.5803,-0.6506,-0.7225,-0.7768,-0.8097,-0.8342,-0.8673,-0.9183,-0.9674,-1.042,-1.0379,0.0,-1.0678,-1.0931,-1.1312,-1.1836,-1.2279,-1.2786,-1.3081,-1.3713,-1.4166,-1.4452,-1.4775,0.0,-1.5293,-1.5086,-1.475,-1.4292,-1.4095,-1.3858,-1.3616,-1.3419,-1.3182,-1.2951,-1.2758,-1.2337,-1.1744,-1.1288,-1.0885,-1.0407,-0.9673,-0.8987,-0.8329,-0.7302,-0.6351,-0.5481,-0.4451,-0.3563,-0.2524,-0.1554,-0.0517,0.0687,0.1858,0.2941,0.3948,0.4949,0.5885,0.6739,0.7737,0.8629,0.96,1.0974,1.2374,1.3559,1.4019,1.4735,1.5307,1.538,1.5916,1.6293,1.6393,1.617,1.588,1.5365,0.0,0.0,0.0,0.0,0.0,0.0,0.7092,0.5944,0.0,0.0,0.0,0.0,0.0,0.0,0.6143,0.6616,0.0,0.7859,0.8207,0.8627,0.9005,0.9416,1.0261,1.1441,1.1798,1.2318,1.3062,1.4005,1.434,1.4317,1.5078,1.5181,1.4852,1.4894,1.491,1.4932,1.5209,1.5463,1.5725,-0.5355,-0.5483,-0.5929,0.0,-0.7265,0.0,-0.8273,-0.8886,-0.9319,-0.9259,-1.0011,-1.0543,-1.065,-1.1242,-1.1568,-1.1678,0.0,0.0,0.0,-1.2392,-1.2784,-1.3092,-1.3846,-1.4484,-1.5035,-1.5261,-1.5583,-1.5891,-1.5583,-1.5341,-1.5076,-1.4879,-1.4429,-1.397,-1.4276,-1.3948,-1.3336,-1.353,-1.3204,-1.2499,-1.2289,-1.1718,-1.101,-1.0529,-0.9881,-0.9116,-0.8085,-0.7419,-0.6729,-0.5403,-0.444,-0.3588,-0.2533,-0.1437,-0.0089,0.1453,0.2786,0.3882,0.4801,0.5886,0.6964,0.78,0.9086,1.0658,1.252,1.4024,1.5119,1.5526,1.6385,1.7117,1.7447,1.7829,1.8236,1.8469,1.8355,1.8041,1.7441,0.0,0.0,0.0,0.0,0.0,0.0,0.8496,0.7159,0.0,0.0,0.0,0.0,0.0,0.6638,0.7216,0.7872,0.8466,0.9015,0.9531,0.9761,0.9838,1.0561,1.1309,1.2175,1.2735,1.3128,1.335,1.4428,1.4775,1.4542,1.5452,1.5453,1.4915,1.5161,1.5142,1.4927,1.498,1.5195,1.5477,0.0,0.0,-0.6821,-0.7154,-0.7934,-0.8605,-0.8719,-0.9442,-0.9956,-1.03,-1.0736,-1.1172,-1.1602,-1.1647,-1.1787,-1.2223,-1.1959,-1.2154,-1.2916,-1.3081,-1.35,-1.419,-1.441,-1.4652,-1.5035,-1.5041,-1.525,-1.5565,-1.525,-1.5229,-1.5395,-1.5082,-1.4941,-1.4796,-1.4898,-1.4767,-1.4607,-1.45,-1.4364,-1.4105,-1.3445,-1.2915,-1.2542,-1.1401,-1.0694,-1.0268,-0.8999,-0.8042,-0.7167,-0.6274,-0.5014,-0.369,-0.2848,-0.1725,-0.0358,0.1152,0.2385,0.362,0.4939,0.6088,0.7144,0.8381,1.0081,1.1889,1.3305,1.4575,1.5756,1.6789,1.7752,1.8581,1.9186,1.9689,2.0126,2.0559,2.0014,1.9422,1.9182,1.7934,0.0,0.0,1.3978,1.2601,1.117,0.9735,0.8575,0.0,0.0,0.0,0.0,0.9148,0.9237,0.8845,0.9205,0.9581,1.006,1.028,1.061,1.0979,1.1447,1.1927,1.2421,1.3035,1.3548,1.4003,1.4732,1.5194,1.5483,1.5736,1.5863,1.5891,1.5287,1.5135,1.5178,1.4868,1.4904,1.5165,-0.6702,-0.6935,-0.7376,-0.7934,-0.8494,-0.9047,-0.9596,-0.9923,-1.0359,-1.0916,-1.1131,-1.1455,-1.2005,-1.2114,-1.2332,-1.255,-1.2332,-1.2441,-1.3098,-1.3527,-1.3959,-1.4385,-1.4819,-1.5098,-1.5429,-1.5429,-1.5479,-1.5672,-1.5464,-1.5559,-1.5855,-1.5855,-1.5956,-1.6037,-1.5915,-1.5688,-1.5463,-1.5027,-1.4698,-1.4485,-1.4083,-1.37,-1.3281,-1.2359,-1.1721,-1.1038,-0.9738,-0.873,-0.7798,-0.6763,-0.5497,-0.4067,-0.3252,-0.2018,-0.0726,0.054,0.1972,0.3405,0.4835,0.6113,0.7469,0.9387,1.1063,1.2599,1.4002,1.5301,1.6533,1.7922,1.8966,1.9748,2.0531,2.1044,2.1505,2.1928,2.1369,2.0781,2.043,1.9154,0.0,1.6545,1.5334,1.3986,1.2489,1.1223,1.0147,0.9491,0.9624,0.0,1.0461,1.1326,1.1282,1.0107,1.0514,1.0792,1.093,1.1108,1.1469,1.2027,1.2055,1.2314,1.2745,1.3382,1.3952,1.4419,1.4983,1.548,1.5888,1.6026,1.6097,1.6113,1.5393,1.5118,1.5019,1.4602,1.4637,1.4904,-0.7348,-0.7487,-0.7712,-0.8716,-0.9047,-0.9485,-1.0582,-1.0468,-1.0578,-1.1244,-1.1573,-1.1787,-1.2114,-1.255,-1.2891,-1.3034,-1.2816,-1.2801,-1.2989,-1.3774,-1.4331,-1.4331,-1.5108,-1.569,-1.6032,-1.6032,-1.6029,-1.612,-1.612,-1.6235,-1.6454,-1.6795,-1.7029,-1.7241,-1.701,-1.6671,-1.6215,-1.5517,-1.5065,-1.4653,-1.4516,-1.4173,-1.3637,-1.322,-1.2557,-1.1543,-1.0399,-0.9384,-0.8443,-0.7309,-0.5979,-0.4671,-0.3865,-0.2509,-0.1106,0.0,0.1438,0.3044,0.4474,0.6074,0.7925,1.0371,1.1757,1.2869,1.4576,1.5864,1.7198,1.8896,1.9929,2.0709,2.1624,2.2191,2.2611,2.3033,2.2574,2.1989,2.1615,0.0,1.8919,1.7779,1.656,1.53,1.3995,1.2829,1.1818,1.1051,1.1553,1.1951,1.2026,1.3108,1.2954,1.1354,1.1734,1.1882,1.174,1.1945,1.2351,1.291,1.254,1.2637,1.3163,1.3747,1.4208,1.4627,1.5085,1.557,1.6001,1.6275,1.6258,1.6013,1.5466,1.511,1.4814,1.4333,1.4365,1.4637,-0.8488,-0.8605,-0.8716,-0.8826,-0.9706,-1.0472,-1.0692,-1.1131,-1.1459,-1.1568,-1.2005,-1.2441,-1.2772,-1.2881,-1.3063,-1.3573,-1.3704,-1.3732,-1.3547,-1.4155,-1.4702,-1.524,-1.5817,-1.6298,-1.6528,-1.6528,-1.6721,-1.6888,-1.7006,-1.7148,-1.7414,-1.7414,-1.7556,-1.7477,-1.721,-1.7166,-1.7331,-1.6496,-1.6247,-1.6306,-1.566,-1.5018,-1.4404,-1.3451,-1.2784,-1.226,-1.0751,-0.9868,-0.9213,-0.8155,-0.6735,-0.5278,-0.4477,-0.3229,-0.1847,-0.0461,0.0908,0.2327,0.3939,0.6508,0.8978,1.0631,1.1843,1.309,1.4926,1.5864,1.7085,1.9634,2.0474,2.1227,2.2892,2.3574,2.3961,2.4237,2.3688,2.3112,2.2699,0.0,2.0029,1.9394,1.7988,1.6788,1.6046,1.4739,1.3726,1.3273,1.3166,1.3283,1.3648,1.3958,1.4042,1.36,1.3113,1.283,1.2797,1.2709,1.2934,1.3471,1.2936,1.3047,1.3771,1.3951,1.4208,1.4627,1.5085,1.5492,1.5748,1.6113,1.6312,1.6338,1.5424,1.5107,1.5125,1.4256,1.4059,1.4259,-0.8826,-0.9375,-0.9926,-0.9926,-1.0363,-1.0692,-1.0692,-1.124,-1.1678,-1.2005,-1.2223,-1.2593,-1.3037,-1.3377,-1.3688,-1.4137,-1.45,-1.4793,-1.4573,-1.4999,-1.5501,-1.6051,-1.6535,-1.6798,-1.6911,-1.7138,-1.7172,-1.7136,-1.7136,-1.7441,-1.7817,-1.8036,-1.812,-1.8255,-1.7988,-1.7924,-1.8017,-1.729,-1.706,-1.6931,-1.6441,-1.5719,-1.4945,-1.4163,-1.3435,-1.27,-1.1557,-1.0458,-0.9571,-0.848,-0.7153,-0.5849,-0.4718,-0.3583,-0.2282,-0.0931,0.1275,0.3491,0.5008,0.7183,0.9389,1.072,1.1958,1.3417,1.5397,1.6367,1.7501,1.9996,2.1034,2.1933,2.3367,2.4013,2.4444,2.47,2.4052,0.0,0.0,2.2192,2.1067,2.0253,1.9369,1.8357,1.7162,1.6062,1.5273,1.4844,1.4613,1.4688,1.4974,1.5188,1.5166,1.4891,1.3933,1.3445,1.3407,1.3491,1.3634,1.3978,1.3461,1.3561,1.4243,1.4164,1.4326,1.4789,1.5074,1.539,1.5715,1.5893,1.5917,1.5768,1.5355,1.5167,1.5031,1.4631,1.448,1.4466,-0.9154,-1.0033,-1.0692,-1.0692,-1.0692,-1.0802,-1.1021,-1.1459,-1.1896,-1.2327,-1.2441,-1.2626,-1.328,-1.375,-1.4202,-1.4712,-1.5199,-1.5568,-1.5744,-1.6074,-1.638,-1.6773,-1.7146,-1.7414,-1.7414,-1.7638,-1.7647,-1.7441,-1.7554,-1.7774,-1.8218,-1.8669,-1.8902,-1.8991,-1.8768,-1.8676,-1.8656,-1.8036,-1.7578,-1.7434,-1.7164,-1.646,-1.5603,-1.5081,-1.4212,-1.3047,-1.2245,-1.1159,-0.9941,-0.8882,-0.7648,-0.6321,-0.5051,-0.3934,-0.2825,-0.1411,0.1375,0.4412,0.5816,0.7567,0.9191,1.0592,1.191,1.3441,1.5581,1.6551,1.766,1.9988,2.1203,2.2186,2.3454,2.41,2.4454,2.47,0.0,0.0,0.0,2.2862,2.1984,2.1115,2.0624,1.9712,1.8288,1.7388,1.6733,1.626,1.6095,1.5976,1.607,1.6193,1.6042,1.5624,1.4585,1.4038,1.3941,1.4084,1.4279,1.4525,1.4018,1.4064,1.461,1.4361,1.4455,1.4823,1.5017,1.5289,1.5614,1.5572,1.5476,1.5314,1.5179,1.5061,1.4974,1.4953,1.4852,1.4794,-1.0472,-1.0692,-1.0692,-1.0692,-1.0692,-1.1021,-1.2114,-1.2327,-1.2332,-1.2436,-1.2441,-1.2736,-1.3618,-1.3755,-1.4265,-1.5517,-1.5676,-1.6008,-1.6833,-1.719,-1.7316,-1.7074,-1.789,-1.8273,-1.8273,-1.8389,-1.8377,-1.8358,-1.8584,-1.8822,-1.8848,-1.9435,-1.9564,-1.9366,-1.9339,-1.9325,-1.9312,-1.8326,-1.809,-1.8398,-1.7783,-1.7066,-1.6168,-1.5926,-1.4892,-1.3588,-1.2834,-1.1668,-1.0427,-0.9332,-0.8157,-0.6936,-0.5827,-0.4767,-0.3611,-0.2103,0.0748,0.3758,0.53,0.6786,0.8328,1.0286,1.1428,1.276,1.5268,1.6038,1.7007,1.9715,2.0674,2.1494,2.3172,2.3667,2.3937,2.4206,0.0,0.0,2.379,2.3153,2.2621,2.2401,2.1487,2.0569,1.9778,1.9034,1.8266,1.7662,1.7468,1.7222,1.6806,1.683,1.6541,1.5891,1.5151,1.461,1.4478,1.4382,1.4716,1.5293,1.4347,1.4307,1.506,1.4607,1.4477,1.4616,1.4971,1.521,1.5322,1.492,1.5152,1.5636,1.4583,1.4586,1.5118,1.4829,1.4852,1.5031,-1.0692,-1.0692,-1.0911,-1.1673,-1.1782,-1.1896,-1.2332,-1.2441,-1.2441,-1.2441,-1.2767,-1.3232,-1.382,-1.4189,-1.4831,-1.5893,-1.6049,-1.644,-1.7015,-1.7602,-1.8021,-1.7921,-1.877,-1.8952,-1.8421,-1.8822,-1.8906,-1.8906,-1.9142,-1.9377,-1.9744,-2.0162,-2.0171,-1.9938,-2.013,-1.9993,-1.9577,-1.9232,-1.8955,-1.8692,-1.8071,-1.7447,-1.6748,-1.6085,-1.5226,-1.4119,-1.3532,-1.2378,-1.1104,-1.0282,-0.8991,-0.7661,-0.6444,-0.5256,-0.3764,-0.1441,0.0844,0.294,0.441,0.6454,0.8493,0.9903,1.1253,1.2797,1.4804,1.5922,1.7055,1.9259,2.0472,2.1409,2.2504,2.2896,2.3063,2.313,0.0,2.2774,2.3099,2.2958,2.2685,2.2332,2.181,2.1095,1.9985,1.939,1.8757,1.8007,1.7734,1.7495,1.7292,1.7011,1.6487,1.5717,1.56,1.5317,1.4784,1.5042,1.5341,1.5594,1.4817,1.4769,1.5237,1.4386,1.4244,1.4581,1.4662,1.48,1.4983,1.4856,1.4829,1.49,1.4959,1.5012,1.5115,1.5482,1.5558,1.5539,-1.0692,-1.0692,-1.1021,-1.2001,-1.2114,-1.2223,-1.2332,-1.2441,-1.2465,-1.2531,-1.292,-1.3377,-1.3937,-1.4551,-1.5276,-1.6049,-1.6503,-1.6779,-1.7138,-1.7954,-1.8538,-1.8655,-1.9404,-1.947,-1.879,-1.9298,-1.9561,-1.9561,-1.9561,-1.9801,-2.0298,-2.0616,-2.0725,-2.0454,-2.0801,-2.062,-1.9952,-1.9972,-1.9693,-1.9094,-1.8787,-1.8192,-1.7609,-1.6709,-1.5752,-1.4815,-1.4129,-1.2985,-1.1755,-1.0911,-0.9653,-0.8252,-0.6921,-0.5289,-0.3477,-0.1163,0.0663,0.2227,0.3727,0.5796,0.7937,0.947,1.0909,1.244,1.4308,1.5503,1.6699,1.8547,1.9782,2.0825,2.1776,2.2169,2.2368,2.2359,2.2393,2.2436,2.2706,2.2849,2.2766,2.2316,2.1985,2.1366,2.0292,1.9655,1.8982,1.8408,1.8138,1.783,1.7571,1.6882,1.631,1.585,1.5887,1.5683,1.5274,1.5624,1.5788,1.5836,1.5161,1.5049,1.5299,1.4348,1.414,1.4477,1.4477,1.4616,1.4834,1.4711,1.4663,1.4658,1.5063,1.518,1.5222,1.591,1.607,1.6027,-1.0692,-1.0692,-1.0911,-1.1459,-1.1568,-1.1787,-1.2332,-1.2441,-1.2517,-1.2739,-1.2913,-1.3157,-1.3942,-1.4551,-1.521,-1.6155,-1.664,-1.7138,-1.7485,-1.8071,-1.8655,-1.9366,-1.9646,-1.9806,-1.98,-2.0087,-2.0234,-2.0234,-2.0234,-2.0234,-2.0234,-2.096,-2.1074,-2.0698,-2.1102,-2.085,-2.0371,-2.0294,-2.0162,-1.9815,-1.9815,-1.9516,-1.8878,-1.792,-1.6806,-1.5608,-1.456,-1.3418,-1.2309,-1.1233,-0.9967,-0.8554,-0.7434,-0.5142,-0.2649,-0.157,0.0097,0.1895,0.3248,0.4697,0.6524,0.8968,1.026,1.1538,1.3823,1.4736,1.5657,1.7613,1.8608,1.9618,2.1105,2.1802,2.2124,2.215,2.25,2.2671,2.2491,2.293,2.2998,2.2542,2.1922,2.1318,2.0859,1.9806,1.9082,1.8934,1.8693,1.8321,1.7655,1.6596,1.6074,1.6307,1.59,1.574,1.5914,1.5914,1.5961,1.6093,1.5368,1.5049,1.5174,1.4521,1.4222,1.4222,1.4477,1.4708,1.4869,1.4393,1.4628,1.5254,1.472,1.4911,1.5558,1.5869,1.6175,1.6436,-1.1135,-1.1135,-1.1244,-1.1568,-1.1896,-1.2223,-1.2332,-1.2441,-1.2517,-1.2739,-1.315,-1.3547,-1.3957,-1.4698,-1.5401,-1.6166,-1.6517,-1.7126,-1.8071,-1.8532,-1.9004,-1.9366,-1.984,-2.0007,-1.9806,-2.0287,-2.0671,-2.091,-2.0671,-2.091,-2.1509,-2.1733,-2.1859,-2.1817,-2.2045,-2.1853,-2.1272,-2.0843,-2.0599,-2.0461,-1.9542,-1.9176,-1.907,-1.7983,-1.708,-1.6102,-1.4866,-1.386,-1.2716,-1.17,-1.0367,-0.8784,-0.6743,-0.4632,-0.2891,-0.187,-0.0387,0.1328,0.2695,0.4015,0.5584,0.817,0.9634,1.0932,1.2557,1.3841,1.5035,1.6485,1.7453,1.838,1.9475,1.9867,2.0338,2.0828,2.0992,2.1183,2.1539,2.1558,2.1466,2.1192,2.0849,2.0317,1.9574,1.9272,1.8863,1.8291,1.792,1.7576,1.7199,1.6491,1.5928,1.5674,1.5673,1.5581,1.5273,1.5696,1.58,1.5568,1.5223,1.4883,1.4713,1.4083,1.3905,1.4057,1.4161,1.4291,1.4398,1.4449,1.4687,1.4949,1.5048,1.525,1.5558,1.5969,1.6275,1.6436,-1.1459,-1.135,-1.135,-1.1678,-1.2005,-1.2332,-1.2327,-1.2441,-1.2517,-1.2952,-1.3421,-1.3841,-1.4076,-1.4906,-1.5604,-1.6166,-1.6751,-1.7485,-1.8305,-1.8765,-1.9004,-1.9366,-1.992,-2.0147,-1.9973,-2.0671,-2.1223,-2.1341,-2.1341,-2.1583,-2.2079,-2.227,-2.2288,-2.2428,-2.2479,-2.2391,-2.184,-2.1532,-2.1095,-2.0725,-1.9945,-1.9569,-1.9435,-1.8333,-1.7475,-1.6675,-1.5451,-1.4345,-1.3231,-1.2142,-1.0551,-0.8525,-0.6305,-0.4632,-0.3318,-0.2287,-0.0973,0.038,0.1971,0.3202,0.4643,0.7041,0.8748,1.0052,1.1405,1.2634,1.3788,1.5006,1.599,1.6948,1.8002,1.862,1.9066,1.9625,1.986,2.0024,2.0401,2.0356,2.0259,2.0206,1.9815,1.9374,1.8785,1.8517,1.8104,1.7595,1.71,1.6811,1.6661,1.6105,1.5684,1.542,1.5488,1.5438,1.5276,1.5422,1.5355,1.5111,1.4778,1.4522,1.4343,1.3876,1.3821,1.402,1.4057,1.4244,1.443,1.4627,1.4765,1.4949,1.5267,1.548,1.5614,1.6057,1.6275,1.6448,-1.1891,-1.1568,-1.1345,-1.1891,-1.2005,-1.2114,-1.2332,-1.2441,-1.2621,-1.316,-1.3527,-1.3841,-1.4416,-1.5219,-1.5886,-1.627,-1.734,-1.8096,-1.8342,-1.8687,-1.905,-1.9446,-1.9973,-2.0274,-2.0274,-2.1064,-2.1607,-2.1607,-2.1859,-2.2111,-2.2111,-2.2487,-2.2606,-2.2591,-2.2675,-2.2551,-2.2292,-2.2231,-2.1673,-2.0899,-2.0746,-2.0433,-1.9788,-1.8823,-1.8077,-1.7265,-1.5933,-1.482,-1.3798,-1.2321,-1.0309,-0.8004,-0.6308,-0.4935,-0.383,-0.2819,-0.1766,-0.0572,0.114,0.2398,0.3662,0.5703,0.7444,0.8994,1.0315,1.1312,1.2252,1.3492,1.4339,1.538,1.6798,1.7518,1.8144,1.8579,1.8937,1.9145,1.9131,1.915,1.9174,1.9318,1.8811,1.8399,1.8123,1.7615,1.7148,1.6811,1.6309,1.6045,1.6006,1.5537,1.5293,1.5303,1.5206,1.5274,1.5555,1.5047,1.4725,1.4609,1.4256,1.4073,1.4022,1.3855,1.3868,1.3962,1.414,1.4384,1.473,1.4787,1.4903,1.5108,1.5379,1.5558,1.5715,1.6069,1.6275,1.6405,-1.2005,-1.1891,-1.1896,-1.2223,-1.2327,-1.2332,-1.2436,-1.2441,-1.2621,-1.316,-1.3527,-1.3953,-1.4745,-1.5112,-1.5779,-1.6488,-1.7456,-1.8059,-1.8389,-1.8858,-1.9318,-1.9679,-2.0265,-2.0581,-2.0581,-2.1054,-2.1362,-2.1607,-2.1607,-2.1985,-2.248,-2.2606,-2.2731,-2.2981,-2.3032,-2.3003,-2.2864,-2.2429,-2.2118,-2.1814,-2.0837,-2.0316,-2.0033,-1.8816,-1.8015,-1.7289,-1.5915,-1.4848,-1.364,-1.1563,-1.0007,-0.8633,-0.7321,-0.5834,-0.442,-0.3365,-0.2038,-0.057,0.0841,0.1918,0.3031,0.464,0.5898,0.7268,0.9519,1.0695,1.1492,1.2612,1.3272,1.4094,1.5412,1.5896,1.6346,1.7266,1.7296,1.736,1.7705,1.7492,1.7224,1.7098,1.694,1.671,1.6531,1.651,1.6488,1.6538,1.5947,1.5556,1.5468,1.4754,1.4478,1.4611,1.4611,1.4611,1.4592,1.4609,1.4615,1.4609,1.4256,1.385,1.3407,1.3566,1.3668,1.3716,1.3962,1.415,1.4373,1.4673,1.4822,1.4914,1.5222,1.5435,1.5558,1.5792,1.6013,1.6275,-1.211,-1.2114,-1.2114,-1.2327,-1.2441,-1.2474,-1.2583,-1.2702,-1.299,-1.3551,-1.4009,-1.4463,-1.5151,-1.5396,-1.5789,-1.6609,-1.745,-1.8202,-1.8589,-1.9067,-1.9435,-1.9978,-2.0398,-2.0675,-2.0675,-2.0962,-2.1229,-2.1607,-2.1859,-2.2237,-2.2606,-2.2731,-2.2988,-2.3106,-2.3106,-2.3106,-2.3098,-2.2558,-2.2227,-2.1915,-2.0907,-2.033,-1.9924,-1.912,-1.8305,-1.743,-1.6568,-1.502,-1.3155,-1.1322,-1.0015,-0.8859,-0.7706,-0.6382,-0.4916,-0.3841,-0.261,-0.1328,0.0186,0.1184,0.2228,0.3832,0.4846,0.5946,0.8346,0.9417,1.0201,1.1044,1.1599,1.225,1.328,1.3682,1.416,1.5023,1.508,1.5189,1.5665,1.5417,1.5169,1.5178,1.5114,1.4967,1.4714,1.4763,1.4846,1.506,1.4814,1.4684,1.4784,1.4461,1.4341,1.4466,1.4279,1.4176,1.4232,1.3993,1.4053,1.4291,1.4062,1.3621,1.3152,1.342,1.3563,1.3716,1.3915,1.415,1.4419,1.4684,1.4811,1.4891,1.5255,1.548,1.5614,1.5824,1.6171,1.6618,-1.227,-1.2246,-1.2123,-1.2379,-1.2493,-1.2569,-1.2898,-1.3141,-1.3428,-1.3957,-1.4489,-1.4966,-1.5583,-1.5853,-1.6085,-1.6603,-1.7444,-1.8177,-1.8633,-1.9118,-1.9666,-2.0051,-2.0588,-2.0748,-2.0873,-2.0989,-2.1235,-2.1481,-2.2237,-2.248,-2.248,-2.2856,-2.3106,-2.3106,-2.2981,-2.2981,-2.2981,-2.2613,-2.2153,-2.1626,-2.0974,-2.0383,-1.9775,-1.9379,-1.8421,-1.7325,-1.7068,-1.515,-1.2566,-1.1294,-1.0087,-0.8873,-0.7898,-0.6723,-0.539,-0.4313,-0.327,-0.2075,-0.0648,0.0363,0.1332,0.3048,0.3886,0.4768,0.669,0.7903,0.8728,0.9331,0.9909,1.0431,1.1196,1.1603,1.2002,1.2676,1.2798,1.2949,1.3388,1.325,1.3075,1.3322,1.3322,1.3253,1.3001,1.3026,1.3083,1.3235,1.3489,1.3663,1.3817,1.3992,1.4108,1.4167,1.3846,1.3801,1.411,1.36,1.358,1.4096,1.3949,1.368,1.3194,1.3456,1.3645,1.3821,1.3926,1.4208,1.4581,1.473,1.4857,1.4926,1.5427,1.57,1.5858,1.6167,1.6617,1.7162,-1.2349,-1.2348,-1.2388,-1.2687,-1.2724,-1.2903,-1.3339,-1.3482,-1.3715,-1.4313,-1.4453,-1.4895,-1.5676,-1.6366,-1.685,-1.6894,-1.7292,-1.7614,-1.7651,-1.9076,-1.986,-1.9728,-2.0638,-2.1175,-2.1427,-2.1215,-2.1109,-2.1109,-2.1859,-2.2111,-2.2237,-2.2863,-2.3106,-2.3113,-2.2856,-2.2606,-2.2606,-2.2362,-2.1908,-2.1558,-2.0935,-2.0393,-1.9713,-1.8868,-1.7948,-1.6968,-1.6489,-1.4815,-1.2566,-1.1294,-1.0087,-0.8873,-0.81,-0.6965,-0.5676,-0.4799,-0.3673,-0.2402,-0.1449,-0.0355,0.0697,0.1738,0.2653,0.3515,0.4482,0.6058,0.7648,0.8654,0.9039,0.941,1.0058,1.0413,1.0784,1.1142,1.1233,1.1253,1.1405,1.1195,1.1157,1.1337,1.1687,1.1841,1.1833,1.2089,1.2256,1.2282,1.2402,1.2401,1.2386,1.2324,1.2494,1.2751,1.2697,1.3113,1.411,1.4185,1.4325,1.453,1.4583,1.4306,1.363,1.4022,1.4052,1.3821,1.3926,1.415,1.443,1.4684,1.4822,1.4902,1.5707,1.6115,1.6326,1.7111,1.746,1.7533,-1.2344,-1.2496,-1.2654,-1.2748,-1.2974,-1.3344,-1.3668,-1.4049,-1.4325,-1.4792,-1.5046,-1.5322,-1.5904,-1.648,-1.6956,-1.6919,-1.7277,-1.7485,-1.7485,-1.837,-1.9261,-1.9904,-2.0552,-2.1067,-2.1355,-2.1235,-2.1235,-2.1362,-2.1734,-2.1859,-2.2111,-2.2606,-2.2856,-2.3113,-2.2731,-2.2606,-2.2606,-2.1985,-2.168,-2.1498,-2.0713,-2.018,-1.9766,-1.8998,-1.7941,-1.6827,-1.5407,-1.423,-1.2974,-1.1568,-1.0281,-0.9313,-0.8304,-0.7163,-0.6025,-0.5084,-0.4065,-0.2888,-0.2052,-0.1137,-0.0173,0.0926,0.166,0.2367,0.3222,0.4278,0.5437,0.6827,0.7375,0.7715,0.8083,0.8348,0.8641,0.9045,0.895,0.8921,0.9323,0.9012,0.8865,0.9123,0.9394,0.9622,0.9858,1.0083,1.0508,1.1115,1.1256,1.1491,1.1923,1.1986,1.2149,1.2412,1.2413,1.2787,1.3654,1.3659,1.4045,1.4719,1.4952,1.4735,1.4076,1.4175,1.42,1.4188,1.4116,1.4244,1.4523,1.4754,1.5107,1.5473,1.6057,1.6516,1.7003,1.7676,1.7918,1.8004]},{"header":{"parameterUnit":"m.s-1","parameterCategory":1,"la1":30.6,"la2":28.766,"lo1":-90.7593,"lo2":-88.6598,"dy":0.0162,"dx":0.0183,"nx":116,"ny":114,"refTime":"2024-03-12T12:00:00:Z","depth":0,"parameterNumber":3,"parameterNumberName":"V-component_of_WINDS"},"data":[0.0,0.0,0.0,0.0,0.0,0.0,0.0,0.0,0.0,0.0,0.0,0.0,0.0,0.0,0.0,0.0,0.0,0.0,0.0,0.0,0.0,0.0,0.0,0.0,0.0,0.0,0.0,0.0,0.0,0.0,0.0,0.0,0.0,0.0,0.0,0.0,0.0,0.0,0.0,0.0,0.0,0.0,0.0,0.0,0.0,0.0,0.0,0.0,0.0,0.0,0.0,0.0,0.0,0.0,0.0,0.0,0.0,0.0,0.0,0.0,0.0,0.0,0.0,0.0,0.0,0.0,0.0,0.0,0.0,0.0,0.0,0.0,0.0,0.0,0.0,0.0,0.0,0.0,0.0,0.0,0.0,0.0,0.0,0.0,0.0,0.0,0.0,0.0,0.0,0.0,0.0,0.0,0.0,0.0,0.0,0.0,0.0,0.0,0.0,0.0,0.0,0.0,0.0,0.0,0.0,0.0,0.0,0.0,0.0,0.0,0.0,0.0,0.0,0.0,0.0,0.0,0.0,0.0,0.0,0.0,0.0,0.0,0.0,0.0,0.0,0.0,0.0,0.0,0.0,0.0,0.0,0.0,0.0,0.0,0.0,0.0,0.0,0.0,0.0,0.0,0.0,0.0,0.0,0.0,0.0,0.0,0.0,0.0,0.0,0.0,0.0,0.0,0.0,0.0,0.0,0.0,0.0,0.0,0.0,0.0,0.0,0.0,0.0,0.0,0.0,0.0,0.0,0.0,0.0,0.0,0.0,0.0,0.0,0.0,0.0,0.0,0.0,0.0,0.0,0.0,0.0,0.0,0.0,0.0,0.0,0.0,0.0,0.0,0.0,0.0,0.0,0.0,0.0,0.0,0.0,0.0,0.0,0.0,0.0,0.0,0.0,0.0,0.0,0.0,0.0,0.0,0.0,0.0,0.0,0.0,0.0,0.0,0.0,0.0,0.0,0.0,0.0,0.0,0.0,0.0,0.0,0.0,0.0,0.0,0.0,0.0,0.0,0.0,0.0,0.0,0.0,0.0,0.0,0.0,0.0,0.0,0.0,0.0,0.0,0.0,0.0,0.0,0.0,0.0,0.0,0.0,0.0,0.0,0.0,0.0,0.0,0.0,0.0,0.0,0.0,0.0,0.0,0.0,0.0,0.0,0.0,0.0,0.0,0.0,0.0,0.0,0.0,0.0,0.0,0.0,0.0,0.0,0.0,0.0,0.0,0.0,0.0,0.0,0.0,0.0,0.0,0.0,0.0,0.0,0.0,0.0,0.0,0.0,0.0,0.0,0.0,0.0,0.0,0.0,0.0,0.0,0.0,0.0,0.0,0.0,0.0,0.0,0.0,0.0,0.0,0.0,0.0,0.0,0.0,0.0,0.0,0.0,0.0,0.0,0.0,0.0,0.0,0.0,0.0,0.0,0.0,0.0,0.0,0.0,0.0,0.0,0.0,0.0,0.0,0.0,0.0,0.0,0.0,0.0,0.0,0.0,0.0,0.0,0.0,0.0,0.0,0.0,0.0,0.0,0.0,0.0,0.0,0.0,0.0,0.0,0.0,0.0,0.0,0.0,0.0,0.0,0.0,0.0,0.0,0.0,0.0,0.0,0.0,0.0,0.0,0.0,0.0,0.0,0.0,0.0,0.0,0.0,0.0,0.0,0.0,0.0,0.0,0.0,0.0,0.0,0.0,0.0,0.0,0.0,0.0,0.0,0.0,0.0,0.0,0.0,0.0,0.0,0.0,0.0,0.0,0.0,0.0,0.0,0.0,0.0,0.0,0.0,0.0,0.0,0.0,0.0,0.0,0.0,0.0,0.0,0.0,0.0,0.0,0.0,0.0,0.0,0.0,0.0,0.0,0.0,0.0,0.0,0.0,0.0,0.0,0.0,0.0,0.0,0.0,0.0,0.0,0.0,0.0,0.0,0.0,0.0,0.0,0.0,0.0,0.0,0.0,0.0,0.0,0.0,0.0,0.0,0.0,0.0,0.0,0.0,0.0,0.0,0.0,0.0,0.0,0.0,0.0,0.0,0.0,0.0,0.0,0.0,0.0,0.0,0.0,0.0,0.0,0.0,0.0,0.0,0.0,0.0,0.0,0.0,0.0,0.0,0.0,0.0,0.0,0.0,0.0,0.0,0.0,0.0,0.0,0.0,0.0,0.0,0.0,0.0,0.0,0.0,0.0,0.0,0.0,0.0,0.0,0.0,0.0,0.0,0.0,0.0,0.0,0.0,0.0,0.0,0.0,0.0,0.0,0.0,0.0,0.0,0.0,0.0,0.0,0.0,0.0,0.0,0.0,0.0,0.0,0.0,0.0,0.0,0.0,0.0,0.0,0.0,0.0,0.0,0.0,0.0,0.0,0.0,0.0,0.0,0.0,0.0,0.0,0.0,0.0,0.0,0.0,0.0,0.0,0.0,0.0,0.0,0.0,0.0,0.0,0.0,0.0,0.0,0.0,0.0,0.0,0.0,0.0,0.0,0.0,0.0,0.0,0.0,0.0,0.0,0.0,0.0,0.0,0.0,0.0,0.0,0.0,0.0,0.0,0.0,0.0,0.0,0.0,0.0,0.0,0.0,0.0,0.0,0.0,0.0,0.0,0.0,0.0,0.0,0.0,0.0,0.0,0.0,0.0,0.0,0.0,0.0,0.0,0.0,0.0,0.0,0.0,0.0,0.0,0.0,0.0,0.0,0.0,0.0,0.0,0.0,0.0,0.0,0.0,0.0,0.0,0.0,0.0,0.0,0.0,0.0,0.0,0.0,0.0,0.0,0.0,0.0,0.0,0.0,0.0,0.0,0.0,0.0,0.0,0.0,0.0,0.0,0.0,0.0,0.0,0.0,0.0,0.0,0.0,0.0,0.0,0.0,0.0,0.0,0.0,0.0,0.0,0.0,0.0,0.0,0.0,0.0,0.0,0.0,0.0,0.0,0.0,0.0,0.0,0.0,0.0,0.0,0.0,0.0,0.0,0.0,0.0,0.0,0.0,0.0,0.0,0.0,0.0,0.0,0.0,0.0,0.0,0.0,0.0,0.0,0.0,0.0,0.0,0.0,0.0,0.0,0.0,0.0,0.0,0.0,0.0,0.0,0.0,0.0,0.0,0.0,0.0,0.0,0.0,0.0,0.0,0.0,0.0,0.0,0.0,0.0,0.0,0.0,0.0,0.0,0.0,0.0,0.0,0.0,0.0,0.0,0.0,0.0,0.0,0.0,0.0,0.0,0.0,0.0,0.0,0.0,0.0,0.0,0.0,0.0,0.0,0.0,0.0,0.0,0.0,0.0,0.0,0.0,0.0,0.0,0.0,0.0,0.0,0.0,0.0,0.0,0.0,0.0,0.0,0.0,0.0,0.0,0.0,0.0,0.0,0.0,0.0,0.0,0.0,0.0,0.0,0.0,0.0,0.0,0.0,0.0,0.0,0.0,0.0,0.0,0.0,0.0,0.0,0.0,0.0,0.0,0.0,0.0,0.0,0.0,0.0,0.0,0.0,0.0,0.0,0.0,0.0,0.0,0.0,0.0,0.0,0.0,0.0,0.0,0.0,0.0,0.0,0.0,0.0,0.0,0.0,0.0,0.0,0.0,0.0,0.0,0.0,0.0,0.0,0.0,0.0,0.0,0.0,0.0,0.0,0.0,0.0,0.0,0.0,0.0,0.0,0.0,0.0,0.0,0.0,0.0,0.0,0.0,0.0,0.0,0.0,0.0,0.0,0.0,0.0,0.0,0.0,0.0,0.0,0.0,0.0,0.0,0.0,0.0,0.0,0.0,0.0,0.0,0.0,0.0,0.0,0.0,0.0,0.0,0.0,0.0,0.0,0.0,0.0,0.0,0.0,0.0,0.0,0.0,0.0,0.0,0.0,0.0,0.0,0.0,0.0,0.0,0.0,0.0,0.0,0.0,0.0,0.0,0.0,0.0,0.0,0.0,0.0,0.0,0.0,0.0,0.0,0.0,0.0,0.0,0.0,0.0,0.0,0.0,0.0,0.0,0.0,0.0,0.0,0.0,0.0,0.0,0.0,0.0,0.0,0.0,0.0,0.0,0.0,0.0,0.0,0.0,0.0,0.0,0.0,0.0,0.0,0.0,0.0,0.0,0.0,0.0,0.0,0.0,0.0,0.0,0.0,0.0,0.0,0.0,0.0,0.0,0.0,0.0,0.0,0.0,0.0,0.0,0.0,0.0,0.0,0.0,0.0,0.0,0.0,0.0,0.0,0.0,0.0,0.0,0.0,0.0,0.0,0.0,0.0,0.0,0.0,0.0,0.0,0.0,0.0,0.0,0.0,0.0,0.0,0.0,0.0,0.0,0.0,0.0,0.0,0.0,0.0,0.0,0.0,0.0,0.0,0.0,0.0,0.0,0.0,0.0,0.0,0.0,0.0,0.0,0.0,0.0,0.0,0.0,0.0,0.0,0.0,0.0,0.0,0.0,0.0,0.0,0.0,0.0,0.0,0.0,0.0,0.0,0.0,0.0,0.0,0.0,0.0,0.0,0.0,0.0,0.0,0.0,0.0,0.0,0.0,0.0,0.0,0.0,0.0,0.0,0.0,0.0,0.0,0.0,0.0,0.0,0.0,0.0,0.0,0.0,0.0,0.0,0.0,0.0,0.0,0.0,0.0,0.0,0.0,0.0,0.0,0.0,0.0,0.0,0.0,0.0,0.0,0.0,0.0,0.0,0.0,0.0,0.0,0.0,0.0,0.0,0.0,0.0,0.0,0.0,0.0,0.0,0.0,0.0,0.0,0.0,0.0,0.0,0.0,0.0,0.0,0.0,0.0,0.0,0.0,0.0,0.0,0.0,0.0,0.0,0.0,0.0,0.0,0.0,0.0,0.0,0.0,0.0,0.0,0.0,0.0,0.0,0.0,0.0,0.0,0.0,0.0,0.0,0.0,0.0,0.0,0.0,0.0,0.0,0.0,0.0,0.0,0.0,0.0,0.0,0.0,0.0,0.0,0.0,0.0,0.0,0.0,0.0,0.0,0.0,0.0,0.0,0.0,0.0,0.0,0.0,0.0,0.0,0.0,0.0,0.0,0.0,0.0,0.0,0.0,0.0,0.0,0.0,0.0,0.0,0.0,0.0,0.0,0.0,0.0,0.0,0.0,0.0,0.0,0.0,0.0,0.0,0.0,0.0,0.0,0.0,0.0,0.0,0.0,0.0,0.0,0.0,0.0,0.0,0.0,0.0,0.0,0.0,0.0,0.0,0.0,0.0,0.0,0.0,0.0,0.0,0.0,0.0,0.0,0.0,0.0,0.0,0.0,0.0,0.0,0.0,0.0,0.0,0.0,0.0,0.0,0.0,0.0,0.0,0.0,0.0,0.0,0.0,0.0,0.0,0.0,0.0,0.0,0.0,0.0,0.0,0.0,0.0,0.0,0.0,0.0,0.0,0.0,0.0,0.0,0.0,0.0,0.0,0.0,0.0,0.0,0.0,0.0,0.0,0.0,0.0,0.0,0.0,0.0,0.0,0.0,0.0,0.0,0.0,0.0,0.0,0.0,0.0,0.0,0.0,0.0,0.0,0.0,0.0,0.0,0.0,0.0,0.0,0.0,0.0,0.0,0.0,0.0,0.0,0.0,0.0,0.0,0.0,0.0,0.0,0.0,0.0,0.0,0.0,0.0,0.0,0.0,0.0,0.0,0.0,0.0,0.0,0.0,0.0,0.0,0.0,0.0,0.0,0.0,0.0,0.0,0.0,0.0,0.0,0.0,0.0,0.0,0.0,0.0,0.0,0.0,0.0,0.0,0.0,0.0,0.0,0.0,0.0,0.0,0.0,0.0,0.0,0.0,0.0,0.0,0.0,0.0,0.0,0.0,0.0,0.0,0.0,0.0,0.0,0.0,0.0,0.0,0.0,0.0,0.0,0.0,0.0,0.0,0.0,0.0,0.0,0.0,0.0,0.0,0.0,0.0,0.0,0.0,0.0,0.0,0.0,0.0,0.0,0.0,0.0,0.0,0.0,0.0,0.0,0.0,0.0,0.0,0.0,0.0,0.0,0.0,0.0,0.0,0.0,0.0,0.0,0.0,0.0,0.0,0.0,0.0,0.0,0.0,0.0,0.0,0.0,0.0,0.0,0.0,0.0,0.0,0.0,0.5486,0.0,0.0,0.0,0.0,0.0,0.0,0.0,0.0,0.0,0.0,0.0,0.0,0.0,0.0,0.0,0.0,0.0,0.0,0.0,0.0,0.0,0.0,0.0,0.0,0.0,0.0,0.0,0.9174,0.8937,0.8811,0.9018,0.9285,0.9614,1.0135,1.051,1.0683,1.0726,1.0944,1.1305,1.0794,1.0355,0.9955,0.8969,0.7832,0.6534,0.0,0.0,0.0,0.0,0.0,0.0,0.0,0.0,0.0,0.0,0.0,0.0,0.0,0.0,0.0,0.0,0.0,0.0,0.0,0.0,0.0,0.0,0.0,0.0,0.0,0.0,0.0,0.0,0.0,0.0,0.0,0.0,0.0,0.0,0.0,0.0,0.0,0.0,0.0,0.0,0.0,0.0,0.0,0.0,0.0,0.0,0.0,0.0,0.0,0.0,0.0,0.0,0.0,0.0,0.0,0.0,0.0,0.0,0.0,0.0,0.0,0.0,0.0,0.0,0.0,0.0,0.0,0.0,0.0,0.0,0.0,0.6303,0.0,0.0,0.0,0.0,0.0,0.0,0.0,0.0,0.0,0.0,0.0,0.0,0.0,0.0,0.0,0.0,0.0,0.0,0.0,0.0,0.0,0.0,0.0,0.9033,0.8932,0.8896,0.8679,0.8477,0.8298,0.8344,0.8752,0.9521,0.9777,1.0148,1.0704,1.073,1.1094,1.1875,1.1204,1.0657,1.0277,0.9625,0.86,0.0,0.0,0.0,0.0,0.0,0.0,0.0,0.0,0.0,0.0,0.0,0.0,0.0,0.0,0.0,0.0,0.0,0.0,0.0,0.0,0.0,0.0,0.0,0.0,0.0,0.0,0.0,0.0,0.0,0.0,0.0,0.0,0.0,0.0,0.0,0.0,0.0,0.0,0.0,0.0,0.0,0.0,0.0,0.0,0.0,0.0,0.0,0.0,0.0,0.0,0.0,0.0,0.0,0.0,0.0,0.0,0.0,0.0,0.0,0.0,0.0,0.0,0.0,0.0,0.0,0.4197,0.4917,0.611,0.6826,0.7522,0.8199,0.8396,0.8174,0.7699,0.7849,0.0,0.0,0.0,0.0,0.0,0.0,0.0,0.0,0.0,0.0,0.0,0.0,0.0,0.0,0.0,0.0,0.0,0.0,0.0,0.0,0.0,0.9292,0.923,0.854,0.8344,0.8156,0.7879,0.7956,0.8189,0.8653,0.9455,0.9949,1.0034,1.0765,1.1341,1.1726,1.1541,1.1353,1.1113,1.0229,0.9565,0.9006,0.0,0.0,0.0,0.0,0.0,0.0,0.0,0.0,0.0,0.0,0.0,0.0,0.0,0.0,0.0,0.0,0.0,0.0,0.0,0.0,0.0,0.0,0.0,0.0,0.0,0.0,0.0,0.0,0.0,0.0,0.0,0.0,0.0,0.0,0.0,0.0,0.0,0.0,0.0,0.0,0.0,0.0,0.0,0.0,0.0714,0.2297,0.0,0.0,0.0,0.0,0.0,0.0,0.0,0.0,0.0,0.0,0.0,0.0,0.0,1.1071,0.9728,0.92,0.8502,0.7618,0.8048,0.8447,0.8827,1.0012,1.0676,1.0925,1.1625,0.0,0.7681,0.8422,0.0,0.0,0.0,0.0,0.0,0.0,0.0,0.0,0.0,0.0,0.0,0.0,0.0,0.0,0.0,0.0,0.0,0.0,0.0,0.0,0.0,0.9653,0.9262,0.8728,0.8445,0.8127,0.7705,0.8042,0.8558,0.9301,0.9945,1.0564,1.1124,1.1575,1.1838,1.1921,1.2263,1.2117,1.1475,1.0886,1.0335,0.9723,0.842,0.7355,0.645,0.5526,0.0,0.0,0.0,0.0,0.0,0.0,0.0,0.0,0.0,0.0,0.0,0.0,0.0,0.0,0.0,0.0,0.0,0.0,0.0,0.0,0.0,0.0,0.0,0.0,0.0,0.0,0.0,0.0,0.0,0.0,0.0,0.0,0.0,0.0,0.0,0.0,0.0,0.0,0.0,0.0704,0.1422,0.2582,0.4444,0.6273,0.0,0.0,0.0,0.0,0.0,0.0,0.0,0.0,0.0,1.7776,1.6039,1.4766,1.4023,1.2412,1.1426,1.1057,1.0683,1.0893,1.1641,1.2306,1.2916,1.3497,1.384,1.3169,1.1763,1.1201,1.098,1.1017,0.0,0.0,0.0,0.0,1.124,1.0858,0.0,0.0,0.0,0.0,0.0,0.0,0.0,0.0,0.0,0.0,0.0,0.0,1.0305,0.9995,0.9532,0.9058,0.8739,0.8372,0.7935,0.8333,0.8987,0.987,1.0348,1.1025,1.1988,1.2365,1.2508,1.2425,1.2839,1.2647,1.1882,1.1558,1.1113,1.0544,0.9653,0.8469,0.6963,0.6121,0.5498,0.0,0.0,0.0,0.0,0.0,0.0,0.0,0.0,0.0,0.0,0.0,0.0,0.0,0.0,0.0,0.0,0.0,0.0,0.0,0.0,0.0,0.0,0.0,0.0,0.0,0.0,0.0,0.0,0.0,0.0,0.0,0.0,0.0,0.0,0.0,0.0,0.0,0.0,0.1659,0.2069,0.3006,0.4956,0.6905,0.0,0.0,0.0,0.0,0.0,0.0,1.939,2.0365,2.0778,2.0433,1.9122,1.8266,1.7899,1.5762,1.4658,1.4618,1.369,1.3682,1.4506,1.4634,1.5062,1.5721,1.5685,1.5654,1.5532,1.3882,1.3201,1.3207,1.3212,1.3169,1.3093,1.2852,1.274,1.2632,0.0,0.0,0.0,0.0,0.0,0.0,0.0,0.0,0.0,0.0,0.0,0.9777,0.9843,1.0321,1.0281,0.9365,0.9097,0.8892,0.8744,0.8821,0.9128,0.9682,1.0211,1.0883,1.17,1.2787,1.3315,1.3251,1.3012,1.2854,1.2712,1.2217,1.1953,1.188,1.1004,0.9525,0.757,0.64,0.5749,0.5438,0.0,0.0,0.0,0.0,0.0,0.0,0.0,0.0,0.0,0.0,0.0,0.0,0.0,0.0,0.0,0.0,0.0,0.0,0.0,0.0,0.0,0.0,0.0,0.0,0.0,0.0,0.0,0.0,0.0,0.0,0.0,0.0,0.0,0.0,0.0,0.0,0.0,0.0,0.0,0.3779,0.5828,0.0,0.0,0.0,0.0,1.6055,1.9102,2.116,2.1695,2.2507,2.2864,2.2658,2.1872,2.1189,2.0609,1.9728,1.9024,1.8515,1.7758,1.7439,1.748,1.7426,1.7382,1.7371,1.7245,1.7183,1.7071,1.551,1.4886,1.4878,1.4874,1.4844,1.4684,1.3847,1.3499,1.3318,0.0,0.0,0.0,0.0,0.0,0.0,0.0,0.0,0.8196,0.8693,0.904,0.954,1.034,1.0255,1.01,1.0007,0.9856,0.9662,0.9405,0.965,1.0136,1.0884,1.1279,1.1895,1.2771,1.3484,1.3808,1.3697,1.3374,1.3331,1.3556,1.3115,1.2782,1.2565,1.1927,1.1032,0.9921,0.8379,0.7217,0.6423,0.577,0.5178,0.0,0.0,0.0,0.0,0.0,0.0,0.0,0.0,0.0,0.0,0.0,0.0,0.0,0.0,0.0,0.0,0.0,0.0,0.0,0.0,0.0,0.0,0.0,0.0,0.0,0.0,0.0,0.0,0.0,0.0,0.0,0.0,0.0,0.0,0.0,0.0,0.0,0.57,0.777,0.0,1.1541,1.4466,1.6967,1.8646,2.0873,2.2488,2.3214,2.3964,2.4354,2.4276,2.3511,2.3024,2.2851,2.1507,2.0752,2.0596,1.9779,1.9605,2.0005,1.9958,2.0143,2.0521,2.0433,2.038,2.0335,1.9763,1.8313,1.6488,1.6489,1.6411,1.6279,1.5977,1.5789,1.5636,0.0,0.0,0.0,0.0,0.0,0.0,0.0,0.0,0.8101,0.8718,0.9044,0.9515,1.0208,1.0045,1.001,1.0372,1.0234,1.0182,1.0288,1.0572,1.1061,1.1732,1.2229,1.2781,1.3416,1.3944,1.4275,1.4361,1.3867,1.3955,1.4581,1.3956,1.3653,1.3631,1.3195,1.2685,1.2154,1.0805,0.9232,0.7609,0.697,0.6394,0.5882,0.0,0.0,0.0,0.0,0.0,0.0,0.0,0.0,0.0,0.0,0.0,0.0,0.0,0.0,0.0,0.0,0.0,0.0,0.0,0.0,0.0,0.0,0.0,0.0,0.0,0.0,0.0,0.0,0.0,0.0,0.0,0.0,0.0,0.0,0.0,0.6582,0.7429,0.946,1.149,1.3361,1.5966,1.8371,2.0428,2.1989,2.332,2.4456,2.4962,2.5381,2.5665,2.5169,2.5038,2.539,2.3987,2.33,2.3308,2.2391,2.2169,2.253,2.24,2.2402,2.254,2.238,2.2187,2.193,2.1879,2.0633,1.8756,1.8839,1.8782,1.8619,1.8056,1.7767,1.7595,0.0,0.0,0.0,0.0,0.0,0.0,0.0,0.7313,0.7759,0.8483,0.9329,0.9716,0.9334,0.9715,1.0082,1.0346,1.0144,1.0435,1.1424,1.1555,1.1761,1.2122,1.2984,1.3473,1.3508,1.4104,1.4711,1.5276,1.4435,1.4633,1.5811,1.4758,1.4596,1.5154,1.474,1.4438,1.4145,1.361,1.1768,0.9115,0.8324,0.8031,0.7941,0.0,0.0,0.0,0.0,0.0,0.0,0.0,0.0,0.0,0.0,0.0,0.0,0.0,0.0,0.0,0.0,0.0,0.0,0.0,0.0,0.0,0.0,0.0,0.0,0.0,0.0,0.0,0.0,0.0,0.0,0.0,0.0,0.0,0.7168,0.7012,0.7668,0.896,1.0839,1.2668,1.4315,1.6779,1.9125,2.1174,2.2347,2.3735,2.5448,2.557,2.5969,2.6813,2.6843,2.7244,2.8083,2.7267,2.6792,2.6715,2.5736,2.5203,2.505,2.4707,2.412,2.3295,2.3033,2.2465,2.1735,2.1717,2.1698,2.1716,2.1835,2.185,2.1599,1.9973,1.9305,1.9002,0.0,0.0,0.0,0.0,0.0,0.0,0.0,0.7138,0.7778,0.8109,0.8887,0.9295,0.903,0.9478,0.9713,0.954,0.9899,1.0573,1.1571,1.158,1.1988,1.2991,1.4007,1.4315,1.3731,1.4366,1.4699,1.4718,1.438,1.4903,1.6223,1.5764,1.5943,1.6627,1.6348,1.6145,1.5951,1.5528,1.4689,1.3529,1.1157,0.9954,0.9492,0.0,0.0,0.0,0.0,0.0,0.0,0.0,0.0,0.0,0.0,0.0,0.0,0.0,0.0,0.0,0.0,0.0,0.0,0.0,0.0,0.0,0.0,0.0,0.0,0.0,0.0,0.0,0.0,0.0,0.0,0.0,0.0,1.1513,0.9399,1.0237,1.1318,1.1967,1.3597,1.5065,1.6107,1.8383,2.0447,2.1989,2.367,2.5175,2.6381,2.7036,2.7498,2.7732,2.7747,2.783,2.8019,2.7686,2.7503,2.7411,2.695,2.6639,2.6437,2.6246,2.5966,2.5603,2.546,2.5269,2.4972,2.4327,2.407,2.391,2.2374,2.1714,2.1589,2.1133,2.0534,1.9937,0.0,0.0,0.0,0.0,0.0,0.0,0.0,0.6454,0.7205,0.8021,0.8245,0.8398,0.8638,0.8524,0.8605,0.9036,0.9719,1.0656,1.1936,1.2381,0.0,0.0,0.0,1.4498,1.4059,1.4431,1.4737,1.4927,1.45,1.5207,1.6953,1.6513,1.6876,1.7882,1.7759,1.7641,1.7531,1.7165,1.6851,1.6426,1.4606,1.3011,1.1622,1.0635,1.0258,1.0316,1.0545,1.1301,1.2503,1.4457,0.0,0.0,0.0,0.0,0.0,0.0,0.0,0.0,0.0,0.0,0.0,0.0,0.0,0.0,0.0,0.0,0.0,0.0,0.0,0.0,0.0,0.0,0.0,0.0,1.3911,1.3704,1.2497,1.2765,1.3315,1.3998,1.5112,1.6369,1.7725,1.9345,2.1139,2.3137,2.4465,2.5764,2.7144,2.7738,2.8178,2.8553,2.8884,2.9191,2.9465,2.9696,2.9736,2.958,2.9401,2.9176,2.8924,2.8793,2.8246,2.7401,2.7289,2.6814,2.6116,2.5623,2.5221,0.0,0.0,0.0,0.0,0.0,2.144,2.0733,0.0,0.0,0.0,0.0,0.0,0.0,0.0,0.5578,0.6387,0.7971,0.7559,0.7393,0.8106,0.7413,0.7344,0.8475,0.9414,1.0667,1.2358,1.3541,0.0,1.4515,1.443,1.4412,1.4481,1.4453,1.4774,1.5447,1.4719,1.5502,1.7662,1.6995,1.7486,1.8913,1.8913,1.888,1.8809,1.856,1.839,1.8252,1.8003,1.6452,1.415,1.2775,1.2308,1.2422,1.262,1.272,1.3102,1.5226,0.0,0.0,0.0,0.0,0.0,0.0,0.0,0.0,0.0,0.0,0.0,0.0,0.0,0.0,0.0,0.0,0.0,0.0,0.0,0.0,0.0,0.0,0.0,0.0,1.6014,1.6201,1.6053,1.5077,1.4689,1.551,1.6088,1.718,1.9161,2.0103,2.166,2.4265,2.505,2.6166,2.7948,0.0,0.0,0.0,0.0,3.096,3.1603,3.2214,3.2419,3.2166,3.2066,3.1874,3.156,3.1427,3.0483,2.8941,2.8763,2.7769,2.6312,2.6272,2.5751,2.4866,2.4089,2.3789,2.3692,2.2965,2.215,2.1426,0.0,0.0,0.0,0.0,0.0,0.0,0.0,0.5319,0.6253,0.727,0.7319,0.7302,0.741,0.7812,0.7658,0.6639,0.8469,1.042,1.215,0.0,1.4691,1.4738,1.4774,1.4828,1.4871,1.4837,1.4894,1.5106,1.4894,1.5696,1.7454,1.7264,1.807,1.9687,1.9639,1.9592,1.9583,1.9468,1.938,1.9301,1.9198,1.8172,1.6641,1.5866,1.553,1.5407,1.5072,1.5575,1.6494,1.7169,1.7792,1.8355,1.878,0.0,0.0,0.0,0.0,0.0,0.0,0.0,0.0,0.0,0.0,0.0,0.0,0.0,0.0,0.0,0.0,0.0,0.0,0.0,0.0,1.8314,1.8676,1.8913,1.8825,1.8608,1.8225,1.7646,1.8362,1.9286,2.024,2.1874,2.3272,2.4264,2.6512,2.8339,2.9518,3.0247,3.1035,3.1905,3.2042,3.214,3.2229,3.2147,3.2068,3.1963,0.0,0.0,3.1352,3.1217,3.0921,3.0468,3.0358,2.9763,2.8748,2.8129,2.7018,2.5626,2.419,2.3652,2.3611,2.3383,2.2807,2.2218,0.0,0.0,0.0,0.0,0.0,0.0,0.0,0.4935,0.5646,0.6496,0.625,0.6165,0.6593,0.6612,0.6637,0.6742,0.9386,1.1624,0.0,1.4242,1.4961,1.4997,1.503,1.5076,1.5094,1.5063,1.5274,1.5744,1.5725,1.6557,1.8194,1.8193,1.8877,2.0095,2.007,2.0029,2.0009,2.039,2.0522,2.0535,2.0897,2.0637,1.9817,1.8025,1.7072,1.6772,1.7377,1.7773,1.821,1.9627,2.0053,2.0094,2.0671,2.0332,1.9834,0.0,0.0,0.0,0.0,0.0,0.0,0.0,0.0,0.0,0.0,0.0,0.0,0.0,0.0,1.9522,1.8968,0.0,2.0013,1.9832,1.9921,1.9976,1.9874,2.0202,2.0073,1.9088,1.9519,2.0221,2.1079,2.2597,2.406,2.5274,2.7195,2.8913,3.0333,3.0856,3.1497,3.2384,3.2749,3.2902,3.2806,3.3058,3.309,3.2871,3.2723,3.2535,3.23,3.2244,3.1895,3.1355,3.1373,3.0866,2.9944,2.9175,2.821,2.7069,2.5754,2.4801,2.4129,2.4082,2.3786,2.3478,0.0,0.0,0.0,0.0,0.0,0.0,0.0,0.4637,0.5039,0.5678,0.5128,0.5012,0.5957,0.5451,0.5768,0.7612,1.0548,0.0,0.0,1.4608,1.5164,1.5245,1.5236,1.5327,1.5493,1.5472,1.5916,1.6797,1.6781,1.754,1.9017,1.9058,1.9492,2.0253,2.0382,2.0408,2.0392,2.1175,2.1523,2.1565,2.2237,2.2525,2.2291,1.9938,1.8689,1.8376,1.9732,1.9865,1.9729,2.1789,2.2226,2.203,2.2781,2.2096,2.1166,2.183,2.1442,0.0,0.0,0.0,0.0,0.0,0.0,0.0,0.0,0.0,2.185,2.1025,2.133,2.1515,2.0712,2.1096,2.1474,2.1342,2.1292,2.1171,2.0892,2.143,2.1515,2.0668,2.0628,2.1053,2.2062,2.3259,2.4689,2.6417,2.7619,2.9054,3.0859,3.1013,3.1541,3.2577,3.3212,3.3487,3.3377,3.3981,3.4099,3.3753,3.3726,3.3577,3.3262,3.3262,3.2823,3.2025,3.196,3.147,3.0672,2.9922,2.9211,2.8506,2.7646,2.6384,2.5042,2.4864,2.4736,2.466,0.0,0.0,0.0,0.0,0.0,0.0,0.0,0.0,0.4826,0.493,0.4693,0.4886,0.5823,0.5878,0.6642,0.8568,0.0,0.0,1.2873,1.4394,1.5312,1.5373,1.5373,1.5745,1.651,1.6466,1.6906,1.7822,1.7771,1.8203,1.9087,1.9036,1.937,2.0061,2.0718,2.0949,2.0881,2.1623,2.1923,2.1953,2.2113,2.2221,2.2325,2.2176,2.2087,2.2108,2.2342,2.2387,2.2366,2.2668,2.3173,2.3721,2.3763,2.3724,2.3659,2.3572,0.0,2.2684,2.3428,2.4837,2.5885,2.5107,2.4847,2.4569,0.0,0.0,2.2032,2.18,2.2244,2.257,2.2285,2.3267,2.4042,2.3917,2.4384,2.447,2.3665,2.3648,2.3611,2.3399,2.2706,2.2657,2.3737,2.4699,2.5778,2.7018,2.8166,2.9596,3.1409,3.1566,3.2362,3.4004,3.4035,3.4,3.4,3.3891,3.378,3.3633,3.3509,3.3316,3.3117,3.3117,3.3019,3.28,3.2072,3.1684,3.1492,3.0707,2.9911,2.9187,2.8918,2.7829,2.6317,2.5703,2.5376,2.5232,0.0,0.0,0.0,0.0,0.0,0.0,0.0,0.0,0.0,0.3525,0.4187,0.4778,0.505,0.6184,0.7259,0.8074,0.0,0.0,1.2676,1.3867,1.4785,1.5312,1.5875,1.6323,1.6696,1.7127,1.7793,1.8704,1.8625,1.8997,1.974,2.0029,2.0221,2.0378,2.0928,2.109,2.1031,2.2116,2.2557,2.2611,2.3657,2.3897,2.3682,2.4043,2.4338,2.4529,2.4367,2.4638,0.0,0.0,2.588,2.6096,2.606,2.5726,2.5309,2.5265,2.5077,0.0,2.5983,2.6732,0.0,0.0,2.6562,2.6313,2.5804,2.5314,2.4906,2.4728,2.4447,2.4304,2.4545,2.4651,2.4622,0.0,2.4619,2.4445,2.3493,2.3692,2.3888,2.3777,2.3841,2.4104,2.4694,2.5666,2.649,2.7038,2.8098,2.9509,3.1268,3.1458,3.2312,3.4018,3.446,3.4426,3.3921,3.4779,3.4603,3.3441,3.3786,3.3628,3.2961,3.2961,3.2979,3.2979,3.2545,3.2371,3.2367,3.187,3.119,3.0468,3.0311,2.9236,2.7622,2.6588,2.6058,2.5917,0.0,0.0,0.0,0.0,0.0,0.0,0.0,0.0,0.0,0.0,0.3593,0.4751,0.4621,0.6171,0.7307,0.0,0.0,0.0,0.0,1.3483,1.437,1.5256,1.595,1.6538,1.7023,1.7582,1.8408,1.951,1.9643,1.9934,2.0395,2.0903,2.0952,2.0604,2.1166,2.1253,2.105,2.2339,2.2832,2.2909,2.4242,2.4637,2.4486,2.509,2.582,2.6412,2.5855,2.6198,0.0,0.0,2.7994,2.8278,2.8241,2.7785,2.7338,2.7585,2.7573,2.7637,2.8357,0.0,0.0,2.8089,2.7875,2.7642,2.7219,2.7045,2.6896,2.6698,2.6096,2.5692,2.6031,2.5745,2.5386,2.5187,2.5243,2.4971,2.3946,2.4202,2.4464,2.4368,2.4913,2.5443,2.5836,2.6395,2.6888,2.7264,2.8065,2.9308,3.1037,3.1232,3.2085,3.376,3.4376,3.4477,3.4083,3.5209,3.5053,3.3617,3.4127,3.3858,3.2916,3.2884,3.3009,3.3205,3.2862,3.2722,3.2787,3.2557,3.1964,3.1194,3.1078,3.0124,2.8704,2.7753,2.7056,2.6584,0.0,0.0,0.0,0.0,0.0,0.0,0.0,0.0,0.0,0.0,0.0,0.0,0.0,0.0,0.0,0.0,0.0,0.0,0.0,1.3419,1.4314,1.5251,1.5333,1.6136,1.7823,1.7824,1.861,2.0274,2.0916,2.1119,2.0891,2.1282,2.1133,2.0556,2.1558,2.1585,2.0969,2.2112,2.2566,2.2547,2.2857,2.3391,2.4139,2.505,2.6461,2.7791,2.6674,0.0,0.0,0.0,2.8684,3.0011,2.988,2.9912,0.0,3.0839,3.0638,0.0,0.0,0.0,2.9998,2.9022,2.8662,2.8296,2.7249,2.6897,2.678,2.6636,2.6472,2.6304,2.6139,2.6651,2.7046,2.6783,2.7264,2.7315,2.6254,2.6078,2.6036,2.604,2.6165,2.6596,0.0,2.697,2.6979,2.7908,2.8246,2.9134,3.0812,3.1039,3.1874,3.355,3.3623,3.4006,3.4772,3.4739,3.4619,3.4362,3.4317,3.3795,3.2884,3.2838,3.3166,3.3739,3.2858,3.2507,3.2489,3.237,3.1777,3.0924,3.0924,3.0249,2.93,2.9369,2.8523,2.7279,0.0,0.0,0.0,0.0,0.0,0.0,0.0,0.0,0.0,0.0,0.0,0.0,0.0,0.0,0.0,0.0,0.0,0.0,0.0,1.2228,1.3451,1.4332,1.5513,1.6448,1.7027,1.8053,1.8852,1.936,2.0527,2.0923,2.0589,2.1294,2.1429,2.111,2.1323,2.1224,2.1015,2.1836,2.1953,2.1701,2.3005,2.3522,2.3751,2.5572,2.7223,2.8685,0.0,0.0,0.0,0.0,3.1468,3.1872,3.173,3.1718,0.0,3.206,3.1977,3.1832,3.1832,0.0,3.099,3.1097,3.0184,2.9269,2.9302,2.8802,2.8261,2.8054,2.7458,2.7097,2.7489,2.6823,2.616,2.6039,2.572,2.5277,2.475,2.5149,2.5669,2.6113,2.671,0.0,0.0,0.0,0.0,2.7968,2.8607,2.9515,3.0697,3.134,3.2231,3.3444,3.393,3.4093,3.3851,3.4762,3.4636,3.3387,3.3259,3.3019,3.2705,3.2623,3.2716,3.2911,3.2476,3.2284,3.2284,3.2126,3.1827,3.1476,3.1386,3.0829,2.9997,2.9997,2.9383,2.851,0.0,0.0,0.0,0.0,0.0,0.0,0.0,0.0,0.0,0.0,0.0,0.0,0.0,0.0,0.0,0.0,0.0,0.0,0.0,0.0,1.2661,1.3883,1.5043,1.5945,1.6555,1.7583,1.8387,1.893,2.0021,2.0521,2.0418,2.1242,2.1429,2.1097,2.114,2.0961,2.0741,2.1172,2.1111,2.0838,2.224,2.3083,2.3725,2.6168,2.821,0.0,0.0,0.0,0.0,3.3917,3.4044,3.4199,3.3761,3.3599,3.3505,3.3203,3.3077,3.3064,3.3035,3.2357,3.1665,3.1714,3.0788,2.9839,2.9806,2.9245,2.8682,2.8456,2.7931,2.7655,2.8156,2.7353,2.6579,2.6481,2.5959,2.5516,2.5268,2.5686,2.622,2.669,2.7225,2.7569,0.0,0.0,0.0,2.8329,2.8969,2.988,3.1022,3.1685,3.2391,3.3268,3.3731,3.3862,3.3689,3.4555,3.4393,3.3229,3.2781,3.2698,3.2877,3.2545,3.2511,3.2722,3.2284,3.2073,3.2037,3.1875,3.1728,3.1634,3.1542,3.1117,3.0611,3.0501,3.0217,2.968,0.0,0.0,0.0,0.0,0.0,0.0,0.0,0.0,0.0,0.0,0.0,0.0,0.0,0.0,0.0,0.0,0.0,0.0,0.0,0.0,0.0,1.3859,1.3965,1.4761,1.6395,1.6506,1.7326,1.8901,1.9542,2.002,2.0344,2.1096,2.1116,2.051,2.0896,2.0713,2.0121,2.0124,2.0067,2.0004,2.0818,2.2189,2.407,2.681,0.0,0.0,0.0,0.0,0.0,0.0,0.0,0.0,0.0,3.5554,3.522,3.437,3.4056,3.3939,3.3821,3.3052,3.2034,3.099,3.0472,2.9916,2.8814,2.829,2.8029,2.7844,2.788,2.7926,0.0,0.0,2.8112,2.7971,2.7837,2.767,2.756,2.7547,2.7624,0.0,0.0,0.0,0.0,0.0,0.0,2.8999,0.0,3.0198,3.1721,3.1942,3.2367,3.3068,3.3011,3.3337,3.4103,3.4074,3.3942,3.3703,3.2876,3.2774,3.3298,3.2511,3.2527,3.3099,3.2243,3.1839,3.18,3.1671,3.1466,3.1295,3.1295,3.1196,3.1015,3.1015,3.1015,3.0752,0.0,0.0,0.0,0.0,0.0,0.0,0.0,0.0,0.0,0.0,0.0,0.0,0.0,0.0,0.0,0.0,0.0,0.0,0.0,0.0,0.0,0.0,0.0,0.0,0.0,0.0,0.0,0.0,0.0,2.0236,1.9536,2.0404,2.02,1.9049,1.9361,1.9178,1.8661,1.9283,1.9419,1.9396,0.0,2.2962,2.5067,0.0,0.0,0.0,0.0,0.0,0.0,0.0,0.0,0.0,0.0,3.7575,3.635,3.6022,3.5392,3.4617,3.379,3.2843,3.1965,3.1504,3.0142,2.8996,2.9089,2.8429,2.7595,2.6842,2.7251,2.7613,0.0,0.0,0.0,2.7086,2.6145,0.0,2.6851,2.7075,0.0,2.7869,0.0,2.7996,2.7836,2.8394,0.0,0.0,2.9968,3.0551,3.1591,3.2165,3.2606,3.293,3.2802,3.2844,3.3155,3.2991,3.2823,3.2617,3.2371,3.2319,3.244,3.2052,3.2033,3.2225,3.1795,3.1634,3.1617,3.1576,3.1445,3.1295,3.1252,3.119,3.1151,3.1015,3.1055,3.0954,0.0,0.0,0.0,0.0,0.0,0.0,0.0,0.0,0.0,0.0,0.0,0.0,0.0,0.0,0.0,0.0,0.0,0.0,0.0,0.0,0.0,0.0,0.0,0.0,0.0,0.0,0.0,0.0,0.0,0.0,0.0,1.9469,1.9127,1.8257,1.8278,1.8328,1.8409,0.0,0.0,0.0,0.0,0.0,0.0,0.0,0.0,0.0,0.0,0.0,0.0,0.0,0.0,4.0257,4.0214,3.8684,3.6872,3.6735,0.0,3.4865,3.3791,3.2987,3.2203,3.1162,2.9828,2.864,2.8177,2.7724,2.7174,2.6398,2.6969,0.0,0.0,0.0,0.0,0.0,0.0,0.0,2.6774,2.6952,2.7281,0.0,2.8126,0.0,2.7893,2.8629,2.9347,0.0,3.0529,3.1172,3.1933,3.2376,3.2639,3.277,3.259,3.2523,3.2541,3.2473,3.2371,3.2144,3.2144,3.2073,3.1965,3.1783,3.1728,3.1765,0.0,3.15,3.1466,3.1445,3.1329,3.1157,3.1134,3.1072,3.0992,3.0935,3.1015,3.0982,0.0,0.0,0.0,0.0,0.0,0.0,0.0,0.0,0.0,0.0,0.0,0.0,0.0,0.0,0.0,0.0,0.0,0.0,0.0,0.0,0.0,0.0,0.0,0.0,0.0,0.0,0.0,0.0,0.0,0.0,0.0,0.0,0.0,0.0,0.0,0.0,0.0,0.0,0.0,0.0,0.0,0.0,0.0,0.0,0.0,0.0,0.0,0.0,0.0,0.0,4.4861,4.157,4.1408,3.9427,3.7133,3.6993,3.6078,3.4843,3.3639,3.3053,3.2284,3.0167,2.9179,2.8299,2.6638,2.6588,2.6678,2.6048,0.0,2.7491,2.7447,2.7741,2.7761,2.7075,0.0,2.6923,2.7004,2.6996,2.7264,2.7932,2.8055,2.8071,2.8014,2.8629,2.9329,2.9895,3.0868,3.1729,3.2454,3.2557,3.2573,3.2539,3.2439,3.2319,3.2179,3.2319,3.2267,3.2108,3.2073,3.1965,3.1763,3.1634,3.1542,3.1542,3.1462,3.1385,3.1295,3.1274,3.1157,3.1015,3.0975,3.0855,3.0733,3.0871,3.0925,3.0842,0.0,0.0,0.0,0.0,0.0,0.0,0.0,0.0,0.0,0.0,0.0534,0.2209,0.0,0.0,0.0,0.0,0.0,0.0,0.0,0.0,0.0,0.0,0.0,0.0,0.0,0.0,0.0,0.0,0.0,0.0,0.0,0.0,0.0,0.0,0.0,0.0,0.0,0.0,0.0,0.0,0.0,0.0,0.0,0.0,0.0,0.0,0.0,0.0,0.0,0.0,4.6049,4.4101,4.3381,4.0811,3.8035,3.7855,3.6466,3.4621,3.2826,3.2002,3.1048,2.8421,2.7264,2.6493,2.5362,2.5626,0.0,0.0,0.0,2.7335,2.6796,2.6806,0.0,2.7685,0.0,0.0,0.0,0.0,2.6952,0.0,0.0,0.0,0.0,0.0,0.0,0.0,0.0,3.1443,3.2454,3.2439,3.2371,3.2284,3.2179,3.2161,3.2179,3.2214,3.2179,3.2108,3.1984,3.1839,3.1617,3.1466,3.1334,3.1334,3.1157,0.0,3.1173,3.1032,3.0975,3.0975,3.0814,3.0814,3.0935,3.0975,3.0707,3.0255,0.0,0.0,0.0,0.0,0.0,0.0,0.0,-0.2659,-0.3088,-0.337,-0.1631,0.0278,0.2008,0.3176,0.4098,0.0,0.0,0.0,0.0,0.0,0.0,0.0,0.0,0.0,0.0,0.0,0.0,0.0,0.0,0.0,0.0,0.0,0.0,0.0,0.0,0.0,0.0,0.0,0.0,0.0,0.0,0.0,0.0,0.0,0.0,0.0,0.0,0.0,0.0,0.0,4.6347,4.4742,4.3864,4.1149,3.8268,3.8054,3.6278,3.4032,3.2427,3.137,3.0155,2.7734,2.703,2.6474,2.4769,0.0,0.0,0.0,2.6268,2.7222,2.6385,0.0,0.0,0.0,0.0,0.0,0.0,0.0,0.0,0.0,0.0,0.0,0.0,0.0,0.0,0.0,0.0,3.1115,3.1637,3.2039,3.2179,3.2055,3.2073,3.2108,3.2144,3.2179,3.2179,3.2108,3.1984,3.1785,3.1579,3.1372,3.1295,3.1295,3.1095,0.0,3.1112,3.0952,3.0871,3.0814,3.0733,3.0773,3.0855,3.0935,3.0836,3.0594,0.0,0.0,0.0,0.0,0.0,0.0,0.0,-0.2164,-0.3008,-0.4541,-0.3355,-0.1477,0.0869,0.2367,0.3566,0.0,0.0,0.0,0.0,0.0,0.0,0.0,0.0,0.0,0.0,0.0,0.0,0.0,0.0,0.0,0.0,0.0,0.0,0.0,0.0,0.0,0.0,0.0,0.0,0.0,0.0,0.0,0.0,0.0,0.0,0.0,0.0,0.0,0.0,0.0,4.5502,4.3941,4.322,4.0828,3.82,3.7835,3.586,3.3483,3.2255,3.1006,2.9557,2.7484,2.7084,2.667,2.4596,2.5532,0.0,0.0,2.6329,2.7089,2.6299,0.0,0.0,0.0,0.0,0.0,0.0,0.0,0.0,0.0,0.0,0.0,0.0,0.0,0.0,0.0,0.0,0.0,3.1168,3.1585,3.1863,3.1894,3.2001,3.2037,3.2073,3.2108,3.2108,3.2037,3.1912,3.1711,3.1504,3.1312,3.1218,3.114,3.0998,0.0,0.0,3.0871,3.079,3.0692,3.0651,3.0692,3.0773,3.0871,3.087,3.0645,0.0,0.0,0.0,0.0,0.0,0.0,0.0,-0.1557,-0.2465,-0.46,-0.3743,-0.2528,-0.1479,0.0569,0.2517,0.0,0.0,0.0,0.0,0.0,0.0,0.0,0.0,0.0,0.0,0.0,0.0,0.0,0.0,0.0,0.0,0.0,0.0,0.0,0.0,0.0,0.0,0.0,0.0,0.0,0.0,0.0,0.0,0.0,0.0,0.0,0.0,0.0,0.0,0.0,0.0,4.1311,4.112,3.9742,3.8031,3.7095,0.0,0.0,3.2235,3.0919,2.9432,2.7326,2.6521,2.5937,2.4808,0.0,0.0,2.5649,2.6247,2.6774,2.6723,2.6116,0.0,0.0,0.0,0.0,0.0,0.0,0.0,0.0,0.0,0.0,0.0,0.0,0.0,0.0,0.0,0.0,3.1933,3.1307,3.1237,3.1877,3.1856,3.1856,3.193,3.193,3.1875,3.1837,3.1691,3.1483,3.123,3.1095,3.0935,3.0773,3.0733,0.0,0.0,3.0609,3.0609,3.0692,3.0568,3.0651,3.0912,3.0975,3.0311,2.9363,0.0,0.0,0.0,0.0,0.0,0.0,-0.0528,-0.097,-0.1949,-0.4089,-0.36,-0.2913,-0.2517,-0.0697,0.1428,0.3753,0.0,0.0,0.0,0.0,0.0,0.0,0.0,0.0,0.0,0.0,0.0,0.0,0.0,0.0,0.0,0.0,0.0,0.0,0.0,0.0,0.0,0.0,0.0,0.0,0.0,0.0,0.0,0.0,0.0,0.0,0.0,0.0,0.0,0.0,0.0,0.0,3.9392,3.7912,0.0,0.0,3.5056,3.3259,3.1998,3.0742,2.9295,2.7181,2.669,2.621,2.4296,0.0,2.5849,2.4942,2.5295,2.5782,2.5748,2.5063,2.4747,0.0,0.0,0.0,0.0,0.0,0.0,0.0,0.0,0.0,0.0,0.0,0.0,0.0,0.0,0.0,3.1691,3.1396,3.1379,3.1634,3.1614,3.1634,3.1728,3.1728,3.1691,3.1671,3.1504,3.1351,3.119,3.1032,3.0912,3.0831,3.0749,0.0,0.0,3.0568,3.051,3.0568,3.0609,3.0733,3.0912,3.0992,3.0492,2.9678,0.0,0.0,0.0,0.0,0.0,0.0834,-0.0179,-0.0582,-0.1519,-0.3549,-0.3262,-0.2861,-0.2854,-0.1182,0.0836,0.3069,0.4118,0.0,0.0,0.0,0.0,0.0,0.0,0.0,0.0,0.0,0.0,0.0,0.0,0.0,0.0,0.0,0.0,0.0,0.0,0.0,0.0,0.0,0.0,0.0,0.0,0.0,0.0,0.0,0.0,0.0,0.0,0.0,0.0,0.0,0.0,0.0,0.0,0.0,0.0,0.0,3.4491,3.2737,3.1713,3.0516,2.9133,2.7238,2.6878,2.6482,0.0,0.0,2.5926,2.4845,2.4828,2.4941,2.4837,2.4177,2.3898,0.0,0.0,0.0,0.0,0.0,0.0,0.0,0.0,0.0,0.0,0.0,0.0,0.0,0.0,0.0,3.1411,3.1219,3.1219,3.1517,3.1295,3.1213,3.1253,3.1422,3.1401,3.1158,3.121,3.1117,3.0975,3.0871,3.0733,3.0708,3.0568,0.0,0.0,3.0526,3.0526,3.0568,3.0651,3.064,3.0616,3.0656,3.0167,2.9401,0.0,0.0,0.0,0.0,0.0,0.0,-0.0196,-0.046,-0.1198,-0.3153,-0.2763,-0.2358,-0.2495,-0.0709,0.0904,0.1933,0.4026,0.0,0.0,0.0,0.0,0.0,0.0,0.0,0.0,0.0,0.0,0.0,0.0,0.0,0.0,0.0,0.0,0.0,0.0,0.0,0.0,0.0,0.0,0.0,0.0,0.0,0.0,0.0,0.0,0.0,0.0,0.0,0.0,0.0,0.0,0.0,0.0,0.0,0.0,0.0,3.3446,3.1834,3.1403,3.0314,2.8969,2.757,2.6954,2.6624,0.0,0.0,2.5881,2.5864,2.511,2.4406,2.4406,2.3631,2.3355,2.4434,0.0,0.0,0.0,0.0,0.0,0.0,0.0,0.0,0.0,0.0,0.0,0.0,0.0,0.0,3.1261,3.0535,3.0523,3.1462,3.0782,3.0426,3.0426,3.1014,3.09,3.0125,3.0718,3.0855,3.0526,3.0526,3.0401,3.0189,0.0,0.0,0.0,3.0417,3.0526,3.0692,3.0692,3.0363,2.9905,2.9905,2.909,2.7998,0.0,0.0,0.0,0.0,0.0,0.0,0.0,0.046,-0.0222,-0.1344,-0.1362,-0.1396,-0.1712,-0.0359,0.0901,0.1725,0.3902,0.0,0.0,0.0,0.0,0.0,0.0,0.0,0.0,0.0,0.0,1.3161,1.3008,0.0,0.0,0.0,0.0,0.0,0.0,0.0,0.0,0.0,0.0,0.0,0.0,0.0,0.0,0.0,0.0,0.0,0.0,0.0,0.0,0.0,0.0,0.0,0.0,0.0,0.0,3.2411,3.2098,3.1317,3.0232,2.9394,2.8504,2.7175,2.6487,2.5834,2.4636,0.0,2.5104,2.4213,2.4047,2.4201,2.4662,2.3312,2.2758,2.4778,2.4273,0.0,0.0,0.0,0.0,0.0,0.0,0.0,0.0,0.0,0.0,0.0,0.0,0.0,3.1021,3.0347,3.0374,3.1252,3.001,2.9803,3.0818,3.0448,3.0409,3.0656,3.0657,3.0609,3.0485,3.0359,3.0274,0.0,0.0,0.0,0.0,3.0375,3.0443,3.0518,3.0166,2.999,2.9837,2.9332,2.8598,2.7859,0.0,0.0,0.0,0.0,0.0,0.0,0.0,0.0877,0.0319,-0.0189,-0.0317,-0.0491,-0.0864,0.0238,0.1227,0.1768,0.4075,0.0,0.0,0.0,0.0,0.0,0.0,0.0,0.0,1.3142,1.354,1.3345,1.3077,1.2331,1.1133,1.0933,0.0,0.0,0.0,0.0,0.0,0.0,0.0,0.0,0.0,0.0,2.7804,0.0,0.0,0.0,0.0,0.0,0.0,0.0,0.0,0.0,0.0,0.0,0.0,0.0,2.9905,2.9668,0.0,2.8772,2.8092,2.6809,2.6137,0.0,0.0,0.0,2.4471,2.3686,2.3285,2.3321,2.421,2.3089,2.2645,2.4455,2.4388,0.0,0.0,0.0,0.0,0.0,0.0,0.0,0.0,0.0,0.0,0.0,0.0,0.0,3.0885,3.023,3.0068,3.0651,2.9412,2.9093,2.9732,2.9448,2.9504,2.9916,2.9939,3.0079,3.0316,3.013,3.006,0.0,0.0,0.0,0.0,2.9863,2.9824,2.9729,2.9421,2.924,2.9013,2.8595,2.7769,2.6893,0.0,0.0,0.0,0.0,0.0,0.0,0.0,0.0901,0.0519,0.0368,0.0401,0.0328,0.0053,0.1059,0.1827,0.2051,0.0,0.0,0.0,0.0,0.0,0.0,0.0,0.0,0.0,1.2238,1.2675,1.3408,1.2736,1.2055,1.1364,1.069,1.1249,0.0,0.0,0.0,0.0,0.0,0.0,0.0,2.4638,2.5982,0.0,0.0,0.0,0.0,0.0,0.0,0.0,0.0,0.0,0.0,0.0,0.0,0.0,0.0,0.0,0.0,0.0,2.8253,2.7607,2.6395,2.5855,2.5366,0.0,0.0,0.0,2.3988,2.276,2.2072,2.3367,2.3063,2.2917,2.3903,0.0,0.0,0.0,0.0,0.0,0.0,0.0,0.0,0.0,0.0,0.0,0.0,0.0,0.0,3.074,3.0107,2.966,2.9632,2.9013,2.8343,2.764,2.8148,2.8379,2.8362,2.8861,2.9401,2.9973,2.9805,2.9761,0.0,0.0,0.0,0.0,2.9001,2.8817,2.8515,2.8574,2.8199,2.7599,2.7619,2.6623,2.533,0.0,0.0,0.0,0.0,0.0,0.0,0.0,0.0,0.0,0.0,0.0808,0.0913,0.1238,0.1802,0.2332,0.0,0.0,0.0,0.0,0.0,0.0,0.0,0.0,0.0,0.0,1.264,1.3398,1.3548,1.4076,1.3947,1.3188,1.3055,1.324,1.3691,1.3732,1.5115,1.7491,0.0,0.0,0.0,2.3403,2.5323,0.0,0.0,0.0,0.0,3.0137,3.0467,0.0,0.0,0.0,0.0,0.0,0.0,0.0,0.0,2.714,2.6563,2.5929,0.0,2.6034,2.5947,2.5326,2.445,0.0,0.0,0.0,0.0,0.0,2.2585,2.4335,2.3459,2.3164,0.0,0.0,0.0,0.0,0.0,0.0,0.0,0.0,0.0,0.0,0.0,0.0,0.0,0.0,2.8209,2.9054,2.9415,2.9076,2.794,2.818,2.8257,2.8201,2.7689,2.7921,2.8927,2.9026,2.9342,2.9837,2.9259,2.899,0.0,0.0,0.0,2.816,2.8249,2.8372,2.846,2.7931,2.7356,2.6758,2.6084,2.528,2.4542,0.0,0.0,0.0,0.0,0.0,0.0,0.0,0.0,0.0,0.0,0.0,0.1597,0.2109,0.2525,0.0,0.0,0.0,0.0,0.0,0.0,0.0,0.0,0.0,0.0,0.0,1.2928,1.3705,1.4095,1.4308,1.4199,1.3835,1.3094,1.3229,1.4098,1.5303,1.6545,1.785,1.9561,2.1327,2.2979,2.3428,0.0,0.0,0.0,0.0,0.0,2.878,2.9038,0.0,2.9339,2.9224,2.9072,0.0,0.0,0.0,0.0,2.6325,2.5516,2.5011,2.5108,2.528,2.504,2.4759,2.4184,2.293,0.0,0.0,0.0,0.0,0.0,2.3642,0.0,0.0,0.0,0.0,0.0,0.0,0.0,0.0,0.0,0.0,0.0,0.0,0.0,0.0,0.0,0.0,2.7801,2.8477,2.8854,2.8461,2.7276,2.7493,2.7542,2.7288,2.6817,2.7066,2.8045,2.8045,2.8298,2.8796,2.8382,2.8178,0.0,0.0,0.0,2.6938,2.7349,2.7295,2.6906,2.649,2.618,2.5798,2.4946,2.4198,2.3567,0.0,0.0,0.0,0.0,0.0,0.0,0.0,0.0,0.0,0.0,0.0,0.0,0.0,0.0,0.0,0.0,0.0,0.0,0.0,0.0,0.0,0.0,0.0,1.1083,1.2489,1.3008,1.367,1.4522,1.4095,1.3965,1.4053,1.2517,1.2615,1.4199,1.6753,1.7853,1.7954,2.0443,2.2088,2.305,2.3785,0.0,0.0,0.0,0.0,0.0,0.0,0.0,0.0,2.7856,2.778,2.7625,2.7428,0.0,0.0,0.0,0.0,0.0,2.4549,2.4815,2.4844,2.41,2.4129,2.4007,2.2536,0.0,0.0,0.0,0.0,0.0,0.0,0.0,0.0,0.0,0.0,0.0,0.0,0.0,0.0,0.0,0.0,0.0,0.0,0.0,0.0,0.0,0.0,2.7548,2.8198,2.8218,2.786,2.6982,2.6951,2.6634,2.5954,2.5881,2.6183,2.6786,2.6802,2.7081,2.7598,2.7444,2.7331,2.7316,0.0,0.0,2.5456,2.6155,2.5842,2.4928,2.4911,2.4845,2.4663,2.4033,2.3258,2.2538,0.0,0.0,0.0,0.0,0.0,0.0,0.0,0.0,0.0,0.0,0.0,0.0,0.0,0.0,0.0,0.0,0.0,0.0,0.0,0.0,0.0,0.0,1.1193,1.1283,1.1766,1.2661,1.3317,1.3672,1.4422,1.4839,1.4906,1.4007,1.375,1.4138,1.6682,1.7811,1.7921,1.9792,2.1495,2.2933,2.3069,0.0,0.0,0.0,0.0,0.0,0.0,0.0,0.0,2.7682,2.7565,2.7407,2.7203,0.0,0.0,0.0,0.0,0.0,2.3354,2.3425,2.3772,2.3802,2.3408,2.2883,0.0,0.0,0.0,0.0,0.0,0.0,0.0,0.0,0.0,0.0,0.0,0.0,0.0,0.0,0.0,0.0,0.0,0.0,0.0,0.0,0.0,0.0,0.0,2.6703,2.6873,2.7317,2.7188,2.6366,2.6672,2.645,2.5654,2.5717,2.6054,2.674,2.6747,2.712,2.7648,2.7082,2.6506,2.5967,0.0,2.4694,2.4098,2.423,2.4232,2.4166,2.4116,2.3704,2.3126,2.2964,2.2407,2.1784,0.0,0.0,0.0,0.0,0.0,0.0,0.0,0.0,0.0,0.0,0.0,0.0,0.0,0.0,0.0,0.0,0.0,0.0,0.0,0.0,0.0,1.197,1.2363,1.2574,1.2627,1.3331,1.3831,1.4091,1.4699,1.5058,1.5158,1.484,1.4454,1.4104,1.6697,1.7849,1.7994,2.0185,2.1804,2.2893,0.0,0.0,0.0,0.0,0.0,0.0,0.0,0.0,0.0,0.0,2.6132,2.5959,2.5801,0.0,0.0,0.0,0.0,0.0,2.3614,2.3344,2.3106,2.3013,2.2917,0.0,0.0,0.0,0.0,0.0,0.0,0.0,0.0,0.0,0.0,0.0,0.0,0.0,0.0,0.0,0.0,0.0,0.0,0.0,0.0,0.0,0.0,0.0,0.0,0.0,2.6554,2.6699,2.659,2.6132,2.6245,2.6075,2.5616,2.5637,2.5745,2.6008,2.6146,2.6324,2.6555,2.5826,2.5345,2.5025,0.0,2.358,2.3112,2.3538,2.3522,2.3292,2.3178,2.2916,2.2508,2.2021,2.1585,2.1214,0.0,0.0,0.0,0.0,0.0,0.0,0.0,0.0,0.0,0.0,0.0,0.0,0.0,0.0,0.0,0.0,0.0,0.0,0.0,0.0,1.1025,1.251,1.3369,1.3771,1.3695,1.4077,1.4304,1.4372,1.4604,1.4685,1.4617,1.4879,1.4645,1.4102,1.6525,1.7703,1.8047,2.0183,2.1778,2.2871,0.0,0.0,0.0,0.0,0.0,0.0,0.0,0.0,0.0,0.0,0.0,0.0,0.0,0.0,0.0,2.4641,2.4123,2.3502,2.3864,2.3423,2.2764,2.2443,0.0,0.0,0.0,0.0,0.0,0.0,0.0,0.0,0.0,0.0,0.0,0.0,0.0,0.0,0.0,0.0,0.0,0.0,0.0,0.0,0.0,0.0,0.0,0.0,0.0,0.0,2.652,2.6382,2.6225,2.6082,2.579,2.5562,2.5341,2.5158,2.5201,2.547,2.5427,2.5436,2.5378,2.4632,2.4229,2.4051,2.3379,2.2816,2.2329,2.285,2.2802,2.2344,2.2232,2.2102,2.1955,2.1279,2.0941,2.0795,0.0,0.0,0.0,0.0,0.0,0.0,0.0,0.0,0.0,0.0,0.0,0.0,0.0,0.0,0.0,0.0,0.0,0.0,0.0,0.0,1.1427,1.3334,1.3908,1.4229,1.4341,1.4434,1.421,1.367,1.3812,1.3543,1.2906,1.371,1.4054,1.4079,1.5896,1.7142,1.7965,1.8887,2.0656,2.2805,2.2812,0.0,0.0,0.0,0.0,0.0,0.0,0.0,0.0,0.0,0.0,0.0,0.0,0.0,2.4191,2.403,2.3757,2.3448,2.3312,2.308,2.2842,2.2552,0.0,0.0,0.0,0.0,0.0,0.0,0.0,0.0,0.0,0.0,0.0,0.0,0.0,0.0,0.0,0.0,0.0,0.0,0.0,0.0,0.0,0.0,0.0,0.0,0.0,0.0,2.6572,2.6417,2.6295,2.6295,2.5368,2.4795,2.4563,2.3897,2.4252,2.5562,2.4993,2.4704,2.474,2.399,2.334,2.2834,2.2655,2.2215,2.1671,2.1595,2.1485,2.139,2.1231,2.107,2.0923,2.0925,2.0745,2.0561,0.0,0.0,0.0,0.0,0.0,0.0,0.0,0.0,0.0,0.0,0.0,0.0,0.0,0.0,0.0,0.0,0.0,0.0,0.0,0.0,1.1985,1.3676,1.4156,1.4528,1.482,1.4773,1.4401,1.373,1.3818,1.4275,1.505,1.4844,1.5293,1.632,1.7031,1.785,1.8804,2.0149,2.1231,2.2107,2.2601,2.3266,0.0,0.0,0.0,0.0,0.0,0.0,0.0,0.0,2.4861,2.4726,2.4528,2.4338,2.4173,2.3998,2.3789,2.3567,2.3383,2.3144,2.2919,2.2685,0.0,0.0,0.0,0.0,0.0,0.0,0.0,0.0,0.0,0.0,0.0,0.0,0.0,0.0,0.0,0.0,0.0,0.0,0.0,0.0,0.0,0.0,0.0,0.0,0.0,0.0,2.6606,2.6468,2.6147,2.5577,2.5106,2.457,2.3956,2.3645,2.3756,2.4272,2.4048,2.3937,2.3974,2.3224,2.2719,2.2476,2.1972,2.152,2.1183,2.1214,2.1119,2.099,2.0876,2.0744,2.0628,2.0646,2.0478,2.0239,0.0,0.0,0.0,0.0,0.0,0.0,0.0,0.0,0.0,0.0,0.0,0.0,0.0,0.0,0.0,0.0,0.0,0.0,0.0,1.0538,1.1977,1.3449,1.4173,1.4708,1.5094,1.505,1.4634,1.3869,1.3642,1.4295,1.5697,1.5385,1.5986,1.7365,1.7671,1.8329,1.9276,2.0417,2.1172,2.1648,2.219,2.2833,0.0,0.0,0.0,0.0,0.0,0.0,0.0,0.0,2.4846,2.4692,2.4545,2.4374,2.421,2.4113,2.3915,2.3725,2.3571,2.3365,2.3126,0.0,0.0,0.0,0.0,0.0,0.0,0.0,0.0,0.0,0.0,0.0,0.0,0.0,0.0,0.0,0.0,0.0,0.0,0.0,0.0,0.0,0.0,0.0,0.0,0.0,0.0,0.0,0.0,2.6485,2.5995,2.5144,2.4777,2.418,2.3258,2.3063,2.2916,2.2798,2.2798,2.2945,2.3191,2.241,2.2054,2.2005,2.1424,2.1071,2.0877,2.0925,2.0827,2.0628,2.0509,2.0407,2.0289,2.0273,2.0135,1.994,0.0,0.0,0.0,0.0,0.0,0.0,0.0,0.0,0.0,0.0,0.0,0.0,0.0,0.0,0.0,0.0,0.0,0.0,0.0,1.0,1.1327,1.2649,1.3919,1.4762,1.5087,1.5233,1.4889,1.4031,1.3233,1.3249,1.4079,1.493,1.5788,1.667,1.7456,1.833,1.9216,1.9213,2.0135,2.1571,2.1514,2.1938,2.2694,0.0,0.0,0.0,0.0,0.0,0.0,0.0,2.4802,2.4757,2.4561,0.0,2.4303,2.4228,2.4074,2.3915,2.3816,2.3707,0.0,0.0,0.0,0.0,0.0,0.0,0.0,0.0,0.0,0.0,0.0,0.0,0.0,0.0,0.0,0.0,0.0,0.0,0.0,0.0,0.0,0.0,0.0,0.0,0.0,0.0,0.0,0.0,0.0,2.6329,2.5874,2.5179,2.4414,2.3506,2.2492,2.1902,2.1481,2.1309,2.123,2.1601,2.2361,2.1649,2.1262,2.1183,2.0974,2.0877,2.0794,2.0711,2.0509,2.027,2.0076,1.9919,1.9797,1.9788,1.9711,1.9611,0.0,0.0,0.0,0.0,0.0,0.0,0.0,0.0,0.0,0.0,0.0,0.0,0.0,0.0,0.0,0.0,0.0,0.0,0.0,1.1417,1.273,1.3516,1.4221,1.4736,1.5018,1.5811,1.6113,1.5902,1.5601,1.6195,1.7586,1.7214,1.7834,1.9182,0.0,1.9234,2.0111,2.0115,2.0387,2.0862,2.1366,2.1664,2.1981,0.0,0.0,0.0,0.0,0.0,0.0,0.0,0.0,0.0,2.4564,0.0,2.5097,2.445,2.4537,2.4686,2.4042,2.3682,0.0,0.0,0.0,0.0,0.0,0.0,0.0,0.0,0.0,0.0,0.0,0.0,0.0,0.0,0.0,0.0,0.0,0.0,0.0,0.0,0.0,0.0,0.0,0.0,0.0,0.0,0.0,0.0,0.0,2.5146,2.443,2.3617,2.337,2.2811,2.1962,2.1718,2.1589,2.1511,2.087,2.0907,2.1553,2.1167,2.1007,2.0974,2.0877,2.0695,2.0509,2.0185,2.001,1.994,1.9833,1.9741,1.9624,1.9166,1.9179,1.9244,0.0,0.0,0.0,0.0,0.0,0.0,0.0,0.0,0.0,0.0,0.6314,0.6597,0.0,0.0,0.0,0.8638,0.9522,0.0,1.0367,1.1925,1.3037,1.3549,1.4202,1.4868,1.5543,1.6556,1.7272,1.7645,1.729,1.7637,1.8623,1.8405,1.8867,1.9858,0.0,1.9954,2.0492,2.0507,2.0505,2.0547,2.0958,2.1262,2.1566,0.0,0.0,0.0,0.0,0.0,0.0,0.0,0.0,0.0,2.4564,0.0,0.0,2.493,2.4874,2.4831,2.4606,0.0,0.0,0.0,0.0,0.0,0.0,0.0,0.0,0.0,0.0,0.0,0.0,0.0,0.0,0.0,0.0,0.0,0.0,0.0,0.0,0.0,0.0,0.0,0.0,0.0,0.0,0.0,0.0,0.0,0.0,2.4508,2.3827,2.2969,2.2953,2.2543,2.168,2.162,2.1573,2.1495,2.0643,2.0553,2.1151,2.0735,2.0671,2.0844,2.0613,2.0441,2.0216,1.9848,1.969,1.966,1.9298,1.9051,1.8884,1.8293,1.8188,1.8194,0.0,0.0,0.7484,0.7598,0.0,0.0,0.0,0.0,0.0,0.6803,0.6966,0.7305,0.0,0.0,0.0,0.9474,0.9805,1.0221,1.0763,1.1872,1.2717,1.3182,1.4121,1.5217,1.6465,1.7413,1.829,1.9087,1.8444,1.8127,1.8134,0.0,1.9269,1.9341,0.0,2.0442,2.0508,2.0502,2.0492,2.0482,2.041,2.074,2.1309,2.1388,0.0,0.0,0.0,0.0,0.0,0.0,0.0,0.0,2.4599,2.4605,2.4741,2.541,2.5133,2.4746,0.0,0.0,0.0,0.0,0.0,0.0,0.0,0.0,0.0,0.0,0.0,0.0,0.0,0.0,0.0,0.0,0.0,0.0,0.0,0.0,0.0,0.0,0.0,0.0,0.0,0.0,0.0,0.0,0.0,0.0,0.0,2.4168,2.3692,2.2962,2.2929,2.2507,2.165,2.1603,2.1573,2.1448,2.0534,2.0444,2.0991,2.0319,2.0226,2.0634,2.0258,2.0015,1.9879,1.9654,1.956,1.9383,1.8584,1.8158,1.7913,1.7237,1.6904,1.676,0.0,0.0,0.7718,0.7752,0.0,0.0,0.0,0.0,0.6927,0.7086,0.7364,0.7791,0.8462,0.8866,0.0,0.984,1.0741,1.1393,1.163,1.2762,1.3584,1.3941,1.5066,1.6148,1.7167,1.8152,1.8783,1.9014,1.9584,1.9862,0.0,0.0,0.0,2.0232,0.0,2.0487,2.0501,2.0494,2.0475,2.0422,2.0362,2.0386,2.0587,2.1786,2.2417,0.0,0.0,0.0,0.0,0.0,0.0,0.0,2.458,2.5013,2.5426,2.4976,2.5522,2.6171,0.0,0.0,0.0,0.0,0.0,0.0,0.0,0.0,0.0,0.0,0.0,0.0,0.0,0.0,0.0,0.0,0.0,0.0,0.0,0.0,0.0,0.0,0.0,0.0,0.0,0.0,0.0,0.0,0.0,0.0,2.3782,2.3088,2.2613,2.237,2.2279,2.2107,2.1928,2.1811,2.1738,0.0,2.0717,2.034,2.0471,1.9986,1.9704,1.9632,1.9955,1.9741,1.9144,1.9352,1.9413,1.9266,1.8404,1.8,1.7799,1.6598,1.6329,1.639,0.0,0.0,0.0,0.0,0.0,0.0,0.0,0.0,0.7383,0.752,0.7898,0.8315,0.8821,0.9413,0.0,0.0,1.1363,1.2101,1.2439,1.3267,1.4119,1.4934,1.5662,1.6667,1.7985,1.8589,1.9131,1.9626,0.0,0.0,0.0,0.0,0.0,2.0546,0.0,2.0724,2.1116,2.1097,2.1056,2.1022,2.095,2.0623,2.0296,2.1091,2.1581,2.194,2.2706,0.0,0.0,0.0,0.0,0.0,0.0,0.0,2.5132,2.5128,2.5374,2.5634,0.0,0.0,0.0,0.0,0.0,0.0,0.0,0.0,0.0,0.0,0.0,0.0,0.0,0.0,0.0,0.0,0.0,0.0,0.0,0.0,0.0,0.0,0.0,0.0,0.0,0.0,0.0,0.0,0.0,2.4119,2.3185,2.272,2.246,2.2388,2.2287,2.2215,2.213,2.1986,2.1869,2.1781,2.0852,2.0302,2.0152,1.9845,1.953,1.93,1.9825,1.9708,1.9155,1.9229,1.9176,1.8991,1.8172,1.7598,1.7107,1.614,1.5555,1.5169,0.0,0.0,0.0,0.0,0.0,0.0,0.0,0.0,0.0,0.8344,0.8592,0.8933,0.9437,1.0034,1.0613,0.0,0.0,0.0,1.3292,1.3926,1.4886,1.6177,1.641,1.7281,1.8896,1.9066,1.9573,0.0,0.0,0.0,0.0,0.0,0.0,2.0599,0.0,2.0896,2.159,2.1672,2.1623,2.1466,2.1565,2.1041,2.0219,2.035,2.0737,0.0,0.0,2.2332,2.3427,2.34,0.0,0.0,0.0,0.0,2.4596,2.5466,2.53,2.5005,0.0,0.0,0.0,0.0,0.0,0.0,0.0,0.0,0.0,0.0,0.0,0.0,0.0,0.0,0.0,0.0,0.0,0.0,0.0,0.0,0.0,0.0,0.0,0.0,0.0,0.0,0.0,0.0,0.0,2.3702,2.2825,2.2764,2.2738,2.2659,2.2579,2.2497,2.2371,2.2186,2.1998,2.1853,2.0936,2.03,1.9999,1.9814,1.9562,1.9267,1.9737,1.9717,1.9251,1.9132,1.8916,1.8593,1.7817,1.705,1.6257,1.5611,1.476,1.3967,0.0,0.0,0.0,0.0,0.0,0.0,0.0,0.0,0.0,0.0,0.9779,0.9823,1.0965,1.0922,1.1125,1.1885,1.2843,1.3658,1.4275,0.0,0.0,1.7916,1.8162,1.8758,1.9808,1.995,2.0487,0.0,0.0,0.0,0.0,0.0,0.0,2.0601,0.0,0.0,2.0727,2.1465,2.1279,2.0547,2.1299,2.1028,2.0274,0.0,0.0,0.0,0.0,0.0,0.0,2.3424,2.3905,0.0,0.0,0.0,2.4662,2.5536,2.6208,0.0,0.0,0.0,0.0,0.0,0.0,0.0,0.0,0.0,0.0,0.0,0.0,0.0,0.0,0.0,0.0,0.0,0.0,0.0,0.0,0.0,0.0,0.0,0.0,0.0,0.0,0.0,0.0,0.0,2.488,2.4045,2.3105,2.2995,2.297,2.2944,2.2842,2.2764,2.2721,2.2525,2.2343,2.2136,2.1036,2.03,1.9999,1.9923,1.9673,1.93,1.9667,1.9411,1.8737,1.8994,1.8708,1.8021,1.7178,1.6382,1.5597,1.4738,1.4205,1.3841,0.0,0.0,0.0,0.0,0.0,0.0,0.0,0.0,0.0,0.0,0.0,1.0847,1.1799,1.2033,1.2357,1.2941,1.3986,1.491,1.5589,1.6381,1.7314,1.8415,1.9058,1.9849,2.0833,2.1405,2.194,0.0,0.0,0.0,0.0,2.3219,2.2812,0.0,0.0,0.0,0.0,0.0,2.2507,2.2572,2.2924,2.2528,0.0,0.0,0.0,0.0,0.0,0.0,0.0,0.0,2.3606,2.3878,2.3923,0.0,0.0,0.0,0.0,0.0,0.0,0.0,0.0,0.0,0.0,0.0,0.0,0.0,0.0,0.0,0.0,0.0,0.0,0.0,0.0,0.0,0.0,0.0,0.0,0.0,0.0,0.0,0.0,0.0,0.0,0.0,0.0,0.0,2.4567,2.3866,2.3417,2.3319,2.3265,2.3217,2.3144,2.3028,2.297,2.2816,2.2544,2.2192,2.1508,2.1038,2.0716,2.0496,1.997,1.9252,1.9737,1.9366,1.8435,1.8448,1.7971,1.7157,1.6641,1.5979,1.5257,1.4715,1.4083,1.3404,0.0,0.0,0.0,0.0,0.0,0.0,0.0,0.0,0.0,0.0,0.0,1.2088,1.3045,0.0,0.0,0.0,1.5249,1.6271,1.7155,1.7463,1.8,1.8898,1.9859,2.0746,2.1509,2.2448,0.0,0.0,0.0,0.0,2.3764,2.4432,2.4375,0.0,2.24,0.0,0.0,0.0,0.0,0.0,0.0,2.3372,0.0,0.0,0.0,0.0,0.0,0.0,0.0,0.0,0.0,0.0,0.0,0.0,0.0,0.0,0.0,0.0,0.0,0.0,0.0,0.0,0.0,0.0,0.0,0.0,0.0,0.0,0.0,0.0,0.0,0.0,0.0,0.0,0.0,0.0,0.0,0.0,0.0,0.0,0.0,0.0,0.0,0.0,0.0,0.0,2.4644,2.4088,2.4003,2.3947,2.3876,2.3807,2.3738,2.3555,2.3265,2.3028,2.2703,2.2292,2.1957,2.1648,2.1356,2.099,2.0252,1.9269,1.9588,1.9111,1.8155,1.784,1.7206,1.6396,1.6096,1.5515,1.485,1.4576,1.3899,1.3107,0.0,0.0,0.0,0.0,0.0,0.0,0.0,0.0,0.0,0.0,0.0,1.3544,1.5232,1.4599,1.4515,1.5677,1.6658,1.7753,1.9066,1.9399,1.9639,1.981,2.0839,0.0,2.1598,0.0,0.0,0.0,0.0,0.0,2.5563,2.5605,2.5605,2.5468,2.2987,2.2369,2.3101,0.0,0.0,0.0,2.2736,2.2542,0.0,0.0,0.0,0.0,0.0,0.0,0.0,0.0,0.0,0.0,0.0,0.0,0.0,0.0,0.0,0.0,0.0,0.0,0.0,0.0,0.0,0.0,0.0,0.0,0.0,0.0,0.0,0.0,0.0,0.0,0.0,0.0,0.0,0.0,0.0,0.0,0.0,0.0,0.0,0.0,0.0,0.0,0.0,0.0,2.5795,2.5256,2.5129,2.5108,2.5045,2.4914,2.4861,2.4451,2.3678,2.3223,2.285,2.2579,2.2169,2.184,2.1589,2.1103,2.0399,1.9466,1.9119,1.8537,1.7775,1.7209,1.6598,1.5976,1.5462,1.4836,1.4178,1.3734,1.3348,1.3037,0.0,0.0,0.0,0.0,0.0,0.0,0.0,0.0,0.0,0.0,0.0,0.0,0.0,1.6183,1.6376,1.706,1.8104,1.8974,1.9582,1.9787,1.9945,2.0082,2.156,2.2424,2.2507,0.0,0.0,0.0,0.0,2.5683,2.6523,2.5957,2.6308,2.7265,2.4666,2.3982,2.4703,2.3849,0.0,0.0,2.4561,2.4481,0.0,0.0,0.0,0.0,0.0,0.0,0.0,0.0,0.0,0.0,0.0,0.0,0.0,0.0,0.0,0.0,0.0,0.0,0.0,0.0,0.0,0.0,0.0,0.0,0.0,0.0,0.0,0.0,0.0,0.0,0.0,0.0,0.0,0.0,0.0,0.0,0.0,0.0,0.0,0.0,0.0,0.0,0.0,0.0,0.0,2.5615,2.5542,2.5446,2.5348,2.5264,2.4605,2.4013,2.3499,2.3199,2.2944,2.2712,2.2415,2.2089,2.1797,2.1355,2.0446,1.9148,1.8702,1.7956,1.7071,1.6579,1.5941,1.5195,1.4744,1.4246,1.3782,1.3527,1.3185,1.278,0.0,0.0,0.0,0.0,0.0,0.0,0.0,0.0,0.0,0.0,0.0,0.0,0.0,0.0,1.7803,1.877,1.9592,2.0258,2.0706,2.0613,2.0578,2.0694,2.2417,2.3259,2.303,0.0,0.0,0.0,0.0,0.0,0.0,2.5975,2.6326,2.7343,2.5604,2.5312,0.0,0.0,0.0,2.5256,0.0,2.5196,2.5169,0.0,0.0,0.0,0.0,0.0,0.0,0.0,0.0,0.0,0.0,0.0,0.0,0.0,0.0,0.0,0.0,0.0,0.0,0.0,0.0,0.0,0.0,0.0,0.0,0.0,0.0,0.0,0.0,0.0,0.0,0.0,0.0,0.0,0.0,0.0,0.0,0.0,0.0,0.0,0.0,0.0,0.0,0.0,0.0,0.0,2.6648,2.6282,2.5857,2.5406,2.4458,2.3831,2.3549,2.3319,2.3126,2.2944,2.2623,2.2287,2.1982,2.1294,2.0245,1.8984,1.8264,1.7379,1.6502,1.6034,1.543,1.4794,1.4319,1.3881,1.3547,1.331,1.2978,1.2591,0.0,0.0,0.0,0.0,0.0,0.0,0.0,0.0,0.0,0.0,0.0,0.0,0.0,0.0,0.0,2.0783,2.113,2.1635,2.2545,2.2006,2.1666,2.1745,2.3376,2.3951,2.3166,0.0,0.0,0.0,0.0,0.0,0.0,0.0,2.5722,2.5762,2.5722,2.6191,2.6874,0.0,2.3707,2.4488,0.0,2.4469,2.4534,0.0,0.0,0.0,2.4478,2.4553,0.0,2.3929,0.0,0.0,0.0,0.0,0.0,0.0,0.0,0.0,0.0,0.0,0.0,0.0,0.0,0.0,0.0,0.0,0.0,0.0,0.0,0.0,0.0,0.0,0.0,0.0,0.0,0.0,0.0,0.0,0.0,0.0,0.0,0.0,0.0,0.0,0.0,0.0,2.8722,2.8647,2.8466,2.765,2.6635,2.5408,2.4537,2.4016,2.3795,2.3611,2.3407,2.3193,2.2816,2.2463,2.2141,2.0887,1.9864,1.9006,1.7764,1.6809,1.6166,1.5536,1.5134,1.4814,1.4214,1.3802,1.3446,1.3035,1.272,1.2425,0.0,0.0,0.0,0.0,0.0,0.0,0.0,0.0,0.0,0.0,0.0,0.0,0.0,0.0,0.0,2.2076,2.2269,2.2496,2.2797,2.2692,2.2617,2.2629,2.3704,2.4222,2.4046,0.0,0.0,0.0,0.0,0.0,0.0,0.0,0.0,0.0,2.6265,2.6538,2.7845,2.6504,0.0,0.0,2.6281,2.5893,0.0,0.0,0.0,0.0,0.0,2.5111,2.5034,0.0,2.3853,2.3912,0.0,0.0,0.0,0.0,0.0,0.0,2.5573,0.0,0.0,0.0,0.0,0.0,2.8216,2.846,0.0,0.0,0.0,0.0,0.0,0.0,0.0,0.0,0.0,0.0,0.0,0.0,0.0,0.0,0.0,0.0,0.0,0.0,0.0,0.0,2.8606,2.8578,2.7823,2.7447,2.6478,2.4726,2.434,2.4077,2.3858,2.3725,2.3544,2.3336,2.3045,2.2453,2.1669,2.0928,1.9843,1.8486,1.7789,1.7036,1.6219,1.5463,1.4937,1.4564,1.4124,1.3728,1.3391,1.3035,1.2685,1.2365,0.0,0.0,0.0,0.0,0.0,0.0,0.0,0.0,0.0,0.0,0.0,0.0,0.0,0.0,0.0,2.3227,2.33,2.3504,2.3922,2.3663,2.3508,2.3533,2.4384,2.486,2.494,0.0,0.0,0.0,0.0,0.0,0.0,0.0,0.0,0.0,2.6683,2.7015,0.0,0.0,0.0,0.0,2.7009,0.0,0.0,2.5628,2.5554,0.0,0.0,0.0,2.4664,2.4473,2.4068,0.0,0.0,0.0,0.0,0.0,0.0,0.0,0.0,0.0,0.0,0.0,0.0,0.0,2.8483,2.8576,2.8612,0.0,0.0,0.0,0.0,0.0,0.0,0.0,0.0,0.0,0.0,0.0,0.0,0.0,0.0,0.0,0.0,2.9616,2.8931,2.8469,2.8841,2.8644,2.763,2.71,2.6123,2.4564,2.4373,2.4192,2.4037,2.3894,2.3725,2.3522,2.2912,2.2262,2.1539,2.038,1.9303,1.8339,1.7529,1.6827,1.6163,1.5521,1.5013,1.4592,1.4092,1.3674,1.3254,1.2861,1.2544,1.2222,0.0,0.0,2.603,2.6737,2.4857,0.0,0.0,0.0,0.0,0.0,0.0,0.0,0.0,0.0,0.0,0.0,2.4559,2.4838,2.5526,2.4897,2.4478,2.4455,2.5191,2.563,2.5687,0.0,0.0,0.0,0.0,0.0,0.0,0.0,0.0,0.0,2.7114,2.7613,0.0,0.0,0.0,2.7281,2.7187,2.6612,0.0,0.0,2.5715,2.5657,2.558,2.4945,2.4254,2.4965,2.4612,0.0,0.0,0.0,0.0,0.0,2.368,0.0,0.0,0.0,0.0,0.0,0.0,0.0,2.8988,2.8969,2.872,2.9493,0.0,0.0,0.0,0.0,0.0,0.0,0.0,0.0,0.0,0.0,0.0,0.0,0.0,0.0,3.051,2.9872,2.9388,2.9186,2.9023,2.8527,2.7637,2.6732,2.575,2.4757,2.4543,2.4373,2.4248,2.4096,2.3899,2.3599,2.2624,2.1907,2.1392,1.9527,1.856,1.8326,1.7129,1.6436,1.6095,1.5682,1.5209,1.47,1.4138,1.3607,1.3129,1.2685,1.2354,1.2054,2.7663,2.7672,2.7715,2.7883,2.6913,0.0,0.0,0.0,0.0,0.0,0.0,0.0,0.0,0.0,0.0,0.0,0.0,2.7167,2.6631,2.6454,2.6062,2.5386,2.5503,2.5615,2.5613,2.6463,0.0,0.0,0.0,0.0,0.0,0.0,0.0,0.0,2.7967,2.845,0.0,0.0,0.0,2.904,2.832,0.0,2.6741,2.6681,2.6636,2.6612,2.6551,2.592,2.5129,2.519,2.503,2.4828,0.0,0.0,0.0,0.0,0.0,0.0,0.0,0.0,0.0,0.0,0.0,0.0,2.7847,2.7987,2.7904,0.0,0.0,0.0,0.0,0.0,0.0,0.0,0.0,0.0,0.0,0.0,0.0,0.0,0.0,0.0,3.0668,3.0528,2.986,2.8434,2.7619,2.7075,2.6832,2.6527,2.5914,2.4959,2.4749,2.4594,2.4513,2.4339,2.3841,2.3049,2.2628,2.1565,1.9987,1.9253,1.8437,1.7575,1.7007,1.6581,1.6219,1.5767,1.518,1.4515,1.4059,1.3607,1.3129,1.2685,1.2282,1.1872,2.8749,2.9132,2.9575,3.0011,0.0,0.0,0.0,0.0,0.0,0.0,0.0,0.0,0.0,0.0,0.0,0.0,0.0,0.0,0.0,0.0,2.7157,2.6301,2.6252,2.6447,2.6899,2.7313,2.7761,0.0,0.0,0.0,0.0,0.0,0.0,0.0,0.0,0.0,0.0,0.0,2.9327,2.8917,2.8475,0.0,2.7008,2.6952,2.666,2.6248,2.6184,2.5812,2.5274,2.473,2.4805,0.0,0.0,2.5088,2.4986,0.0,2.4875,2.5206,0.0,0.0,0.0,2.694,0.0,0.0,0.0,2.7694,2.7204,0.0,0.0,0.0,0.0,0.0,0.0,0.0,0.0,0.0,0.0,0.0,0.0,0.0,0.0,0.0,3.0749,3.0358,2.9555,2.8255,2.6909,2.6289,2.6638,2.615,2.5611,2.5125,2.4907,2.4783,2.4695,2.453,2.3931,2.2941,2.2298,2.1195,1.9673,1.8871,1.8138,1.7479,1.7068,1.6712,1.6367,1.5881,1.5359,1.4752,1.4163,1.3628,1.3163,1.2733,1.2365,1.192,3.002,3.0618,3.1378,3.2127,0.0,0.0,0.0,0.0,0.0,0.0,0.0,0.0,0.0,0.0,0.0,0.0,0.0,0.0,0.0,0.0,2.8062,2.7182,2.7152,2.7473,2.8163,2.8351,2.8779,0.0,0.0,0.0,0.0,0.0,0.0,0.0,0.0,0.0,0.0,0.0,0.0,2.8771,0.0,2.793,2.7004,2.6991,2.6529,2.5809,2.5577,2.5426,2.5226,2.4426,2.4591,2.5137,2.512,2.5125,0.0,0.0,0.0,0.0,0.0,0.0,0.0,0.0,0.0,2.6131,0.0,0.0,0.0,0.0,0.0,0.0,0.0,0.0,0.0,0.0,0.0,0.0,0.0,0.0,0.0,0.0,0.0,0.0,0.0,2.9873,2.8977,2.8257,2.6598,2.5859,2.6468,2.5738,2.5293,2.5241,2.5056,2.4921,2.4846,2.4707,2.4025,2.2824,2.197,2.0861,1.9564,1.853,1.7893,1.7589,1.7216,1.6825,1.6448,1.6037,1.5551,1.5043,1.431,1.3749,1.3232,1.2838,1.2437,1.2004,3.2546,3.2666,3.2832,3.3101,0.0,0.0,0.0,0.0,0.0,0.0,0.0,0.0,0.0,0.0,0.0,0.0,0.0,0.0,2.9401,0.0,0.0,2.8101,2.8043,2.806,2.8107,2.887,2.9317,2.9415,0.0,0.0,0.0,0.0,0.0,0.0,3.0561,0.0,0.0,0.0,2.9971,0.0,2.9734,2.8474,0.0,2.6999,2.6905,2.6646,2.5795,2.5483,2.544,0.0,2.5194,2.5261,0.0,2.5184,2.5164,2.5075,0.0,0.0,0.0,0.0,0.0,0.0,2.6641,0.0,0.0,0.0,2.6617,2.6715,0.0,0.0,0.0,0.0,0.0,0.0,0.0,0.0,0.0,0.0,0.0,0.0,0.0,0.0,0.0,2.9377,2.8363,2.8201,2.6587,2.5639,2.5727,2.5511,2.5401,2.5369,2.5243,2.5103,2.4968,2.4902,2.3964,2.2189,2.1914,2.0749,1.8914,1.8522,1.8078,1.7589,1.7368,1.6952,1.6382,1.6179,1.5667,1.5043,1.4465,1.3947,1.348,1.2849,1.2389,1.2004,3.3103,3.3369,3.3796,3.3926,0.0,0.0,0.0,0.0,0.0,0.0,0.0,0.0,0.0,0.0,0.0,0.0,0.0,3.1909,0.0,0.0,0.0,0.0,2.8896,2.8877,2.8845,2.9206,2.9652,3.0146,3.0471,0.0,0.0,0.0,0.0,0.0,3.1241,0.0,3.0813,0.0,3.0642,0.0,0.0,0.0,0.0,2.775,2.7081,2.61,2.5704,2.5517,2.5421,0.0,2.5639,0.0,0.0,0.0,0.0,0.0,0.0,0.0,0.0,0.0,0.0,0.0,0.0,0.0,2.6894,0.0,2.5859,0.0,0.0,0.0,0.0,0.0,0.0,0.0,0.0,0.0,0.0,0.0,0.0,0.0,0.0,0.0,0.0,0.0,0.0,0.0,2.7112,2.6398,2.6364,2.6296,2.6255,2.6207,2.5625,2.5274,2.5176,2.5068,2.4075,2.22,2.1999,2.0848,1.8913,1.8604,1.8208,1.7772,1.7479,1.7052,1.6554,1.6258,1.5811,1.5225,1.4672,1.413,1.3547,1.2988,1.2496,1.2066,3.4155,0.0,0.0,0.0,0.0,0.0,0.0,0.0,0.0,0.0,0.0,0.0,3.4159,3.4105,0.0,0.0,3.3321,3.3056,0.0,0.0,3.1767,0.0,0.0,0.0,0.0,3.0424,3.0734,3.1394,0.0,0.0,0.0,0.0,0.0,0.0,0.0,3.1767,3.0837,0.0,3.1222,2.9854,2.9901,2.9422,2.8605,2.8124,2.6983,2.5639,2.5609,2.5531,2.5453,2.5415,2.5919,0.0,2.6515,0.0,0.0,0.0,0.0,0.0,2.5948,0.0,0.0,0.0,0.0,0.0,0.0,0.0,0.0,0.0,0.0,0.0,0.0,0.0,0.0,0.0,0.0,0.0,0.0,0.0,0.0,0.0,0.0,0.0,0.0,0.0,0.0,0.0,0.0,2.6734,2.6921,2.6685,2.6626,2.6817,2.5925,2.5398,2.5332,2.5222,2.4209,2.2351,2.2116,2.0994,1.9035,1.8716,1.8333,1.7922,1.7572,1.7175,1.667,1.6367,1.5924,1.5359,1.4814,1.4246,1.3635,1.3104,1.2603,1.209,3.6579,3.6541,0.0,0.0,0.0,0.0,0.0,0.0,0.0,0.0,0.0,0.0,0.0,0.0,0.0,0.0,0.0,3.3297,3.3257,0.0,3.3145,0.0,0.0,3.3089,0.0,0.0,3.3025,3.313,0.0,0.0,0.0,0.0,0.0,0.0,0.0,3.2311,3.0761,3.169,3.1577,3.0762,3.0757,3.0283,2.9374,0.0,2.6488,2.5687,2.5619,0.0,0.0,2.5434,2.5972,0.0,0.0,0.0,0.0,0.0,0.0,0.0,0.0,0.0,0.0,2.5663,0.0,0.0,0.0,0.0,2.6544,0.0,0.0,0.0,0.0,0.0,0.0,0.0,0.0,0.0,0.0,0.0,0.0,0.0,0.0,0.0,0.0,0.0,0.0,0.0,0.0,0.0,2.6953,2.6142,2.6035,2.6879,2.6048,2.5531,2.5401,2.5322,2.4339,2.2483,2.2227,2.1087,1.9168,1.8843,1.8448,1.7983,1.7704,1.7248,1.667,1.6394,1.5981,1.5448,1.4814,1.4342,1.3888,1.3173,1.2603,1.2102,3.744,0.0,0.0,0.0,0.0,0.0,0.0,3.8635,0.0,0.0,0.0,0.0,0.0,3.7113,3.6523,0.0,0.0,3.4703,3.414,3.4029,0.0,0.0,0.0,3.3122,0.0,0.0,0.0,0.0,0.0,0.0,0.0,0.0,0.0,0.0,0.0,3.3145,0.0,0.0,0.0,0.0,0.0,3.032,2.955,0.0,0.0,2.6554,2.6474,2.6101,0.0,2.5499,2.6405,2.7544,2.7451,2.8434,2.9485,2.8852,2.8664,0.0,0.0,0.0,2.767,2.7067,0.0,0.0,0.0,0.0,0.0,0.0,0.0,0.0,0.0,0.0,0.0,0.0,0.0,0.0,0.0,0.0,0.0,0.0,0.0,0.0,0.0,0.0,0.0,0.0,0.0,0.0,0.0,2.7558,2.7513,2.7813,2.6415,2.5591,2.5466,2.541,2.4399,2.2498,2.2274,2.1123,1.9196,1.8895,1.8528,1.81,1.771,1.7272,1.6783,1.6448,1.5953,1.5389,1.4904,1.4401,1.3861,1.3138,1.2603,1.2018,3.8373,0.0,0.0,0.0,0.0,0.0,0.0,0.0,0.0,0.0,4.0566,0.0,3.9493,0.0,3.8337,0.0,3.6793,3.6009,3.5424,3.5059,0.0,3.406,3.4311,0.0,0.0,0.0,0.0,0.0,0.0,3.4777,0.0,0.0,0.0,0.0,0.0,3.4031,3.2564,0.0,3.3487,0.0,0.0,3.0765,0.0,0.0,2.8981,2.7466,0.0,2.7028,2.6476,2.6112,2.711,2.8431,2.8046,2.912,3.0405,2.9775,2.9597,2.941,2.8544,2.851,0.0,2.795,2.7635,0.0,2.6642,0.0,0.0,0.0,0.0,0.0,0.0,0.0,0.0,0.0,0.0,0.0,0.0,0.0,0.0,0.0,0.0,0.0,0.0,0.0,0.0,0.0,0.0,0.0,0.0,0.0,2.7988,2.8288,2.6615,2.564,2.5537,2.5147,2.4128,2.2552,2.2029,2.0886,1.9222,1.893,1.8585,1.8166,1.7777,1.7344,1.6901,1.6528,1.6009,1.5433,1.498,1.4447,1.3861,1.3173,1.2413,1.1605,3.9515,0.0,0.0,0.0,3.9902,0.0,0.0,0.0,4.3351,0.0,4.3181,4.3056,4.1348,4.1124,4.0413,3.87,3.7702,3.7144,3.7074,3.628,0.0,0.0,3.6535,3.6593,3.5781,0.0,0.0,0.0,0.0,0.0,0.0,0.0,0.0,0.0,3.5424,0.0,3.342,3.4288,3.4194,3.3375,3.2505,3.1677,3.094,3.0955,2.9921,2.8488,2.8398,2.8304,2.8088,2.725,2.8051,2.9252,2.8349,2.9237,3.0593,3.0521,3.05,3.0306,2.9473,2.9825,3.0002,2.833,0.0,0.0,0.0,0.0,2.8406,0.0,0.0,0.0,0.0,0.0,0.0,0.0,0.0,0.0,0.0,0.0,0.0,0.0,0.0,0.0,0.0,0.0,0.0,0.0,0.0,0.0,0.0,0.0,2.7437,2.8279,2.6603,2.5668,2.5604,2.4606,2.3634,2.2681,2.1543,2.041,1.9295,1.8963,1.8586,1.8187,1.7927,1.7519,1.6993,1.6633,1.6133,1.5536,1.4996,1.4433,1.3868,1.3126,1.209,1.0857,4.1156,4.2345,4.2944,0.0,4.2084,4.22,0.0,0.0,0.0,0.0,4.3554,4.3276,4.2192,4.1498,4.0656,3.9563,3.8618,0.0,0.0,0.0,0.0,3.6695,3.7439,3.7478,3.6676,3.7041,0.0,3.7966,0.0,0.0,3.7006,0.0,0.0,0.0,0.0,0.0,3.426,3.5178,3.5067,3.4213,3.3346,3.29,0.0,0.0,3.1501,3.0956,2.9718,2.8847,2.8226,2.7952,2.8573,2.9424,2.9136,2.9788,3.0665,3.0595,3.0501,3.0378,3.0152,3.0201,3.0209,2.9775,2.934,2.8906,0.0,0.0,0.0,0.0,0.0,0.0,0.0,0.0,0.0,0.0,0.0,0.0,0.0,0.0,0.0,2.9272,0.0,0.0,0.0,0.0,0.0,0.0,0.0,0.0,0.0,0.0,0.0,2.8281,2.6613,2.5665,2.56,2.4646,2.367,2.2681,2.1536,2.0423,1.9361,1.9031,1.8716,1.8406,1.7932,1.7502,1.7117,1.6633,1.612,1.5536,1.4996,1.4208,1.3254,1.2579,1.1763,1.0857,4.247,0.0,0.0,4.4694,0.0,0.0,4.3687,4.3935,0.0,4.4258,4.4607,0.0,4.3629,4.2737,4.1993,4.1506,3.9935,0.0,3.8917,0.0,0.0,3.6471,3.7207,3.7265,3.6452,3.7099,0.0,3.7734,0.0,0.0,3.7549,0.0,0.0,0.0,0.0,3.5503,3.5111,3.5636,3.5373,3.4561,3.4066,0.0,0.0,3.2848,3.2666,3.2538,3.16,3.0461,2.9374,2.8912,2.9343,3.0005,2.9582,3.0017,3.0688,3.0621,3.0521,3.0428,3.0436,3.0379,3.0382,3.0745,3.0431,2.9931,2.9494,2.9631,2.9497,0.0,0.0,0.0,0.0,0.0,0.0,0.0,0.0,0.0,0.0,0.0,0.0,0.0,2.8491,0.0,0.0,0.0,0.0,0.0,0.0,0.0,0.0,0.0,0.0,2.83,2.6983,2.6052,2.561,2.4671,2.3697,2.2681,2.1536,2.0423,1.9361,1.9048,1.8734,1.8426,1.8014,1.7595,1.7199,1.6686,1.6148,1.5565,1.4752,1.3881,1.3025,1.2401,1.1653,1.0857,0.0,0.0,0.0,0.0,0.0,0.0,0.0,4.5233,0.0,4.5249,0.0,4.5955,4.5074,4.425,4.3715,4.3591,0.0,4.0012,3.9927,3.8404,3.7093,3.6226,3.6969,3.7007,3.6184,3.7599,3.8036,0.0,0.0,0.0,0.0,0.0,0.0,0.0,0.0,0.0,0.0,3.5829,3.5376,3.4736,3.475,3.4305,3.3619,3.3584,3.3556,3.3541,3.3435,3.246,3.1085,3.0157,3.0342,3.0813,2.9946,3.0218,3.0826,3.0657,3.0626,3.0664,3.0653,3.0568,3.0625,3.1312,3.1427,3.1142,3.0281,3.0467,3.0452,2.9025,2.8596,2.8502,0.0,0.0,0.0,0.0,0.0,0.0,0.0,0.0,0.0,0.0,0.0,0.0,0.0,0.0,0.0,0.0,0.0,0.0,0.0,0.0,0.0,2.8301,2.7446,2.6548,2.5605,0.0,2.3697,2.2681,2.1555,2.041,1.9295,1.9048,1.8716,1.8385,1.8134,1.7726,1.7272,1.6789,1.6188,1.5507,1.4424,1.3648,1.3025,1.2437,1.1689,1.0867,0.0,0.0,0.0,0.0,0.0,4.6015,4.5877,4.5488,4.5429,4.5991,4.6215,4.5945,4.5026,4.476,4.437,4.3586,4.2451,0.0,0.0,0.0,0.0,3.88,3.9528,3.9507,3.8612,3.8873,3.9283,0.0,0.0,0.0,0.0,0.0,0.0,0.0,0.0,0.0,3.6654,3.5949,0.0,3.5514,3.5577,3.55,3.5295,3.4637,3.4393,3.4296,3.3632,3.3219,3.2831,3.194,3.1753,3.1724,3.0857,3.1131,3.1617,3.0839,3.1061,3.1553,3.1499,3.1392,3.1312,3.1398,3.1329,3.12,3.1004,3.0464,3.0112,3.0415,2.9908,2.9287,2.8704,0.0,0.0,0.0,0.0,0.0,0.0,0.0,0.0,0.0,0.0,2.6739,0.0,0.0,0.0,0.0,0.0,0.0,0.0,0.0,0.0,0.0,2.7396,0.0,0.0,0.0,2.3642,2.2681,2.1547,2.0423,1.9361,1.9101,1.8807,1.8465,1.8155,1.7726,1.7272,1.6789,1.5978,1.4968,1.4278,1.3656,1.3091,1.2389,1.1653,1.0857,0.0,0.0,0.0,0.0,0.0,0.0,0.0,4.5899,4.5763,4.6183,4.6245,4.6064,4.5579,4.5114,4.482,4.4792,4.3158,4.2125,4.2054,4.0784,3.9585,3.8599,3.8866,0.0,3.8278,3.8278,3.8663,3.9468,0.0,0.0,0.0,0.0,0.0,0.0,0.0,3.743,0.0,0.0,0.0,3.6284,3.6328,3.6124,3.5713,3.5405,3.526,3.5237,3.4882,3.4749,3.4547,3.3221,3.2467,3.2101,3.2147,3.2074,3.1994,3.1969,3.2201,3.2464,3.2389,3.2301,3.2215,3.2106,3.2305,3.24,3.1899,3.1392,3.113,3.1406,3.0508,2.9455,2.8814,2.8535,0.0,0.0,0.0,0.0,0.0,0.0,0.0,0.0,0.0,0.0,0.0,0.0,0.0,0.0,0.0,0.0,0.0,0.0,0.0,0.0,0.0,0.0,0.0,0.0,0.0,2.2592,2.1928,2.0821,1.9335,1.9066,1.8789,1.8485,1.8155,1.7726,1.7248,1.6443,1.5652,1.4845,1.4246,1.3656,1.3113,1.2425,1.1726,1.1046,0.0,4.7206,0.0,0.0,4.6937,0.0,4.6294,4.6181,4.617,4.6201,4.6183,4.615,4.6113,4.5454,4.5267,4.5891,4.3892,4.2557,4.2454,4.0939,3.9599,3.8569,3.8556,3.8441,3.8111,3.8264,3.8641,0.0,0.0,0.0,0.0,0.0,0.0,0.0,0.0,0.0,0.0,0.0,3.7654,3.707,3.7143,3.6665,3.597,3.6095,3.6138,3.6138,3.6012,3.6095,3.6013,3.4471,3.3376,3.2736,3.3236,3.3015,3.2647,3.3072,3.3275,3.3364,3.3291,3.3224,3.3125,3.3004,3.3372,3.354,3.2713,3.2354,3.22,3.2262,3.1184,3.0034,2.9395,2.8973,0.0,0.0,0.0,0.0,0.0,0.0,0.0,0.0,0.0,0.0,2.7423,0.0,0.0,0.0,0.0,0.0,0.0,0.0,0.0,0.0,0.0,2.74,2.5776,0.0,2.4399,2.2509,2.2287,2.1166,1.9289,1.9014,1.8752,1.8445,1.8117,1.7658,1.7076,1.6271,1.5536,1.4845,1.4292,1.3722,1.3148,1.2484,1.1836,1.1159,0.0,0.0,0.0,0.0,0.0,0.0,4.613,4.6107,4.6127,4.6183,4.6142,4.6113,4.6105,4.5917,4.5796,4.5827,4.4815,4.4129,4.3993,4.3042,4.1991,4.0931,4.1522,4.1397,4.0409,4.1128,4.1461,0.0,0.0,0.0,0.0,0.0,0.0,0.0,0.0,0.0,0.0,3.8142,3.7843,3.7887,3.7957,3.7513,3.6798,3.6861,3.6928,3.6895,3.6177,3.6416,3.6957,3.606,3.5175,3.4329,3.362,3.3843,3.4197,3.3429,3.371,3.4255,3.4187,3.4083,3.3959,3.3903,3.3762,3.3545,3.3352,3.2668,3.2306,3.3016,3.2675,3.195,3.1047,3.1713,3.1885,0.0,0.0,0.0,0.0,0.0,0.0,0.0,0.0,0.0,0.0,2.5817,0.0,0.0,0.0,0.0,0.0,0.0,0.0,2.9405,0.0,2.762,2.6594,2.5736,2.4347,2.2494,2.2299,2.1189,1.9289,1.9014,1.8716,1.8385,1.8035,1.7392,1.6586,1.6722,1.6083,1.4937,1.4465,1.3868,1.3216,1.2673,1.1982,1.1234,0.0,0.0,0.0,0.0,0.0,0.0,0.0,4.6076,4.6037,4.6008,4.6037,4.6016,4.598,4.5906,4.5805,4.5692,4.4773,4.4208,4.4135,4.3194,4.2376,4.1878,4.1989,4.1796,4.1241,4.151,4.1842,0.0,0.0,0.0,0.0,0.0,0.0,0.0,0.0,4.0739,4.0307,4.0062,3.9431,3.8616,3.8661,3.8219,3.7506,3.7614,3.7693,3.7735,3.7494,3.7306,3.7142,3.6836,3.5813,3.4724,3.4906,3.4827,3.4676,3.4743,3.4983,3.5223,3.5121,3.4982,3.4745,3.4148,3.4251,3.432,3.3579,3.316,3.3116,3.3818,3.3479,3.2789,3.1956,3.2502,3.2724,0.0,0.0,0.0,0.0,0.0,0.0,0.0,0.0,0.0,0.0,0.0,0.0,0.0,0.0,0.0,0.0,0.0,0.0,2.9479,0.0,2.7569,2.6583,2.5655,2.4476,2.3088,2.2454,2.1362,1.9943,1.9651,1.9195,1.8682,1.8208,1.7416,1.6456,1.6637,1.6037,1.4951,1.4433,1.3914,1.3399,1.2743,1.2138,1.1542,4.8743,0.0,4.8704,0.0,4.7425,4.7359,4.6851,4.6302,4.6021,4.6197,4.6255,4.6261,4.6239,4.6379,4.6436,4.6313,4.5381,4.4805,4.4784,4.3767,4.3128,4.2988,4.2956,0.0,4.2686,4.2817,4.3143,4.3582,4.3175,0.0,0.0,0.0,0.0,0.0,4.2583,4.2295,4.156,4.1632,4.1032,4.0024,3.9832,3.9291,3.8604,3.8464,3.8479,3.8531,3.8404,3.8171,3.7877,3.7659,3.6794,3.584,3.5951,3.5584,3.5182,3.5671,3.5791,3.5773,3.5646,3.5502,3.5229,3.4531,3.4897,3.5192,3.4312,3.4116,3.4239,3.4624,3.4525,3.4205,3.365,3.3899,3.3945,3.3254,0.0,0.0,0.0,0.0,0.0,0.0,2.7366,2.6966,2.7472,2.7605,0.0,0.0,0.0,0.0,0.0,0.0,0.0,0.0,0.0,0.0,0.0,2.5626,2.4492,2.3427,2.2716,2.1773,2.0679,2.023,1.9603,1.8814,1.8749,1.7812,1.6363,1.6789,1.6182,1.4921,1.4447,1.3993,1.3547,1.2918,1.2389,1.192,5.1107,5.0563,4.9964,4.9868,4.8711,4.793,4.8321,4.6911,4.6095,4.6882,4.6937,4.6923,4.6976,4.764,4.8048,4.7972,4.7044,4.644,4.6374,4.5361,4.4707,0.0,0.0,4.5401,4.5249,4.5894,4.6215,4.6149,0.0,0.0,4.5249,0.0,4.3567,4.214,4.3006,4.3014,4.2393,4.2323,4.2393,4.2474,4.1618,4.0864,4.0187,3.9451,3.9283,3.9284,3.8565,3.886,3.9466,3.8734,3.8478,3.8166,3.6523,3.5979,3.5951,3.5846,3.5791,3.5773,3.5646,3.5502,3.5364,3.5219,3.5683,3.6097,3.5829,3.5731,3.5632,3.5423,3.6075,3.6646,3.6556,3.6504,3.6155,3.5227,0.0,0.0,0.0,0.0,0.0,2.9645,2.8288,2.7127,2.6477,2.6545,0.0,0.0,0.0,0.0,0.0,0.0,0.0,3.184,2.9225,0.0,2.758,2.5749,2.4298,2.3291,2.308,2.2429,2.1367,2.0705,1.975,1.866,1.9735,1.8665,1.6268,1.7348,1.6654,1.4871,1.4525,1.4059,1.3581,1.3285,1.2849,1.2365,5.0399,4.9936,4.9333,4.8533,4.8599,4.8778,4.8864,4.8102,4.7568,4.7735,4.8257,4.8548,4.837,4.8124,4.7931,0.0,4.7487,4.7196,0.0,4.6675,4.641,4.6299,4.639,4.6389,4.6259,4.6406,4.6471,4.639,0.0,0.0,0.0,4.5279,4.4645,4.3615,4.398,4.3678,4.2878,4.2956,4.2731,4.2323,4.2132,4.1955,4.1795,4.1686,4.1716,4.1771,4.1685,4.1102,4.0403,4.0249,3.946,3.8401,3.7865,3.7694,3.7692,3.7644,3.7605,3.7547,3.7409,3.6845,3.6383,3.6807,3.6557,3.6309,3.6666,3.6453,3.6128,3.5984,3.6009,3.6087,3.6047,3.6377,3.6326,3.5439,3.5374,0.0,0.0,0.0,0.0,3.0083,2.9189,2.8216,2.7058,2.7682,0.0,0.0,0.0,0.0,0.0,0.0,0.0,0.0,2.9651,0.0,2.7403,2.6174,2.4989,2.3895,2.3143,2.2395,2.1653,2.069,2.0179,2.0036,2.0013,1.9072,1.7562,1.7599,1.6822,1.556,1.474,1.4222,1.396,1.3547,1.3195,1.2814,5.0402,5.0176,4.98,4.9033,4.9417,4.983,4.9749,4.9043,4.8546,4.8567,4.8951,4.9194,4.9022,4.8831,0.0,4.8666,4.831,4.8041,4.7915,4.7481,4.7306,4.757,4.7432,4.7442,4.7641,4.7583,0.0,4.7419,4.7485,4.7141,4.6383,4.6464,4.6046,4.5241,4.53,4.4861,4.4074,4.413,4.3743,4.3076,4.2875,4.2858,4.2936,4.2747,4.2737,4.285,4.3057,4.2497,4.1633,4.1481,4.0723,3.9842,3.9559,3.9489,3.9349,3.8686,3.8442,3.8372,3.8236,3.7688,3.7267,3.7611,3.7376,3.7119,3.7347,3.7524,3.7507,3.7004,3.6935,3.6955,3.6904,3.6825,3.6595,3.5972,3.5687,3.5047,3.3715,0.0,0.0,0.0,0.0,0.0,0.0,2.8446,2.8268,0.0,0.0,0.0,0.0,0.0,0.0,3.1974,2.9842,0.0,2.7635,2.6635,2.5597,2.4574,2.3454,2.2647,2.2096,2.1285,2.0807,2.0603,2.0378,1.9468,1.816,1.7969,1.7159,1.5927,1.5157,1.4588,1.417,1.3815,1.3501,1.3195,5.095,5.1093,5.1043,0.0,5.089,0.0,5.0795,4.976,4.9084,4.9354,4.9207,4.9075,4.9052,4.9681,5.0108,5.0082,0.0,0.0,0.0,4.7916,4.7711,4.8438,4.8288,4.8509,4.9179,4.915,4.9049,4.8909,4.9049,4.8654,4.7816,4.7919,4.7567,4.6787,4.6694,4.6345,4.5752,4.5675,4.5302,4.4691,4.3939,4.3731,4.3753,4.3027,4.28,4.2889,4.3096,4.3176,4.3091,4.247,4.2248,4.2074,4.1407,4.1147,4.0781,3.9153,3.863,3.8555,3.8412,3.8241,3.804,3.7917,3.8212,3.8432,3.7969,3.8793,3.9385,3.8427,3.86,3.8901,3.8732,3.7803,3.6978,3.6841,3.6023,3.5218,3.4603,0.0,0.0,0.0,0.0,0.0,0.0,2.8914,2.8449,0.0,0.0,0.0,0.0,0.0,3.1915,3.2549,2.9899,2.8353,2.8163,2.7103,2.6106,2.5135,2.3861,2.306,2.2659,2.2281,2.1528,2.0557,2.0798,1.9876,1.8281,1.8497,1.7621,1.6135,1.5769,1.5076,1.4289,1.4092,1.3802,1.3514,0.0,0.0,5.0952,5.0906,5.081,5.074,5.0741,5.0333,5.0054,5.0065,4.9973,4.9877,4.9759,4.9949,5.0057,4.9952,4.9815,4.9667,4.9495,4.9249,4.9096,4.9084,4.904,4.907,4.9179,4.9197,4.9113,4.8993,4.9113,4.8669,4.7735,4.7835,4.7388,4.6573,4.6541,4.648,4.6326,4.6339,4.6259,4.6134,4.6127,4.5792,4.5227,4.5306,4.4976,4.4475,4.4729,4.4474,4.401,4.3949,4.3167,4.2183,4.2052,4.1585,4.1014,4.0609,4.0437,4.0365,4.0225,3.9554,3.9019,3.9431,3.9334,3.9193,3.9478,3.9507,3.9492,3.9553,3.9409,3.9176,3.8905,3.8434,3.8052,3.7865,3.6671,3.5771,3.57,3.4636,0.0,0.0,3.1768,3.0993,2.9875,2.9962,3.0152,0.0,0.0,0.0,0.0,3.271,3.2482,3.2165,3.0109,2.8635,2.7827,2.7496,2.6426,2.4659,2.347,2.279,2.2525,2.213,2.1681,2.1157,2.0943,2.044,1.9728,1.8921,1.8249,1.7571,1.6322,1.5604,1.5178,1.4547,1.4144,1.3835,5.0908,5.0956,5.0874,5.081,5.0759,5.0663,5.0542,5.0459,5.0352,5.0274,5.0207,5.0114,5.0005,4.9978,4.9925,4.9871,4.9925,4.9898,4.975,4.9615,4.9495,4.9352,4.9632,4.9772,4.9691,4.9691,4.9471,4.8959,4.9046,4.8974,4.8797,4.8797,4.8744,4.8635,4.8264,4.7927,4.759,4.7299,4.6973,4.665,4.6794,4.6623,4.6317,4.6531,4.6152,4.5537,4.5812,4.5438,4.4795,4.4588,4.3974,4.3227,4.2512,4.2022,4.1615,4.1227,4.1046,4.0972,4.0848,4.0301,3.9813,3.9867,3.9556,3.9361,3.9817,3.9859,3.9914,4.0253,3.9988,3.9608,3.923,3.8557,3.801,3.779,3.6827,3.5994,3.5745,3.5094,0.0,3.2824,3.2329,3.1786,3.0912,3.0834,3.0999,3.1287,3.2491,0.0,3.2929,3.2662,3.2305,3.1812,3.0319,2.9057,2.8106,2.7152,2.6065,2.4796,2.3406,2.2561,2.2298,2.1945,2.1587,2.1277,2.0909,2.0543,2.0154,1.9441,1.8847,1.8212,1.7021,1.6213,1.5689,1.4924,1.4447,1.4144,5.0681,5.0858,5.0844,5.0721,5.0663,5.0563,5.0325,5.0329,5.0306,5.0201,5.0127,5.0057,4.9978,4.9871,4.9844,4.9948,5.0005,4.9948,4.9778,4.9668,4.9571,4.9571,5.0198,5.053,5.0464,5.0464,5.0075,4.9245,4.9245,4.9598,5.0266,5.0194,5.0528,5.1157,5.0472,4.9824,4.9173,4.8475,4.7779,4.7191,4.7111,4.7093,4.717,4.7268,4.6862,4.6297,4.6428,4.6125,4.5552,4.4877,4.466,4.4443,4.3089,4.2543,4.2232,4.1504,4.1166,4.0961,4.0849,4.0642,4.0302,3.9743,3.9376,3.9314,3.9777,4.0017,4.0271,4.0754,4.0412,3.9995,3.962,3.8631,3.7818,3.7586,3.7019,3.6415,3.5796,0.0,3.4844,3.3615,3.3034,3.2626,3.2378,3.1954,3.1821,3.2096,3.2624,3.2834,3.2598,3.2242,3.1862,3.1409,3.037,2.9409,2.8518,2.6516,2.5464,2.5338,2.346,2.2449,2.2236,2.1787,2.1466,2.1183,2.0859,2.0475,2.0115,1.9919,1.9375,1.8584,1.7714,1.6855,1.6096,1.5236,1.4746,1.4447,5.072,5.074,5.0721,5.0702,5.0521,5.0348,5.0302,5.0207,5.0133,5.0108,5.0005,4.9898,4.9835,4.9807,5.0062,5.0654,5.07,5.0369,4.969,5.019,5.044,5.0239,5.094,5.1301,5.1248,5.1248,5.1083,5.0843,5.0824,5.0879,5.0933,5.0933,5.0988,5.1118,5.1065,5.0935,5.0693,5.0026,4.9635,4.9451,4.8922,4.8366,4.786,4.8096,4.7711,4.6981,4.6568,4.6424,4.6319,4.5664,4.5066,4.4591,4.4463,4.3454,4.2303,4.2224,4.1631,4.0989,4.0904,4.0516,4.0081,3.9675,3.935,3.9406,4.0459,4.0017,3.9766,4.1163,4.062,3.9922,3.985,3.9428,3.9101,3.8977,3.8467,3.8087,3.8153,0.0,3.6507,3.5719,3.474,3.423,3.4411,3.41,3.3973,3.4131,3.4298,3.3938,3.2949,3.2883,3.2102,3.0547,2.9801,2.8987,2.8081,2.6202,2.5523,2.6016,2.3579,2.2598,2.2919,2.2005,2.1466,2.1183,2.0859,2.0559,2.0339,2.0076,1.9788,1.9385,1.806,1.7379,1.6947,1.5626,1.5011,1.4766,5.0702,5.0584,5.0478,5.0478,5.0371,5.0302,5.0302,5.0182,5.0082,5.0005,4.9952,5.0041,5.0412,5.0363,5.0644,5.1412,5.1412,5.1166,5.0823,5.1045,5.1099,5.0908,5.1656,5.2085,5.2048,5.1974,5.1695,5.1213,5.1213,5.1378,5.1745,5.1648,5.1888,5.2275,5.1872,5.1687,5.1593,5.0934,5.062,5.0602,4.9859,4.9477,4.9267,4.899,4.8445,4.7815,4.7682,4.7175,4.6526,4.632,4.5812,4.5189,4.4889,4.4289,4.3534,4.2666,4.1719,4.0926,4.0787,4.0739,4.0668,4.0358,4.005,4.01,4.1181,4.051,4.0012,4.1227,4.0839,4.0185,3.9868,3.9573,3.9309,3.9148,3.8678,0.0,0.0,3.7862,3.7046,3.598,3.5488,3.5077,3.4611,3.4641,3.4505,3.4139,3.4217,3.3781,3.2669,3.257,3.1976,3.07,2.9211,2.8188,2.7795,2.6335,2.5777,2.6014,2.3913,2.2908,2.2905,2.1915,2.134,2.1023,2.0843,2.061,2.0388,2.025,1.9832,1.9299,1.8627,1.7996,1.7445,1.6757,1.6082,1.5513,5.0624,5.0438,5.0302,5.0302,5.0302,5.0278,5.0231,5.0133,5.0031,4.9906,4.9898,5.0174,5.0893,5.087,5.1212,5.2164,5.2146,5.2139,5.2311,5.2169,5.1951,5.1621,5.2382,5.2808,5.2808,5.2713,5.236,5.1749,5.1711,5.1987,5.2536,5.2357,5.2647,5.3258,5.2633,5.2375,5.232,5.1648,5.1414,5.136,5.0564,5.0285,5.025,4.9716,4.9159,4.8692,4.8659,4.7857,4.6768,4.6781,4.6326,4.5698,4.5207,4.4965,4.4598,4.3102,4.1989,4.1112,4.0739,4.0828,4.1034,4.0957,4.0532,4.0463,4.1674,4.0709,3.9899,4.1209,4.073,4.0024,3.9817,3.952,3.9325,3.9148,0.0,0.0,0.0,3.8237,3.7509,3.6207,3.6084,3.5745,3.476,3.5066,3.4886,3.39,3.3935,3.3494,3.2232,3.2126,3.1655,3.0663,2.8781,2.7701,2.7509,2.6488,2.6028,2.607,2.4157,2.3176,2.3044,2.1903,2.123,2.0974,2.086,2.0662,2.0441,2.0203,1.9808,1.9339,1.8997,1.8515,1.8005,1.7742,1.7161,1.643,5.0348,5.0302,5.0302,5.0302,5.0302,5.0231,4.9978,4.9906,4.9925,4.9879,4.9898,5.0146,5.0824,5.0889,5.1437,5.2806,5.2922,5.319,5.3795,5.3702,5.3292,5.2549,5.3082,5.3447,5.3447,5.3407,5.337,5.3315,5.3216,5.3152,5.3226,5.3036,5.303,5.3206,5.3133,5.3096,5.3059,5.2478,5.2167,5.1956,5.1281,5.0639,5.0133,5.0129,4.9875,4.9416,4.8749,4.8137,4.7522,4.6913,4.6259,4.5727,4.5803,4.5356,4.4639,4.3778,4.2845,4.1902,4.0947,4.0549,4.048,4.0874,4.0184,3.9863,4.1666,3.9947,3.865,4.1102,3.9926,3.8777,3.9733,3.9781,3.9642,3.9501,0.0,0.0,3.9594,3.911,3.8403,3.7466,3.703,3.6542,3.5865,3.6177,3.5849,3.4293,3.4283,3.3619,3.1942,3.1819,3.111,2.9575,2.8797,2.8066,2.723,2.635,2.6143,2.6623,2.4236,2.3348,2.3753,2.2069,2.1262,2.1167,2.0893,2.0744,2.0613,1.9889,1.9836,2.0104,1.8919,1.8669,1.8921,1.815,1.77,1.7445,5.0302,5.0302,5.0255,5.0063,5.0038,5.0031,4.9925,4.9898,4.9898,4.9898,4.9816,5.026,5.1579,5.16,5.2151,5.3653,5.3749,5.3773,5.3963,5.3774,5.3471,5.3174,5.375,5.3893,5.3499,5.3898,5.4137,5.4137,5.4054,5.397,5.3879,5.4287,5.395,5.2974,5.3485,5.3474,5.3066,5.2839,5.2794,5.2784,5.2112,5.1768,5.1546,5.0631,5.059,5.091,4.9634,4.9189,4.9072,4.8372,4.7357,4.6403,4.6588,4.6127,4.5293,4.4019,4.2999,4.2046,4.1092,4.1335,4.1742,4.125,4.0578,4.0282,4.1232,3.991,3.8992,4.0605,3.9964,3.9225,3.9374,3.9261,3.8959,3.8304,0.0,3.8471,3.8254,3.802,3.7569,3.6801,3.6659,3.6173,3.5145,3.5343,3.4909,3.3338,3.3352,3.2904,3.1682,3.1168,3.0208,2.8648,2.8288,2.7775,2.7087,2.6587,2.6438,2.6607,2.466,2.3751,2.3802,2.2259,2.1419,2.1215,2.1135,2.1038,2.0909,2.0542,2.0224,1.9953,1.9762,1.9476,1.9173,1.9204,1.8789,1.8193,5.0302,5.0302,5.0231,4.9986,4.9978,4.9952,4.9925,4.9898,4.9993,5.0258,4.9958,5.0363,5.2013,5.2027,5.2409,5.3749,5.3979,5.4037,5.3944,5.3658,5.3459,5.3418,5.4044,5.4228,5.3806,5.4496,5.4859,5.4859,5.4859,5.4773,5.4653,5.5139,5.4702,5.3634,5.3836,5.3717,5.3365,5.3065,5.3023,5.318,5.2688,5.2462,5.2249,5.1046,5.1124,5.1668,5.0096,4.9759,4.9924,4.9215,4.7984,4.6797,4.7013,4.6418,4.5453,4.4418,4.3432,4.25,4.1552,4.1906,4.2309,4.1431,4.0712,4.0373,4.0972,3.9865,3.9103,4.0463,4.0114,3.9582,3.9692,3.9586,3.9137,3.8149,3.8016,3.79,3.7419,3.7286,3.697,3.6238,3.6052,3.5559,3.4448,3.4389,3.3894,3.2536,3.2554,3.2166,3.1057,3.0145,2.9123,2.8015,2.7656,2.73,2.6859,2.6657,2.6537,2.6486,2.4863,2.3968,2.3786,2.2307,2.1464,2.1262,2.1262,2.1167,2.099,2.0719,2.0369,2.0083,2.0172,1.9962,1.9659,1.9913,1.9582,1.8932,5.0302,5.0302,5.0255,5.0133,5.0108,5.0057,4.9925,4.9898,5.0201,5.1092,5.0383,5.0421,5.2032,5.2027,5.2184,5.2839,5.3589,5.3944,5.3813,5.3619,5.3418,5.3206,5.3977,5.4418,5.4399,5.5188,5.5592,5.5592,5.5592,5.5592,5.5592,5.5323,5.5259,5.5359,5.4264,5.3964,5.4125,5.3215,5.2868,5.2999,5.2999,5.2547,5.1867,5.1316,5.1343,5.1454,4.9952,4.9644,4.983,4.9143,4.792,4.6723,4.6934,4.6022,4.4922,4.4972,4.4336,4.3396,4.2454,4.2043,4.1779,4.1303,4.0397,3.9908,4.1014,3.9676,3.8753,4.0751,4.0134,3.9563,4.0758,4.0789,4.0326,3.935,3.8971,3.8487,3.7617,3.7236,3.6804,3.6075,3.5426,3.4788,3.4039,3.3624,3.3051,3.2143,3.2215,3.1573,2.9972,2.86,2.7841,2.7683,2.6993,2.6589,2.6485,2.6485,2.6434,2.6262,2.4713,2.3968,2.3819,2.2148,2.1386,2.1386,2.1262,2.1103,2.0846,2.0178,2.0226,2.0614,1.9892,1.9969,2.046,2.022,1.9975,1.9762,5.0226,5.0226,5.0201,5.0108,5.0031,4.9952,4.9925,4.9898,5.0201,5.1092,5.0847,5.1005,5.2088,5.2554,5.284,5.2877,5.3607,5.3907,5.3619,5.344,5.3295,5.3206,5.4509,5.4968,5.4418,5.5739,5.641,5.6301,5.641,5.6301,5.6033,5.6616,5.6212,5.5032,5.5257,5.5123,5.4701,5.3945,5.3663,5.3653,5.3329,5.3046,5.2752,5.2225,5.2568,5.308,5.1003,5.084,5.148,5.0177,4.8774,4.7396,4.6506,4.5998,4.5631,4.5098,4.4334,4.3476,4.2532,4.1702,4.1028,4.0612,4.0129,3.9755,3.9825,3.9086,3.8664,3.9554,3.92,3.8753,3.8849,3.8782,3.8249,3.7002,3.6729,3.6506,3.6025,3.5352,3.4858,3.4751,3.4022,3.3317,3.2739,3.2555,3.2184,3.1523,3.1038,3.0289,2.9198,2.8277,2.7588,2.7012,2.6741,2.632,2.5799,2.6252,2.6166,2.553,2.4481,2.3703,2.3094,2.2106,2.1617,2.1542,2.1497,2.1388,2.1245,2.0926,2.0879,2.0957,2.0523,2.0423,2.046,2.0166,1.9919,1.9762,5.0133,5.0158,5.0158,5.0082,5.0005,4.9925,4.9906,4.9898,5.0201,5.0998,5.0978,5.1209,5.2076,5.2414,5.2679,5.2877,5.3534,5.3813,5.3539,5.3359,5.3295,5.3206,5.473,5.5354,5.4876,5.641,5.7143,5.7078,5.7078,5.6966,5.6776,5.7267,5.6946,5.5861,5.5988,5.577,5.5443,5.4662,5.4246,5.3991,5.3701,5.3402,5.3036,5.2496,5.2994,5.3701,5.1338,5.1293,5.2096,5.0575,4.9114,4.7741,4.6331,4.5998,4.6013,4.5548,4.4599,4.3572,4.2982,4.185,4.0752,4.0446,3.9872,3.9221,3.8503,3.8035,3.7881,3.834,3.8131,3.7843,3.7743,3.7551,3.7019,3.5771,3.5462,3.5213,3.4633,3.4046,3.3717,3.3795,3.3141,3.2404,3.1732,3.1436,3.1044,3.0323,2.9617,2.8972,2.8426,2.7755,2.7165,2.6708,2.6691,2.6472,2.5933,2.6051,2.5682,2.478,2.3998,2.3353,2.2843,2.2098,2.1694,2.1589,2.1542,2.1419,2.1294,2.1183,2.1087,2.0957,2.0726,2.0543,2.0441,2.0096,1.9919,1.9777,5.0012,5.0108,5.0139,5.0012,5.0005,4.9978,4.9925,4.9898,5.0155,5.0884,5.0929,5.1209,5.1983,5.1794,5.1962,5.2804,5.3367,5.3693,5.365,5.3511,5.3424,5.3427,5.4876,5.5702,5.5702,5.7098,5.7792,5.7792,5.7697,5.7601,5.7601,5.7455,5.7388,5.7351,5.6477,5.6169,5.6231,5.5372,5.4669,5.4091,5.4045,5.358,5.2926,5.2426,5.2874,5.3535,5.1314,5.126,5.1949,5.035,4.9025,4.7831,4.635,4.5986,4.6091,4.6086,4.4946,4.3668,4.354,4.2237,4.0832,4.0578,3.9679,3.8575,3.7514,3.7001,3.6885,3.7323,3.7111,3.6904,3.7075,3.6935,3.6392,3.5313,3.4878,3.4362,3.3473,3.3169,3.3043,3.2959,3.2418,3.1708,3.092,3.0357,2.9702,2.8972,2.8247,2.7791,2.7723,2.7046,2.6623,2.664,2.674,2.6724,2.6539,2.5931,2.5124,2.4193,2.3379,2.2965,2.2881,2.2065,2.1664,2.1603,2.1464,2.1325,2.1135,2.1119,2.099,2.0794,2.0595,2.046,2.0388,2.0111,1.9919,1.9812,5.0005,5.0012,5.0031,4.9952,4.9906,4.9925,4.9879,4.9898,5.0155,5.0884,5.0929,5.1179,5.185,5.1846,5.2015,5.2695,5.3329,5.3973,5.4563,5.4382,5.4552,5.519,5.6059,5.6547,5.6547,5.7455,5.7904,5.7792,5.7792,5.7649,5.7437,5.7388,5.7338,5.7239,5.7007,5.6935,5.6949,5.6218,5.5438,5.4676,5.4282,5.3624,5.2875,5.3134,5.3452,5.3609,5.2055,5.178,5.1809,4.9106,4.8111,4.7741,4.6221,4.5861,4.5901,4.5285,4.4445,4.3551,4.2843,4.1831,4.0786,3.9946,3.9464,3.9215,3.9273,3.8564,3.7885,3.7692,3.6967,3.6243,3.5872,3.5703,3.5457,3.4821,3.4129,3.3526,3.3124,3.1884,3.1073,3.1165,3.0404,2.9839,2.967,2.9481,2.9291,2.9083,2.8475,2.7777,2.7063,2.648,2.6119,2.609,2.609,2.609,2.6056,2.5822,2.5188,2.4193,2.3379,2.2712,2.2204,2.1923,2.1768,2.1738,2.1603,2.1481,2.1309,2.1151,2.107,2.1006,2.076,2.0577,2.046,2.0304,2.0131,1.9919,4.9959,4.9978,4.9978,4.9906,4.9898,5.0031,5.0467,5.0477,5.0686,5.1469,5.1831,5.2153,5.2405,5.2394,5.2461,5.2678,5.331,5.4007,5.4763,5.4598,5.4883,5.5643,5.6426,5.6804,5.6804,5.7593,5.7932,5.7792,5.7697,5.7553,5.7388,5.7338,5.7257,5.7188,5.7188,5.7188,5.717,5.6903,5.6067,5.493,5.4821,5.4016,5.2937,5.3254,5.3539,5.3645,5.2547,5.1954,5.1329,4.9042,4.8149,4.7799,4.6673,4.6143,4.5811,4.5032,4.4259,4.3476,4.2636,4.1741,4.0818,3.9796,3.9469,3.92,3.844,3.7769,3.7099,3.6409,3.5435,3.4594,3.4149,3.3653,3.3158,3.2776,3.1974,3.1315,3.108,2.9935,2.914,2.9157,2.8727,2.8297,2.7967,2.7476,2.7343,2.7738,2.7427,2.7186,2.7087,2.6774,2.655,2.6505,2.6162,2.5973,2.5942,2.5115,2.4588,2.4382,2.3519,2.2781,2.2106,2.1899,2.1811,2.1738,2.1634,2.1481,2.1277,2.1167,2.1054,2.0974,2.0711,2.0543,2.0441,2.0254,2.0329,2.0521,5.0142,5.0047,5.0016,5.0115,5.0107,5.041,5.1254,5.1272,5.146,5.2088,5.2693,5.3067,5.3031,5.3094,5.3024,5.2659,5.3292,5.3933,5.45,5.4746,5.5153,5.5845,5.6565,5.7005,5.696,5.7666,5.795,5.7839,5.7553,5.7437,5.7437,5.7289,5.7188,5.7188,5.7239,5.7239,5.7239,5.7406,5.66,5.5254,5.5359,5.4517,5.3243,5.3243,5.3499,5.372,5.2921,5.1978,5.0873,4.9409,4.8493,4.7876,4.7195,4.637,4.5541,4.4793,4.4,4.3192,4.2397,4.1541,4.0681,3.9844,3.9457,3.8829,3.6998,3.6398,3.6008,3.5129,3.3995,3.3082,3.2748,3.188,3.1063,3.0603,2.9789,2.9084,2.8711,2.7935,2.7412,2.7315,2.7315,2.7023,2.6363,2.5564,2.5403,2.6115,2.6051,2.6246,2.6827,2.6736,2.6674,2.6644,2.604,2.582,2.5987,2.4663,2.4249,2.4788,2.4039,2.3224,2.2399,2.2174,2.1943,2.1694,2.165,2.1466,2.1215,2.1135,2.1022,2.0925,2.0754,2.0646,2.0574,2.0507,2.0798,2.1288,5.0947,5.0464,5.0153,5.0884,5.1035,5.1272,5.2048,5.2132,5.2092,5.2052,5.2115,5.2376,5.2922,5.3531,5.3442,5.2382,5.3218,5.3811,5.3923,5.5401,5.6473,5.6891,5.7481,5.7785,5.7692,5.7895,5.7997,5.7997,5.7697,5.7601,5.7553,5.7307,5.7188,5.7206,5.7289,5.7388,5.7388,5.7504,5.7072,5.6161,5.5624,5.4909,5.4161,5.3654,5.3639,5.3814,5.3104,5.2094,5.0873,4.9409,4.8493,4.7876,4.7141,4.592,4.4621,4.382,4.3066,4.2295,4.1498,4.0643,3.9935,3.9806,3.9168,3.8257,3.7172,3.6691,3.6372,3.6046,3.4641,3.3366,3.3156,3.2288,3.132,3.0406,2.9454,2.8567,2.7705,2.6862,2.6285,2.6229,2.6096,2.5984,2.5816,2.5632,2.5552,2.5605,2.5569,2.5287,2.4574,2.4584,2.452,2.4365,2.4261,2.4793,2.5987,2.5723,2.5578,2.5552,2.5387,2.4532,2.3139,2.2881,2.238,2.1694,2.165,2.1481,2.1294,2.1167,2.107,2.1086,2.1421,2.1483,2.147,2.1802,2.195,2.2041,5.0445,5.0589,5.0751,5.113,5.1557,5.2067,5.2851,5.2892,5.3,5.3338,5.3348,5.3433,5.369,5.3904,5.3777,5.3256,5.3572,5.3813,5.3813,5.4507,5.5544,5.6996,5.7242,5.7492,5.7886,5.795,5.795,5.7904,5.7745,5.7697,5.7601,5.7388,5.7289,5.7206,5.7338,5.7388,5.7388,5.7649,5.7222,5.6372,5.577,5.5071,5.4308,5.3649,5.3621,5.3776,5.2859,5.2196,5.1557,5.0108,4.8892,4.7912,4.7701,4.6542,4.5009,4.3768,4.3208,4.2637,4.0866,4.0081,3.957,3.8583,3.803,3.7366,3.593,3.5485,3.5326,3.5124,3.3614,3.2134,3.1539,3.0621,2.9645,2.8686,2.7342,2.6281,2.5788,2.4592,2.3709,2.3611,2.3547,2.3666,2.4097,2.4046,2.4311,2.5111,2.5134,2.507,2.4997,2.4989,2.491,2.4758,2.4232,2.4434,2.5412,2.4898,2.4951,2.5624,2.5511,2.4891,2.3897,2.3245,2.2725,2.2271,2.1737,2.1419,2.123,2.1071,2.118,2.1494,2.1502,2.1719,2.2059,2.2624,2.2832,2.2839]}]]